Ship Status Report: callsign 000000

sailwx.info

Track history (hours):
 
Tides and Currents Weather Stations Pressure Air Temp Water Temp Dewpoint Dewpoint Depression Visibility Wind Speed Wind Dir Waves Ship Positions

Callsign 000000 (name unknown)

Last reported at 2016-May-29 12:33 UTC. Time now 2016-May-29 13:28 UTC.
Position N 23°03' E 113°30'.

Type: Fishing. MMSI: 200007452.

Date/timePositionNaut miles runAvg speedWind from/ knotsBaromVisibWave heightAir tempDewpointWater temp
2016-May-29 12:33N 23°03' E 113°30'65971937.1
2016-May-29 12:33N 31°30' E 121°25'66019162.5
2016-May-29 12:31N 23°01' E 113°32'2113.2
2016-May-29 12:30N 22°59' E 113°31'66234058.8
2016-May-29 12:29N 31°25' E 121°32'4260.3
2016-May-29 12:28N 31°22' E 121°29'8230.9
2016-May-29 12:26N 31°30' E 121°25'8144.9
2016-May-29 12:22N 31°22' E 121°29'7 8.2
2016-May-29 11:33N 31°22' E 121°37'1816603.5
2016-May-29 11:33N 31°05' E 121°28'253196.7
2016-May-29 11:33N 31°30' E 121°25'8541.0
2016-May-29 11:32N 31°22' E 121°29'65724890.3
2016-May-29 11:30N 23°01' E 113°32'66017733.3
2016-May-29 11:28N 31°30' E 121°25'531904.8
2016-May-29 11:26N 32°01' E 120°33'6646403.9
2016-May-29 11:20N 22°52' E 113°34'2665725.5
2016-May-29 11:17N 24°25' E 118°05'46010742.3
2016-May-29 11:15N 31°30' E 121°24'64563.1
2016-May-29 11:08N 31°57' E 120°17'56726844.1
2016-May-29 11:07N 22°30' E 120°09'57242868.7
2016-May-29 11:06N 32°01' E 120°25'816778.3
2016-May-29 11:05N 31°02' E 121°29'2140.3
2016-May-29 10:33N 31°23' E 121°30'6910728.9
2016-May-29 10:33N 31°60' E 120°22'47022885.1
2016-May-29 10:31N 24°25' E 118°05'43822219.2
2016-May-29 10:30N 31°05' E 121°28'255614.1
2016-May-29 10:30N 31°30' E 121°25'9239.0
2016-May-29 10:28N 31°22' E 121°29'10263.6
2016-May-29 10:26N 31°30' E 121°22'271.7
2016-May-29 10:24N 31°30' E 121°24'704734.8
2016-May-29 10:23N 31°57' E 120°09'6402718.5
2016-May-29 10:09N 23°04' E 113°30'66010896.1
2016-May-29 10:05N 31°44' E 121°06'3464.6
2016-May-29 09:33N 31°19' E 121°34'339101756.5
2016-May-29 09:33N 36°55' E 122°29'784156728.3
2016-May-29 09:33N 24°25' E 118°05'265190612.0
2016-May-29 09:33N 23°04' E 113°30'642578148.9
2016-May-29 09:33N 31°05' E 121°28'281767.6
2016-May-29 09:32N 31°33' E 121°20'593493.6
2016-May-29 09:31N 31°57' E 120°16'44511942.0
2016-May-29 09:28N 39°04' E 117°48'49624815.8
2016-May-29 09:27N 31°22' E 121°29'68456.6
2016-May-29 09:18N 31°60' E 120°22'65025451.3
2016-May-29 09:17N 23°01' E 113°32'66140340.5
2016-May-29 09:16N 31°41' E 121°11'247732.2
2016-May-29 09:16N 31°25' E 121°32'2028.7
2016-May-29 08:33N 31°05' E 121°28'41168.7
2016-May-29 08:33N 31°02' E 121°29'3018179.8
2016-May-29 08:33N 31°31' E 121°21'62866.2
2016-May-29 08:33N 31°35' E 121°17'17739.9
2016-May-29 08:31N 31°22' E 121°29'65667425.7
2016-May-29 08:31N 23°04' E 113°30'66033928.5
2016-May-29 08:29N 31°38' E 121°16'47729586.6
2016-May-29 08:28N 39°04' E 117°50'49546925.3
2016-May-29 08:28N 31°22' E 121°29'72578.2
2016-May-29 08:28N 31°16' E 121°33'931.1
2016-May-29 08:09N 31°25' E 121°32'33422657.1
2016-May-29 08:09N 36°55' E 122°29'31919446.9
2016-May-29 08:08N 31°56' E 120°15'6674.6
2016-May-29 08:07N 31°57' E 120°09'703702.0
2016-May-29 08:06N 31°29' E 121°24'2750.2
2016-May-29 07:33N 31°02' E 121°29'4712103.9
2016-May-29 07:33N 31°45' E 121°06'1614604.8
2016-May-29 07:33N 31°34' E 121°20'73741.8
2016-May-29 07:33N 31°39' E 121°13'5785.1
2016-May-29 07:33N 31°35' E 121°18'352866.5
2016-May-29 07:32N 31°02' E 121°29'43631359.5
2016-May-29 07:31N 24°25' E 118°05'465128638.4
2016-May-29 07:31N 31°57' E 120°10'842522.0
2016-May-29 07:29N 31°05' E 121°28'68244667.1
2016-May-29 07:28N 22°11' E 113°33'10008070.6
2016-May-29 07:21N 36°55' E 122°29'3291782.0
2016-May-29 07:09N 31°31' E 121°19'2 3.8
2016-May-29 06:33N 31°33' E 121°19'305604.0
2016-May-29 06:33N 31°05' E 121°28'43871708.2
2016-May-29 06:33N 24°25' E 118°05'460236786.8
2016-May-29 06:33N 31°30' E 121°25'329118517.8
2016-May-29 06:33N 36°55' E 122°29'32947336.5
2016-May-29 06:32N 31°31' E 121°24'1424833.6
2016-May-29 06:32N 31°40' E 121°12'412696.5
2016-May-29 06:31N 31°02' E 121°29'9127364.6
2016-May-29 06:31N 31°57' E 120°04'562931.5
2016-May-29 06:30N 31°43' E 121°08'51262.2
2016-May-29 06:18N 31°57' E 120°10'692782.2
2016-May-29 06:17N 31°30' E 121°24'330449.4
2016-May-29 05:32N 36°55' E 122°29'3573602.6
2016-May-29 05:27N 31°02' E 121°29'43621188.8
2016-May-29 05:25N 24°25' E 118°05'438504.3
2016-May-29 04:33N 31°05' E 121°28'1769163.7
2016-May-29 04:32N 31°25' E 118°04'420504080.2
2016-May-29 04:32N 24°25' E 118°05'46018597.7
2016-May-29 04:30N 31°31' E 121°22'305398.0
2016-May-29 04:30N 31°02' E 121°29'651615.4
2016-May-29 04:28N 31°57' E 120°51'347756.7
2016-May-29 04:27N 31°57' E 120°11'3201406.5
2016-May-29 04:14N 36°55' E 122°29'3351930.4
2016-May-29 04:03N 31°24' E 121°32'661475574.7
2016-May-29 04:03N 23°04' E 113°26'6581278.0
2016-May-29 03:32N 31°21' E 121°30'203571.9
2016-May-29 03:32N 31°02' E 121°29'436223996.3
2016-May-29 03:32N 24°25' E 118°05'784282110.9
2016-May-29 03:32N 36°55' E 122°29'958137915.9
2016-May-29 03:31N 23°02' E 113°24'647466116.8
2016-May-29 03:31N 31°05' E 121°28'187067.4
2016-May-29 03:31N 31°23' E 121°30'7286400.2
2016-May-29 03:31N 31°57' E 120°15'798154.9
2016-May-29 03:31N 31°07' E 121°28'652180676.7
2016-May-29 03:30N 22°55' E 113°27'66533706.8
2016-May-29 03:29N 31°22' E 121°30'4963952.5
2016-May-29 03:22N 39°04' E 117°49'45549597.3
2016-May-29 03:21N 31°55' E 120°52'25795.9
2016-May-29 03:19N 31°38' E 121°14'3021727.5
2016-May-29 03:09N 26°47' E 119°42'2909247.4
2016-May-29 03:07N 31°22' E 121°29'2138.1
2016-May-29 02:33N 31°01' E 121°28'47392.4
2016-May-29 02:33N 31°05' E 121°28'43819719.8
2016-May-29 02:32N 24°25' E 118°05'45728345.0
2016-May-29 02:31N 31°22' E 121°36'66792382.8
2016-May-29 02:31N 23°03' E 113°18'66382309.5
2016-May-29 02:30N 31°22' E 121°29'29315956.4
2016-May-29 02:29N 26°44' E 119°44'29265807.0
2016-May-29 02:29N 31°22' E 121°30'7438224.7
2016-May-29 02:29N 31°57' E 120°13'3196837.5
2016-May-29 02:26N 36°55' E 122°29'3436639.3
2016-May-29 02:23N 31°15' E 121°33'7515083.2
2016-May-29 02:22N 32°00' E 120°21'771515.0
2016-May-29 02:19N 30°57' E 121°12'34763.9
2016-May-29 02:17N 31°30' E 121°24'27896.6
2016-May-29 02:15N 31°03' E 121°29'5157160.2
2016-May-29 02:11N 39°05' E 117°46'4486091.6
2016-May-29 02:06N 32°01' E 120°47'317049.2
2016-May-29 02:06N 31°56' E 120°11'75138.5
2016-May-29 01:33N 31°22' E 121°29'45458388.2
2016-May-29 01:33N 24°25' E 118°05'16750069.0
2016-May-29 01:33N 26°47' E 119°43'277248948.7
2016-May-29 01:33N 31°08' E 121°28'2357.4
2016-May-29 01:32N 31°05' E 121°28'6623833.9
2016-May-29 01:32N 32°00' E 120°44'30779007.8
2016-May-29 01:32N 36°55' E 122°29'31635593.6
2016-May-29 01:31N 31°58' E 120°18'8013074.0
2016-May-29 01:31N 31°05' E 121°28'66633765.4
2016-May-29 01:30N 22°03' E 114°16'684205118.9
2016-May-29 01:30N 31°32' E 121°20'175040.7
2016-May-29 01:29N 31°22' E 121°36'11571.4
2016-May-29 01:28N 31°12' E 121°30'9354.2
2016-May-29 01:27N 31°22' E 121°30'278802.4
2016-May-29 01:26N 30°58' E 121°16'681317.9
2016-May-29 01:23N 32°00' E 120°43'7041266493.4
2016-May-29 01:23N 22°10' E 113°32'70016590.3
2016-May-29 01:21N 31°30' E 121°24'601978.9
2016-May-29 01:19N 32°04' E 120°26'793599.6
2016-May-29 01:18N 31°18' E 121°42'5054546.8
2016-May-29 01:11N 39°05' E 117°45'517826.4
2016-May-29 00:33N 30°59' E 121°20'2412506.4
2016-May-29 00:33N 31°22' E 121°30'496595106.8
2016-May-29 00:33N 39°04' E 117°50'449323002.6
2016-May-29 00:33N 31°60' E 120°49'605857.0
2016-May-29 00:33N 31°09' E 121°28'45266.5
2016-May-29 00:33N 31°05' E 121°28'171622.1
2016-May-29 00:32N 31°22' E 121°29'337606498.7
2016-May-29 00:32N 36°55' E 122°29'33714781.5
2016-May-29 00:31N 31°22' E 121°29'827577.5
2016-May-29 00:30N 31°58' E 120°03'8852844.9
2016-May-29 00:30N 31°08' E 121°28'44117444.4
2016-May-29 00:28N 24°25' E 118°05'4595441.1
2016-May-29 00:23N 31°30' E 121°24'1650.8
2016-May-29 00:04N 31°41' E 121°11'4384.5
2016-May-28 23:33N 31°00' E 121°26'433222666.2
2016-May-28 23:33N 24°25' E 118°05'46667115.6
2016-May-28 23:33N 31°41' E 121°11'391928.7
2016-May-28 23:32N 31°05' E 121°28'71021.1
2016-May-28 23:31N 30°59' E 121°23'6799.6
2016-May-28 23:31N 31°04' E 121°28'15554.6
2016-May-28 23:29N 31°18' E 121°34'6717.0
2016-May-28 23:29N 31°22' E 121°29'512863.6
2016-May-28 23:28N 32°00' E 120°49'522999.2
2016-May-28 23:27N 31°22' E 121°30'6682.0
2016-May-28 23:26N 31°22' E 121°37'3366408.2
2016-May-28 23:23N 36°55' E 122°29'3229751.2
2016-May-28 23:21N 31°39' E 121°13'301069.7
2016-May-28 23:19N 31°14' E 121°30'812898.5
2016-May-28 23:18N 31°57' E 120°10'0 3.6
2016-May-28 23:09N 31°56' E 120°11'681126.0
2016-May-28 23:06N 31°30' E 121°24'26936.5
2016-May-28 23:04N 31°04' E 121°28'2039.2
2016-May-28 22:33N 31°24' E 121°31'81926.6
2016-May-28 22:33N 31°16' E 121°33'3222741.0
2016-May-28 22:33N 31°41' E 121°11'3915639.6
2016-May-28 22:33N 31°05' E 121°28'2507.2
2016-May-28 22:33N 31°03' E 121°29'1326.1
2016-May-28 22:33N 31°04' E 121°28'183580.4
2016-May-28 22:32N 31°22' E 121°30'38417276.0
2016-May-28 22:31N 37°45' E 121°59'824148382.7
2016-May-28 22:31N 24°25' E 118°05'45432697.4
2016-May-28 22:30N 31°22' E 121°29'23395.2
2016-May-28 22:26N 30°59' E 121°23'821605.9
2016-May-28 22:23N 31°57' E 120°15'31842440.9
2016-May-28 22:23N 36°55' E 122°29'3226238.7
2016-May-28 22:20N 31°39' E 121°13'161794.2
2016-May-28 22:08N 31°25' E 118°04'160279.6
2016-May-28 21:33N 31°41' E 121°11'419205.3
2016-May-28 21:33N 31°03' E 121°29'8122503.1
2016-May-28 21:33N 31°59' E 120°19'81291159.3
2016-May-28 21:33N 30°59' E 121°23'72040.6
2016-May-28 21:32N 31°05' E 121°28'371809.4
2016-May-28 21:31N 31°39' E 121°13'231543.0
2016-May-28 21:30N 31°22' E 121°30'31215.6
2016-May-28 21:30N 31°21' E 121°33'37710125.7
2016-May-28 21:28N 37°36' E 122°05'38220511.1
2016-May-28 21:27N 31°16' E 121°33'71229.9
2016-May-28 21:27N 31°22' E 121°29'4547046.9
2016-May-28 21:23N 24°25' E 118°05'46588025.7
2016-May-28 21:22N 31°56' E 120°11'35888.4
2016-May-28 21:20N 31°58' E 120°52'27144.2
2016-May-28 21:09N 31°59' E 120°20'80133.8
2016-May-28 20:33N 31°03' E 121°29'64253.2
2016-May-28 20:33N 30°59' E 121°23'417738.4
2016-May-28 20:32N 31°39' E 121°13'3160.8
2016-May-28 20:32N 31°41' E 121°11'498047.1
2016-May-28 20:31N 31°56' E 120°16'743686.9
2016-May-28 20:30N 31°21' E 121°32'45477815.7
2016-May-28 20:30N 24°25' E 118°05'43898597.5
2016-May-28 20:29N 31°05' E 121°28'352158248.8
2016-May-28 20:29N 36°53' E 122°28'31016154.8
2016-May-28 20:28N 32°01' E 120°23'34212442.2
2016-May-28 20:26N 37°33' E 122°05'38010439.5
2016-May-28 20:24N 31°14' E 121°29'8952.4
2016-May-28 20:24N 31°22' E 121°29'751549.6
2016-May-28 20:21N 31°56' E 120°11'76758.3
2016-May-28 20:15N 31°22' E 121°30'2536.1
2016-May-28 19:33N 31°41' E 121°11'31435305.0
2016-May-28 19:33N 36°48' E 122°30'35397838.2
2016-May-28 19:32N 30°59' E 121°24'85102186.5
2016-May-28 19:32N 31°56' E 120°09'8611464.6
2016-May-28 19:32N 31°03' E 121°29'43721550.2
2016-May-28 19:31N 24°25' E 118°05'88030463.3
2016-May-28 19:29N 38°47' E 121°34'45017437.5
2016-May-28 19:27N 31°17' E 121°34'292357.0
2016-May-28 19:27N 31°39' E 121°13'356160351.3
2016-May-28 19:26N 37°33' E 122°05'3725628.9
2016-May-28 19:23N 31°22' E 121°30'512288.8
2016-May-28 19:21N 31°60' E 120°49'191519.0
2016-May-28 19:20N 32°04' E 120°27'18259.6
2016-May-28 19:16N 31°56' E 120°08'773521.5
2016-May-28 19:15N 31°22' E 121°29'2434.7
2016-May-28 18:33N 30°59' E 121°21'8682.6
2016-May-28 18:33N 31°03' E 121°29'437157322.1
2016-May-28 18:33N 24°25' E 118°05'45663094.6
2016-May-28 18:32N 31°23' E 121°30'242084.7
2016-May-28 18:31N 31°41' E 121°11'272930.1
2016-May-28 18:31N 31°21' E 121°32'6982742.2
2016-May-28 18:16N 22°10' E 113°31'102555054.0
2016-May-28 18:14N 37°33' E 122°05'506854623.0
2016-May-28 18:09N 48°20' W 123°28'5393105518.9
2016-May-28 18:06N 31°30' E 121°24'169374.3
2016-May-28 18:06N 31°16' E 121°33'2952432.8
2016-May-28 18:06N 31°39' E 121°13'22640.4
2016-May-28 18:04N 31°22' E 121°29'539710704.4
2016-May-28 17:33N 48°21' W 123°27'53942773921.8
2016-May-28 17:33N 31°28' E 121°27'326348.6
2016-May-28 17:33N 30°58' E 121°15'3013414.0
2016-May-28 17:33N 31°24' E 121°31'457182749.6
2016-May-28 17:33N 24°25' E 118°05'814172397.1
2016-May-28 17:32N 37°33' E 122°05'37251509.1
2016-May-28 17:32N 31°22' E 121°29'194490.5
2016-May-28 17:32N 31°03' E 121°29'4110493.6
2016-May-28 17:32N 31°41' E 121°11'291782.3
2016-May-28 17:31N 31°20' E 121°33'1249.2
2016-May-28 17:15N 31°30' E 121°24'1492.3
2016-May-28 17:06N 31°39' E 121°13'1730.3
2016-May-28 16:33N 31°28' E 121°27'53979714639.4
2016-May-28 16:33N 48°23' W 123°21'53974857101.7
2016-May-28 16:33N 31°24' E 121°32'257503.7
2016-May-28 16:33N 31°41' E 121°11'414320.9
2016-May-28 16:33N 31°03' E 121°29'391175806.6
2016-May-28 16:32N 37°33' E 122°05'36517986.7
2016-May-28 16:31N 31°30' E 121°22'10624.6
2016-May-28 16:30N 31°22' E 121°29'222743.0
2016-May-28 16:30N 31°39' E 121°13'46459715.1
2016-May-28 16:29N 24°25' E 118°05'4592226.2
2016-May-28 16:17N 31°30' E 121°24'512392.8
2016-May-28 16:16N 32°01' E 120°37'6699374.1
2016-May-28 16:11N 22°43' E 113°40'61969809.3
2016-May-28 15:34N 48°24' W 123°22'54151218263.6
2016-May-28 15:33N 31°03' E 121°29'271476.9
2016-May-28 15:32N 31°30' E 121°22'151184.5
2016-May-28 15:31N 31°41' E 121°11'46624675.1
2016-May-28 15:30N 24°25' E 118°05'47510894.6
2016-May-28 15:28N 32°00' E 120°40'34016993.5
2016-May-28 15:26N 37°33' E 122°05'3652545.3
2016-May-28 15:18N 31°30' E 121°24'4411967.5
2016-May-28 15:04N 38°51' E 121°32'430826.1
2016-May-28 14:33N 31°41' E 121°11'430221053.4
2016-May-28 14:33N 38°51' E 121°33'441122141.4
2016-May-28 14:33N 31°30' E 121°22'275736.2
2016-May-28 14:33N 31°03' E 121°29'43722799.5
2016-May-28 14:31N 24°25' E 118°05'8148209.5
2016-May-28 14:25N 37°33' E 122°05'3382510.4
2016-May-28 14:17N 32°01' E 120°46'3194157.4
2016-May-28 14:13N 26°47' E 119°42'3105530.0
2016-May-28 14:09N 31°56' E 120°11'68113.5
2016-May-28 13:33N 31°30' E 121°24'295244.2
2016-May-28 13:33N 31°00' E 121°27'5755.0
2016-May-28 13:33N 31°05' E 121°28'393352.3
2016-May-28 13:32N 31°41' E 121°11'15517.5
2016-May-28 13:30N 31°30' E 121°22'41230.1
2016-May-28 13:20N 31°60' E 120°49'1 6.0
2016-May-28 13:10N 32°00' E 120°49'2742.7
2016-May-28 12:33N 31°41' E 121°11'4326006.6
2016-May-28 12:33N 30°59' E 121°20'312430.8
2016-May-28 12:32N 31°30' E 121°24'263.7
2016-May-28 12:30N 31°30' E 121°22'12314.1
2016-May-28 12:28N 31°39' E 121°13'37256.0
2016-May-28 12:19N 31°04' E 121°28'145.6
2016-May-28 12:17N 31°05' E 121°28'65346.8
2016-May-28 12:06N 32°00' E 120°47'4277.8
2016-May-28 11:33N 31°30' E 121°22'333183.5
2016-May-28 11:33N 30°58' E 121°15'444380.3
2016-May-28 11:32N 31°41' E 121°11'383550.3
2016-May-28 11:32N 31°06' E 121°28'18741.7
2016-May-28 11:30N 31°23' E 121°32'5262.1
2016-May-28 11:29N 31°18' E 121°33'1410285.2
2016-May-28 11:29N 31°05' E 121°28'251539.5
2016-May-28 11:28N 31°30' E 121°24'665133037.6
2016-May-28 11:28N 23°03' E 113°19'66670477.7
2016-May-28 11:27N 31°39' E 121°13'22165.2
2016-May-28 11:19N 31°22' E 121°29'1315.9
2016-May-28 10:29N 31°09' E 121°27'47053.4
2016-May-28 10:29N 31°05' E 121°28'4388216.5
2016-May-28 10:26N 24°25' E 118°05'4501619107.6
2016-May-28 10:25N 31°16' E 121°33'32499.7
2016-May-28 10:22N 31°41' E 121°11'414.1
2016-May-28 10:04N 31°38' E 121°15'4179.1
2016-May-28 09:33N 30°58' E 121°18'63346518.8
2016-May-28 09:32N 23°00' E 113°31'662108314.7
2016-May-28 09:32N 31°41' E 121°11'0215.6
2016-May-28 09:32N 31°41' E 121°11'3105.0
2016-May-28 09:30N 31°39' E 121°13'6954.9
2016-May-28 09:30N 31°35' E 121°18'31470.2
2016-May-28 09:26N 31°05' E 121°28'438175284.5
2016-May-28 09:26N 24°25' E 118°05'46542956.9
2016-May-28 09:25N 31°40' E 121°13'8165.0
2016-May-28 09:22N 31°45' E 121°06'21689.1
2016-May-28 09:20N 31°30' E 121°22'193421685.3
2016-May-28 09:15N 00°02' E 114°10'192730300.1
2016-May-28 09:11N 31°22' E 121°29'4147932.5
2016-May-28 09:08N 38°07' E 119°42'100352340.4
2016-May-28 09:07N 22°11' E 113°51'69027599.0
2016-May-28 09:05N 31°30' E 121°24'6591251.2
2016-May-28 08:33N 23°05' E 113°28'658182088.3
2016-May-28 08:33N 31°30' E 121°22'101166.5
2016-May-28 08:33N 31°22' E 121°29'910263.2
2016-May-28 08:33N 31°30' E 121°24'1421.7
2016-May-28 08:33N 31°30' E 121°25'460331472.2
2016-May-28 08:33N 24°25' E 118°05'44855586.6
2016-May-28 08:32N 31°15' E 121°30'221955.1
2016-May-28 08:31N 31°35' E 121°19'353641.2
2016-May-28 08:31N 30°59' E 121°23'677562.3
2016-May-28 08:30N 31°60' E 120°48'322891.3
2016-May-28 08:30N 31°38' E 121°16'63324.8
2016-May-28 08:29N 31°41' E 121°11'125.4
2016-May-28 08:28N 31°41' E 121°10'181995.0
2016-May-28 08:27N 31°29' E 121°26'24958.1
2016-May-28 08:25N 31°05' E 121°28'682204709.7
2016-May-28 08:25N 22°11' E 113°33'133014079.4
2016-May-28 08:20N 00°02' E 114°10'230748576.3
2016-May-28 08:17N 38°07' E 119°42'107515.1
2016-May-28 08:04N 39°05' E 117°46'9851913.9
2016-May-28 07:33N 23°05' E 113°26'659474708.1
2016-May-28 07:33N 31°24' E 121°31'89443.3
2016-May-28 07:33N 31°17' E 121°34'451232019.7
2016-May-28 07:33N 24°25' E 118°05'457410956.0
2016-May-28 07:33N 31°24' E 121°31'2412563.2
2016-May-28 07:33N 31°41' E 121°11'472566561.2
2016-May-28 07:33N 39°04' E 117°50'48291240.3
2016-May-28 07:33N 31°34' E 121°20'62631.2
2016-May-28 07:32N 31°38' E 121°15'4911851.1
2016-May-28 07:32N 32°00' E 120°23'616435.2
2016-May-28 07:32N 31°29' E 121°25'2851285.3
2016-May-28 07:32N 31°01' E 121°28'292519.6
2016-May-28 07:31N 31°30' E 121°22'252540.0
2016-May-28 07:30N 31°05' E 121°28'17397.7
2016-May-28 07:28N 31°22' E 121°29'66427165.0
2016-May-28 07:26N 22°54' E 113°28'6624841.2
2016-May-28 07:18N 31°16' E 121°33'0 0.7
2016-May-28 07:18N 31°16' E 121°33'5829802.8
2016-May-28 07:17N 31°60' E 120°48'31492.1
2016-May-28 07:14N 31°38' E 121°15'477712.8
2016-May-28 06:33N 39°04' E 117°48'481433307.7
2016-May-28 06:33N 31°35' E 121°19'46287586.0
2016-May-28 06:33N 24°25' E 118°05'454181604.8
2016-May-28 06:33N 31°20' E 121°33'137560.1
2016-May-28 06:33N 31°31' E 121°24'1578.3
2016-May-28 06:33N 31°30' E 121°24'2137.7
2016-May-28 06:32N 31°30' E 121°22'6356524.6
2016-May-28 06:32N 31°56' E 120°15'5814794.6
2016-May-28 06:32N 31°36' E 121°18'8772.8
2016-May-28 06:31N 31°41' E 121°11'1812720.6
2016-May-28 06:31N 31°28' E 121°25'8125.5
2016-May-28 06:27N 31°21' E 121°31'2154.7
2016-May-28 06:26N 31°20' E 121°33'2121.6
2016-May-28 06:25N 31°18' E 121°34'286.8
2016-May-28 06:23N 31°20' E 121°33'4231.0
2016-May-28 06:22N 31°22' E 121°29'19278021.6
2016-May-28 06:08N 00°02' E 114°10'190650822.1
2016-May-28 06:05N 31°00' E 121°26'3 5.4
2016-May-28 05:33N 30°59' E 121°23'431776368.4
2016-May-28 05:33N 24°25' E 118°05'466838944.5
2016-May-28 05:33N 31°41' E 121°11'397409.3
2016-May-28 05:33N 31°05' E 121°28'272817.2
2016-May-28 05:33N 31°31' E 121°23'2268.0
2016-May-28 05:32N 31°30' E 121°22'113926.6
2016-May-28 05:32N 31°23' E 121°33'8593.0
2016-May-28 05:31N 31°28' E 121°25'3135.6
2016-May-28 05:30N 31°28' E 121°29'620312.5
2016-May-28 05:30N 31°22' E 121°29'113.8
2016-May-28 05:26N 31°23' E 121°30'49511424.9
2016-May-28 05:23N 39°04' E 117°49'51420783.9
2016-May-28 05:22N 31°02' E 121°29'21377.9
2016-May-28 05:18N 31°23' E 121°33'7917742.2
2016-May-28 05:18N 30°07' E 121°57'7 9.3
2016-May-28 04:33N 30°01' E 121°60'8839594.3
2016-May-28 04:33N 31°25' E 121°31'2010536.3
2016-May-28 04:33N 31°05' E 121°28'2515101.5
2016-May-28 04:33N 31°30' E 121°24'163133.3
2016-May-28 04:33N 31°41' E 121°11'472566567.5
2016-May-28 04:33N 39°04' E 117°50'8791054532.2
2016-May-28 04:33N 24°25' E 118°05'459206522.0
2016-May-28 04:32N 31°30' E 121°22'10895.5
2016-May-28 04:32N 31°22' E 121°29'1334.5
2016-May-28 04:32N 31°21' E 121°30'3213.8
2016-May-28 04:31N 31°24' E 121°32'61810.0
2016-May-28 04:31N 31°21' E 121°38'31834.4
2016-May-28 04:28N 30°58' E 121°15'681869.3
2016-May-28 04:26N 29°59' E 121°54'9611539.0
2016-May-28 04:26N 31°31' E 121°22'477.9
2016-May-28 04:23N 31°28' E 121°25'459558.1
2016-May-28 03:33N 24°25' E 118°05'425765374.7
2016-May-28 03:33N 30°58' E 121°10'4478515.3
2016-May-28 03:33N 31°41' E 121°11'11451504.8
2016-May-28 03:33N 29°56' E 122°02'7520870.4
2016-May-28 03:33N 31°05' E 121°28'262502.5
2016-May-28 03:32N 31°30' E 121°23'5783.0
2016-May-28 03:32N 31°34' E 121°18'48037551.3
2016-May-28 03:31N 39°03' E 117°52'496178426.6
2016-May-28 03:31N 31°21' E 121°31'011.5
2016-May-28 03:29N 31°21' E 121°30'1114.0
2016-May-28 03:28N 31°22' E 121°29'8818548.0
2016-May-28 03:27N 30°00' E 122°05'963508.9
2016-May-28 03:26N 31°30' E 121°24'216.8
2016-May-28 03:19N 31°28' E 121°25'6593373.7
2016-May-28 03:07N 23°05' E 113°26'6431151.5
2016-May-28 02:33N 31°05' E 121°28'1517912.7
2016-May-28 02:33N 30°57' E 121°13'4422689.8
2016-May-28 02:33N 31°41' E 121°11'11985985.3
2016-May-28 02:33N 29°52' E 122°08'8763.7
2016-May-28 02:33N 30°00' E 122°05'397102199.2
2016-May-28 02:32N 24°25' E 118°05'874524156.8
2016-May-28 02:32N 38°39' E 121°41'429220678.4
2016-May-28 02:32N 31°30' E 121°23'10487.9
2016-May-28 02:31N 31°22' E 121°30'657214932.1
2016-May-28 02:31N 23°05' E 113°26'66038947.7
2016-May-28 02:30N 31°39' E 121°13'241012.2
2016-May-28 02:28N 31°21' E 121°33'360.2
2016-May-28 02:25N 31°22' E 121°29'954.5
2016-May-28 02:15N 31°30' E 121°24'2536.6
2016-May-28 01:34N 31°05' E 121°28'1244221.2
2016-May-28 01:34N 30°57' E 121°17'427384633.4
2016-May-28 01:33N 24°25' E 118°05'3921410623.5
2016-May-28 01:33N 29°52' E 122°08'969859.1
2016-May-28 01:33N 31°22' E 121°29'255514.4
2016-May-28 01:33N 31°41' E 121°11'111200250.1
2016-May-28 01:33N 30°00' E 122°05'585116992.7
2016-May-28 01:32N 39°05' E 117°46'500199916.8
2016-May-28 01:32N 31°21' E 121°33'3172.1
2016-May-28 01:31N 31°22' E 121°30'121229.6
2016-May-28 01:31N 31°18' E 121°43'66185042.7
2016-May-28 01:30N 23°05' E 113°26'6412308541.9
2016-May-28 01:30N 31°56' E 120°12'663601.8
2016-May-28 01:29N 31°30' E 121°24'148.5
2016-May-28 01:28N 31°30' E 121°23'12865.0
2016-May-28 01:27N 31°23' E 121°34'457509.7
2016-May-28 00:33N 24°25' E 118°05'39274243.3
2016-May-28 00:33N 29°52' E 122°08'94336646.2
2016-May-28 00:33N 31°21' E 121°32'65769529.7
2016-May-28 00:33N 23°06' E 113°27'65631500.3
2016-May-28 00:31N 31°22' E 121°30'8713085.5
2016-May-28 00:31N 30°00' E 122°05'65142605.2
2016-May-28 00:30N 22°13' E 113°41'133221402.1
2016-May-28 00:26N 00°02' E 114°10'194919767.2
2016-May-28 00:20N 31°58' E 120°18'150189.8
2016-May-27 23:33N 30°00' E 122°05'1856190943.5
2016-May-27 23:32N 00°02' E 114°10'1482197548.1
2016-May-27 23:32N 24°25' E 118°05'4571644232.2
2016-May-27 23:32N 31°23' E 121°34'975352.7
2016-May-27 23:31N 29°51' E 122°08'90235.6
2016-May-27 23:08N 31°16' E 121°33'450777.0
2016-May-27 22:33N 24°25' E 118°05'397476894.9
2016-May-27 22:33N 30°00' E 122°05'15382.2
2016-May-27 22:31N 29°45' E 122°03'184187212.7
2016-May-27 22:30N 00°02' E 114°10'192738109.9
2016-May-27 22:26N 31°20' E 121°33'454514.2
2016-May-27 21:34N 24°25' E 118°05'148293575.8
2016-May-27 21:33N 00°02' E 114°10'1856351739.9
2016-May-27 21:32N 30°00' E 122°05'8122306.0
2016-May-27 21:32N 31°16' E 121°33'1771.6
2016-May-27 21:18N 31°30' E 121°23'131174.7
2016-May-27 21:17N 31°21' E 121°33'454615.7
2016-May-27 20:33N 24°25' E 118°05'39714599.5
2016-May-27 20:31N 30°00' E 122°05'62234454.6
2016-May-27 20:30N 23°05' E 113°27'6575712.5
2016-May-27 20:23N 31°20' E 121°33'454545.9
2016-May-27 19:34N 24°25' E 118°05'39771526.1
2016-May-27 19:33N 30°00' E 122°05'19639.0
2016-May-27 19:31N 29°42' E 122°05'11210900.0
2016-May-27 19:31N 31°28' E 121°25'10413.8
2016-May-27 19:29N 31°21' E 121°33'136.1
2016-May-27 19:28N 31°20' E 121°33'41440.3
2016-May-27 19:28N 31°23' E 121°33'6568719.1
2016-May-27 19:23N 23°05' E 113°33'66028634.5
2016-May-27 19:22N 31°59' E 120°50'50328.3
2016-May-27 19:13N 31°22' E 121°29'4495748.1
2016-May-27 19:08N 38°51' E 121°34'8831520.3
2016-May-27 18:33N 24°25' E 118°05'883317812.3
2016-May-27 18:33N 38°50' E 121°33'530106099.4
2016-May-27 18:33N 30°00' E 122°05'193715.6
2016-May-27 18:32N 29°42' E 122°05'1055995.8
2016-May-27 18:31N 31°23' E 121°34'3117.4
2016-May-27 18:30N 31°21' E 121°33'44857594.2
2016-May-27 18:30N 38°49' E 121°36'44936736.0
2016-May-27 18:29N 31°20' E 121°33'65660594.9
2016-May-27 18:28N 23°06' E 113°27'65828548.6
2016-May-27 18:27N 31°28' E 121°25'5157.6
2016-May-27 17:33N 31°60' E 120°38'15733262.9
2016-May-27 17:33N 29°42' E 122°05'1916714.6
2016-May-27 17:33N 30°00' E 122°05'8724142.7
2016-May-27 17:33N 31°23' E 121°34'66395413.4
2016-May-27 17:32N 22°55' E 113°36'65910883.4
2016-May-27 17:29N 31°22' E 121°29'10612.8
2016-May-27 17:28N 31°30' E 121°23'65610684.5
2016-May-27 17:24N 23°05' E 113°33'520.1
2016-May-27 17:10N 23°06' E 113°27'6101013.6
2016-May-27 16:33N 29°42' E 122°05'610168883.2
2016-May-27 16:33N 23°06' E 113°27'266191712.1
2016-May-27 16:33N 24°25' E 118°05'397102182.8
2016-May-27 16:33N 30°00' E 122°05'4484629.5
2016-May-27 16:27N 37°26' E 122°52'98715386.3
2016-May-27 16:23N 23°05' E 113°33'65311875.2
2016-May-27 16:20N 31°22' E 121°29'45182.4
2016-May-27 16:05N 31°55' E 120°52'213442.3
2016-May-27 16:05N 31°41' E 121°11'466896.3
2016-May-27 15:33N 24°25' E 118°05'39518479.7
2016-May-27 15:32N 30°02' E 121°57'52954390.8
2016-May-27 15:32N 38°51' E 121°33'550179882.8
2016-May-27 15:31N 29°42' E 122°05'1503535.9
2016-May-27 15:29N 31°58' E 120°51'461244.9
2016-May-27 15:27N 32°02' E 119°57'87221.0
2016-May-27 15:03N 31°22' E 121°29'6881228.5
2016-May-27 15:03N 32°01' E 120°24'472961.1
2016-May-27 14:33N 24°25' E 118°05'45765780.4
2016-May-27 14:33N 31°23' E 121°35'66038926.5
2016-May-27 14:32N 23°06' E 113°27'61111880.3
2016-May-27 14:29N 29°42' E 122°06'1643653.7
2016-May-27 14:26N 31°59' E 120°21'69721.1
2016-May-27 14:21N 31°22' E 121°29'1095.7
2016-May-27 14:14N 31°30' E 121°23'65293893.9
2016-May-27 14:14N 23°06' E 113°37'102977157.3
2016-May-27 14:13N 38°51' E 121°34'4123806.2
2016-May-27 14:07N 32°00' E 120°44'3460.3
2016-May-27 13:33N 31°58' E 120°04'638765974.4
2016-May-27 13:33N 23°06' E 113°27'26787309.6
2016-May-27 13:33N 24°25' E 118°05'45414093.5
2016-May-27 13:31N 31°22' E 121°29'7110194.0
2016-May-27 13:30N 31°57' E 120°16'16398098.3
2016-May-27 13:30N 29°42' E 122°05'1563976.0
2016-May-27 13:28N 31°60' E 120°40'66657084.3
2016-May-27 13:27N 22°53' E 113°31'66326831.9
2016-May-27 13:26N 31°22' E 121°29'320.0
2016-May-27 13:16N 31°21' E 121°33'854774.4
2016-May-27 13:14N 31°58' E 120°03'465677.9
2016-May-27 12:33N 24°25' E 118°05'47747671.4
2016-May-27 12:33N 32°01' E 120°44'541765.1
2016-May-27 12:31N 31°22' E 121°29'763351.7
2016-May-27 12:30N 31°57' E 120°09'31134950.7
2016-May-27 12:29N 26°47' E 119°43'3114022.1
2016-May-27 12:24N 31°57' E 120°10'76902.8
2016-May-27 12:19N 31°22' E 121°29'7538623.9
2016-May-27 12:19N 31°56' E 120°10'773227.2
2016-May-27 12:18N 31°21' E 121°31'6577904.7
2016-May-27 12:13N 23°05' E 113°27'267403.2
2016-May-27 11:33N 24°25' E 118°05'454102178.1
2016-May-27 11:33N 31°22' E 121°29'7243353.6
2016-May-27 11:33N 31°57' E 120°14'735942.4
2016-May-27 11:32N 31°23' E 121°30'3981.8
2016-May-27 11:32N 31°21' E 121°33'741197.3
2016-May-27 11:28N 31°57' E 120°17'45966.2
2016-May-27 11:25N 31°43' E 121°07'66013340.2
2016-May-27 11:22N 23°06' E 113°26'65713280.6
2016-May-27 11:19N 31°21' E 121°31'81470.7
2016-May-27 11:09N 31°57' E 120°05'166280.8
2016-May-27 10:33N 29°46' E 122°04'38537463.2
2016-May-27 10:33N 24°25' E 118°05'26731026.3
2016-May-27 10:32N 23°05' E 113°26'653470500.8
2016-May-27 10:32N 32°02' E 120°27'34527033.7
2016-May-27 10:31N 37°47' E 120°15'3815937.6
2016-May-27 10:28N 31°30' E 121°23'17244.7
2016-May-27 10:24N 31°16' E 121°34'6192.6
2016-May-27 10:22N 31°20' E 121°40'786097.8
2016-May-27 10:21N 31°60' E 120°21'69249365.1
2016-May-27 10:21N 31°22' E 121°29'398498.7
2016-May-27 09:33N 37°55' E 120°17'49226434.5
2016-May-27 09:32N 29°52' E 122°07'392201373.1
2016-May-27 09:32N 24°25' E 118°05'45746964.9
2016-May-27 09:31N 31°21' E 121°37'15950.9
2016-May-27 09:30N 31°30' E 121°23'10999.6
2016-May-27 09:30N 31°22' E 121°29'681354.8
2016-May-27 09:27N 32°02' E 120°24'6527158.9
2016-May-27 09:21N 23°05' E 113°26'6506606.9
2016-May-27 09:15N 32°00' E 120°23'771739.1
2016-May-27 09:13N 31°21' E 121°40'65823943.2
2016-May-27 09:11N 23°05' E 113°33'6361018.3
2016-May-27 08:34N 31°17' E 121°05'44161106.1
2016-May-27 08:33N 24°25' E 118°05'26745777.7
2016-May-27 08:33N 23°05' E 113°26'65921765.7
2016-May-27 08:31N 31°30' E 121°23'3176.5
2016-May-27 08:30N 31°28' E 121°25'141055.0
2016-May-27 08:29N 31°16' E 121°33'40616435.7
2016-May-27 08:28N 37°57' E 120°18'39912702.5
2016-May-27 08:26N 31°23' E 121°30'7244.0
2016-May-27 08:24N 31°22' E 121°39'849.0
2016-May-27 08:14N 31°22' E 121°29'171062.8
2016-May-27 08:13N 31°05' E 121°28'69431.7
2016-May-27 08:03N 32°00' E 120°39'359719.9
2016-May-27 07:33N 37°58' E 120°19'40463183.0
2016-May-27 07:33N 31°17' E 121°08'2024041.3
2016-May-27 07:33N 31°06' E 121°28'81291908.7
2016-May-27 07:33N 29°52' E 122°07'392234950.1
2016-May-27 07:33N 24°25' E 118°05'46025459.4
2016-May-27 07:32N 31°30' E 121°23'26199.7
2016-May-27 07:24N 31°05' E 121°28'67288.5
2016-May-27 07:10N 32°01' E 120°44'29465.5
2016-May-27 07:06N 31°56' E 120°11'464853.8
2016-May-27 06:34N 24°25' E 118°05'459413381.7
2016-May-27 06:33N 31°29' E 121°25'10172838.3
2016-May-27 06:33N 29°55' E 122°07'78524.0
2016-May-27 06:24N 31°05' E 121°28'231171.5
2016-May-27 06:23N 31°28' E 121°25'39516144.0
2016-May-27 06:22N 37°59' E 120°19'36020894.0
2016-May-27 06:21N 32°00' E 120°49'30911.9
2016-May-27 06:19N 31°39' E 121°15'465614.5
2016-May-27 05:33N 24°25' E 118°05'438394399.9
2016-May-27 05:33N 31°05' E 121°28'333449.5
2016-May-27 05:33N 31°36' E 121°17'38622079.3
2016-May-27 05:32N 37°60' E 120°19'36313899.7
2016-May-27 05:30N 31°58' E 120°51'411134.9
2016-May-27 05:28N 31°28' E 121°25'9710604.1
2016-May-27 05:27N 29°56' E 121°60'1341874.1
2016-May-27 05:23N 31°56' E 120°52'462035.1
2016-May-27 05:22N 31°22' E 121°29'11061.4
2016-May-27 05:22N 31°22' E 121°30'151.8
2016-May-27 05:20N 31°23' E 121°31'6585498.9
2016-May-27 05:13N 23°05' E 113°26'614925.6
2016-May-27 04:33N 29°57' E 121°55'10110656.4
2016-May-27 04:33N 31°33' E 121°20'46187428.9
2016-May-27 04:33N 24°25' E 118°05'438225368.6
2016-May-27 04:32N 31°05' E 121°28'153899.3
2016-May-27 04:32N 31°19' E 121°34'4483.5
2016-May-27 04:32N 31°22' E 121°37'4403.8
2016-May-27 04:31N 31°21' E 121°33'657107578.7
2016-May-27 04:31N 23°05' E 113°26'96211318.8
2016-May-27 04:26N 37°60' E 120°19'40228358.0
2016-May-27 04:25N 31°22' E 121°29'17252.5
2016-May-27 04:21N 31°06' E 121°28'2742351.4
2016-May-27 04:14N 26°47' E 119°42'167247.8
2016-May-27 03:34N 24°25' E 118°05'43835853.6
2016-May-27 03:33N 31°05' E 121°28'2611865.4
2016-May-27 03:33N 31°31' E 121°24'942952.1
2016-May-27 03:31N 29°59' E 121°47'78280106.8
2016-May-27 03:31N 31°16' E 121°33'654107025.3
2016-May-27 03:30N 23°05' E 113°26'65747331.1
2016-May-27 03:30N 31°21' E 121°33'29026091.2
2016-May-27 03:29N 26°47' E 119°42'67138949.8
2016-May-27 03:28N 37°57' E 120°19'39925675.7
2016-May-27 03:27N 31°22' E 121°29'336.3
2016-May-27 03:22N 31°21' E 121°26'848.4
2016-May-27 03:11N 31°17' E 121°34'78123.1
2016-May-27 02:33N 29°59' E 121°47'147264083.5
2016-May-27 02:33N 31°58' E 120°06'46555779.9
2016-May-27 02:33N 24°25' E 118°05'43843821.7
2016-May-27 02:32N 31°05' E 121°28'27530986.1
2016-May-27 02:32N 26°45' E 119°43'28415755.0
2016-May-27 02:31N 31°14' E 121°30'151858.5
2016-May-27 02:30N 31°29' E 121°27'14278.5
2016-May-27 02:27N 31°16' E 121°33'40845887.1
2016-May-27 02:27N 37°59' E 120°19'40243804.2
2016-May-27 02:26N 31°22' E 121°30'126.2
2016-May-27 02:24N 31°22' E 121°29'6566217.7
2016-May-27 02:18N 23°05' E 113°26'55811.6
2016-May-27 02:14N 22°10' E 113°31'69826455.1
2016-May-27 02:12N 31°21' E 121°33'454704.0
2016-May-27 01:33N 24°25' E 118°05'42071993.9
2016-May-27 01:33N 31°25' E 118°04'17518027.9
2016-May-27 01:32N 31°05' E 121°28'5412205104.3
2016-May-27 01:31N 48°25' W 123°24'53982775930.6
2016-May-27 01:31N 31°22' E 121°29'7313.6
2016-May-27 01:29N 31°16' E 121°33'11234.7
2016-May-27 01:26N 31°27' E 121°29'440.9
2016-May-27 01:21N 31°28' E 121°25'143206.1
2016-May-27 01:21N 31°15' E 121°33'65411100.4
2016-May-27 01:17N 23°05' E 113°26'962164843.6
2016-May-27 01:17N 37°60' E 120°17'4046242.7
2016-May-27 01:13N 31°21' E 121°33'454687.7
2016-May-27 00:33N 24°25' E 118°05'438157758.0
2016-May-27 00:33N 31°05' E 121°28'5417780078.9
2016-May-27 00:33N 48°24' W 123°18'54009719829.8
2016-May-27 00:33N 31°29' E 121°25'271969.1
2016-May-27 00:32N 31°02' E 121°29'235182.8
2016-May-27 00:32N 31°25' E 121°32'5352.6
2016-May-27 00:31N 31°19' E 121°34'602640.1
2016-May-27 00:29N 32°01' E 120°42'1916710.5
2016-May-27 00:29N 31°59' E 120°21'3156957.9
2016-May-27 00:27N 26°45' E 119°43'2903804.2
2016-May-27 00:22N 31°19' E 121°33'598.5
2016-May-27 00:19N 31°22' E 121°29'65618175.1
2016-May-27 00:17N 23°05' E 113°26'267369.8
2016-May-26 23:33N 24°25' E 118°05'5905787355.5
2016-May-26 23:33N 48°29' W 123°16'54012430317.1
2016-May-26 23:33N 31°22' E 121°30'17824.1
2016-May-26 23:32N 31°05' E 121°28'1513647.4
2016-May-26 23:32N 31°19' E 121°34'15167.9
2016-May-26 23:26N 31°06' E 121°28'25585.5
2016-May-26 23:24N 31°30' E 121°24'2530.2
2016-May-26 22:33N 31°05' E 121°28'256080.5
2016-May-26 22:33N 31°30' E 121°24'294606.2
2016-May-26 22:33N 31°01' E 121°28'43510428.8
2016-May-26 22:30N 24°25' E 118°05'0 0.0
2016-May-26 21:33N 24°25' E 118°05'43858428.2
2016-May-26 21:32N 31°05' E 121°28'15910.2
2016-May-26 21:31N 31°19' E 121°34'14485.9
2016-May-26 21:29N 31°30' E 121°24'301724.4
2016-May-26 21:28N 31°00' E 121°26'4228525.9
2016-May-26 21:25N 37°58' E 120°17'417481.5
2016-May-26 20:33N 31°05' E 121°28'41817682.5
2016-May-26 20:32N 37°58' E 120°17'42212759.9
2016-May-26 20:30N 31°00' E 121°26'43325572.7
2016-May-26 20:29N 24°25' E 118°05'285513056.5
2016-May-26 20:29N 22°10' E 113°32'7018379.1
2016-May-26 20:24N 31°30' E 121°24'6592608.1
2016-May-26 20:09N 23°05' E 113°26'64529370.3
2016-May-26 20:07N 31°57' E 120°17'54149329.4
2016-May-26 19:33N 48°55' W 123°18'5404360260.0
2016-May-26 19:32N 31°05' E 121°28'438262926.8
2016-May-26 19:32N 24°25' E 118°05'46057062.3
2016-May-26 19:31N 31°30' E 121°24'15121.0
2016-May-26 19:24N 31°41' E 121°11'3686534.8
2016-May-26 19:20N 37°43' E 122°35'4065850.2
2016-May-26 19:16N 31°00' E 121°26'63811043.4
2016-May-26 19:13N 23°05' E 113°27'9951516.9
2016-May-26 18:33N 37°39' E 122°41'50211390531.5
2016-May-26 18:33N 49°02' W 123°19'5405555924.6
2016-May-26 18:33N 31°00' E 121°26'43377997.8
2016-May-26 18:32N 24°25' E 118°05'463166631.6
2016-May-26 18:32N 31°36' E 121°18'3210490.5
2016-May-26 18:32N 31°05' E 121°28'64424399.3
2016-May-26 18:30N 23°01' E 113°31'6607135.6
2016-May-26 18:25N 31°30' E 121°24'2529.6
2016-May-26 17:33N 31°05' E 121°28'438131463.4
2016-May-26 17:33N 24°25' E 118°05'460331417.3
2016-May-26 17:33N 31°30' E 121°25'37036970.6
2016-May-26 17:32N 37°34' E 122°49'501694547.8
2016-May-26 17:29N 49°10' W 123°18'538294972.2
2016-May-26 17:26N 31°22' E 121°29'22633.4
2016-May-26 17:24N 31°00' E 121°26'42331089.3
2016-May-26 17:23N 37°60' E 120°17'40239119.0
2016-May-26 17:22N 31°22' E 121°29'4497588.4
2016-May-26 17:19N 38°51' E 121°33'4492982.1
2016-May-26 17:10N 31°22' E 121°30'3365823.1
2016-May-26 17:06N 26°02' E 119°30'339621.3
2016-May-26 16:34N 31°25' E 121°31'391128065.9
2016-May-26 16:33N 37°49' E 119°58'7071272008.6
2016-May-26 16:33N 26°02' E 119°30'21363838.9
2016-May-26 16:33N 22°33' E 120°12'162145434.7
2016-May-26 16:33N 24°25' E 118°05'58881766392.3
2016-May-26 16:33N 49°17' W 123°17'5400186928.1
2016-May-26 16:31N 31°00' E 121°26'223740.2
2016-May-26 16:31N 31°22' E 121°29'9195.8
2016-May-26 16:28N 31°30' E 121°24'12948.7
2016-May-26 16:27N 31°21' E 121°33'1267.9
2016-May-26 16:27N 31°19' E 121°34'4053524.6
2016-May-26 16:20N 37°60' E 120°17'4026639.4
2016-May-26 16:16N 31°22' E 121°29'1 4.0
2016-May-26 16:04N 31°22' E 121°30'455898.2
2016-May-26 15:34N 24°25' E 118°05'4541633764.9
2016-May-26 15:34N 31°20' E 121°33'53842769063.4
2016-May-26 15:33N 49°19' W 123°08'5385587416.8
2016-May-26 15:33N 31°19' E 121°34'390702819.5
2016-May-26 15:33N 37°43' E 120°07'40810568.1
2016-May-26 15:30N 31°00' E 121°26'21733.5
2016-May-26 15:29N 31°21' E 121°33'4048761.0
2016-May-26 15:26N 37°60' E 120°17'4029164.0
2016-May-26 15:23N 31°22' E 121°30'3369687.2
2016-May-26 15:21N 26°02' E 119°30'3423635.9
2016-May-26 15:16N 31°30' E 121°24'9865.8
2016-May-26 15:15N 31°22' E 121°29'609441.2
2016-May-26 15:15N 32°02' E 120°35'3448364.2
2016-May-26 15:12N 37°20' E 123°13'3675552.6
2016-May-26 15:08N 31°22' E 121°37'65810172.4
2016-May-26 15:04N 23°04' E 113°32'9411821.2
2016-May-26 14:33N 37°39' E 120°15'38987480.5
2016-May-26 14:33N 31°15' E 121°29'44750339.9
2016-May-26 14:33N 24°25' E 118°05'456410715.6
2016-May-26 14:32N 31°24' E 121°31'91119.1
2016-May-26 14:32N 31°30' E 121°24'9332.3
2016-May-26 14:30N 31°22' E 121°29'5239.7
2016-May-26 14:29N 31°19' E 121°34'6881238117.5
2016-May-26 14:29N 22°15' E 113°43'1004602610.8
2016-May-26 14:29N 37°60' E 120°17'36015800.1
2016-May-26 14:28N 32°00' E 120°38'72801.5
2016-May-26 14:22N 31°00' E 121°26'222533.7
2016-May-26 14:22N 31°22' E 121°29'346.3
2016-May-26 14:17N 31°21' E 121°33'454618.5
2016-May-26 13:33N 24°25' E 118°05'453543952.9
2016-May-26 13:33N 31°19' E 121°34'2014452.0
2016-May-26 13:33N 31°00' E 121°26'21957.7
2016-May-26 13:32N 31°21' E 121°33'45042610.0
2016-May-26 13:31N 38°50' E 121°33'78922.7
2016-May-26 13:26N 37°60' E 120°17'36064723.8
2016-May-26 13:26N 32°01' E 120°43'664623.8
2016-May-26 13:25N 31°08' E 121°28'231668.7
2016-May-26 13:24N 31°30' E 121°24'122325.6
2016-May-26 13:24N 31°21' E 121°32'65427390.3
2016-May-26 13:22N 23°04' E 113°32'65490534.4
2016-May-26 13:22N 31°22' E 121°29'38111415.5
2016-May-26 13:20N 37°38' E 120°18'3811369860.2
2016-May-26 13:20N 31°22' E 121°29'142.4
2016-May-26 13:19N 31°22' E 121°30'454601.8
2016-May-26 12:33N 24°25' E 118°05'454163470.0
2016-May-26 12:33N 31°21' E 121°33'152650.1
2016-May-26 12:33N 31°06' E 121°28'151066.6
2016-May-26 12:32N 31°19' E 121°34'405145937.4
2016-May-26 12:32N 37°60' E 120°17'39425762.0
2016-May-26 12:31N 31°30' E 121°24'9747.3
2016-May-26 12:30N 31°22' E 121°29'0 1.3
2016-May-26 12:30N 31°22' E 121°29'65421400.3
2016-May-26 12:28N 23°04' E 113°32'65429446.1
2016-May-26 12:27N 31°22' E 121°30'23549.9
2016-May-26 12:24N 30°60' E 121°25'5376.7
2016-May-26 12:24N 31°04' E 121°28'663859.8
2016-May-26 12:23N 32°01' E 120°48'3383383.3
2016-May-26 12:17N 37°38' E 120°18'932746.7
2016-May-26 12:15N 38°50' E 121°33'467683.1
2016-May-26 11:34N 31°03' E 121°28'94093.3
2016-May-26 11:33N 30°59' E 121°19'430220905.6
2016-May-26 11:33N 24°25' E 118°05'803206601.5
2016-May-26 11:33N 37°41' E 120°12'191072.1
2016-May-26 11:32N 37°60' E 120°17'4046351.9
2016-May-26 11:28N 31°21' E 121°33'3622.2
2016-May-26 11:28N 31°22' E 121°29'1252.9
2016-May-26 11:28N 31°22' E 121°30'4149.9
2016-May-26 11:26N 31°19' E 121°34'14445.3
2016-May-26 11:24N 31°30' E 121°24'95483.3
2016-May-26 11:24N 31°22' E 121°29'791209.1
2016-May-26 11:20N 31°58' E 120°06'6384878.4
2016-May-26 11:12N 23°03' E 113°32'6268468.2
2016-May-26 11:08N 30°57' E 121°11'4127032.0
2016-May-26 11:04N 37°50' E 121°18'8211595.3
2016-May-26 10:33N 24°25' E 118°05'43849298.8
2016-May-26 10:33N 31°05' E 121°28'62899.5
2016-May-26 10:33N 30°60' E 121°25'111669.3
2016-May-26 10:32N 30°57' E 121°13'281772.7
2016-May-26 10:31N 31°19' E 121°34'657107437.3
2016-May-26 10:31N 23°03' E 113°30'95140777.5
2016-May-26 10:30N 37°50' E 120°11'112235.9
2016-May-26 10:29N 37°60' E 120°18'40055334.5
2016-May-26 10:29N 31°25' E 121°33'322114.9
2016-May-26 10:28N 30°58' E 121°14'33326.9
2016-May-26 10:22N 31°30' E 121°24'9456.9
2016-May-26 10:21N 31°22' E 121°29'0 0.0
2016-May-26 10:06N 31°22' E 121°29'5 8.9
2016-May-26 09:33N 31°19' E 121°34'2428304.7
2016-May-26 09:33N 30°59' E 121°20'0190.2
2016-May-26 09:33N 30°59' E 121°20'423126875.2
2016-May-26 09:33N 37°58' E 120°08'8192949816.7
2016-May-26 09:33N 24°25' E 118°05'269138472.3
2016-May-26 09:33N 23°03' E 113°25'6461162837.5
2016-May-26 09:33N 31°05' E 121°28'2036744.0
2016-May-26 09:33N 31°25' E 121°33'39979807.4
2016-May-26 09:33N 37°59' E 120°18'3936701.3
2016-May-26 09:29N 31°30' E 121°24'9161.3
2016-May-26 09:26N 31°22' E 121°29'0 0.0
2016-May-26 09:18N 31°22' E 121°29'52372.6
2016-May-26 09:09N 32°01' E 120°48'64859.1
2016-May-26 09:05N 31°07' E 121°28'1323.9
2016-May-26 08:34N 30°58' E 121°18'71854.3
2016-May-26 08:33N 31°00' E 121°26'4201512843.8
2016-May-26 08:33N 37°57' E 120°17'81934291.4
2016-May-26 08:32N 24°25' E 118°05'27416997.3
2016-May-26 08:31N 23°03' E 113°20'649194738.9
2016-May-26 08:31N 31°05' E 121°28'152183.6
2016-May-26 08:30N 31°19' E 121°34'2615856.6
2016-May-26 08:30N 30°58' E 121°16'331007.1
2016-May-26 08:28N 31°30' E 121°24'21860.0
2016-May-26 08:27N 31°45' E 121°06'303568.6
2016-May-26 08:26N 31°22' E 121°29'520.9
2016-May-26 08:13N 31°25' E 121°33'4004755.3
2016-May-26 08:08N 37°59' E 120°08'420731.8
2016-May-26 07:33N 31°04' E 121°28'437524771.2
2016-May-26 07:33N 24°25' E 118°05'4381577580.1
2016-May-26 07:33N 31°05' E 121°28'253385.4
2016-May-26 07:33N 31°30' E 121°24'39039029.6
2016-May-26 07:32N 37°57' E 120°18'399130539.0
2016-May-26 07:32N 31°22' E 121°29'241155.3
2016-May-26 07:31N 31°41' E 121°12'24665.0
2016-May-26 07:29N 31°25' E 121°33'4164.0
2016-May-26 07:27N 31°21' E 121°33'6659927.2
2016-May-26 07:23N 22°54' E 113°30'6513700.8
2016-May-26 07:13N 31°56' E 120°14'29190.3
2016-May-26 07:03N 31°60' E 120°48'64128.7
2016-May-26 06:33N 31°05' E 121°28'438525860.0
2016-May-26 06:33N 24°25' E 118°05'45362763.8
2016-May-26 06:33N 31°19' E 121°34'610000.1
2016-May-26 06:33N 31°25' E 121°33'4256.9
2016-May-26 06:32N 31°21' E 121°32'31071.0
2016-May-26 06:32N 31°22' E 121°29'202127.9
2016-May-26 06:31N 31°38' E 121°15'4017833.6
2016-May-26 06:31N 30°59' E 121°20'42215486.8
2016-May-26 06:29N 37°57' E 120°18'3915434.9
2016-May-26 06:25N 31°30' E 121°24'627.7
2016-May-26 06:11N 31°35' E 121°19'3149.5
2016-May-26 05:33N 31°05' E 121°28'328190.2
2016-May-26 05:33N 31°36' E 121°18'217572.5
2016-May-26 05:33N 31°19' E 121°34'45347995.3
2016-May-26 05:32N 24°25' E 118°05'46175424.9
2016-May-26 05:32N 31°32' E 121°22'192040.3
2016-May-26 05:31N 31°14' E 121°30'10601.7
2016-May-26 05:30N 31°23' E 121°34'7589562.0
2016-May-26 05:30N 31°57' E 120°16'796203.6
2016-May-26 05:30N 30°59' E 121°20'4227915.2
2016-May-26 05:26N 37°58' E 120°18'3984436.9
2016-May-26 05:21N 31°25' E 121°33'10568.5
2016-May-26 05:20N 31°30' E 121°24'2532.7
2016-May-26 04:33N 31°05' E 121°28'4381577560.3
2016-May-26 04:33N 24°25' E 118°05'46179026.0
2016-May-26 04:33N 31°32' E 121°22'3425.1
2016-May-26 04:33N 31°30' E 121°25'124.1
2016-May-26 04:29N 31°30' E 121°24'9456.2
2016-May-26 04:28N 31°22' E 121°29'7251.5
2016-May-26 04:26N 31°15' E 121°30'136883.8
2016-May-26 04:26N 31°28' E 121°28'10502.8
2016-May-26 04:25N 31°19' E 121°34'2179.2
2016-May-26 04:09N 31°17' E 121°09'221530.0
2016-May-26 04:08N 31°25' E 121°33'5 7.8
2016-May-26 03:33N 31°27' E 121°29'459150141.0
2016-May-26 03:33N 24°25' E 118°05'43892797.7
2016-May-26 03:33N 31°05' E 121°28'42124039.9
2016-May-26 03:32N 38°01' E 120°09'40134390.3
2016-May-26 03:31N 31°25' E 121°31'81597.2
2016-May-26 03:31N 31°30' E 121°24'96564.9
2016-May-26 03:31N 31°22' E 121°29'213992.1
2016-May-26 03:31N 31°17' E 121°05'282169140.2
2016-May-26 03:30N 26°44' E 119°44'291174843.0
2016-May-26 03:30N 31°19' E 121°34'66648.6
2016-May-26 03:30N 31°25' E 121°33'58114.9
2016-May-26 03:30N 31°20' E 121°33'4034215.9
2016-May-26 03:25N 37°58' E 120°18'821965.6
2016-May-26 02:34N 24°25' E 118°05'455116935.1
2016-May-26 02:33N 31°22' E 121°30'1231.6
2016-May-26 02:33N 31°22' E 121°29'39932629.4
2016-May-26 02:32N 37°57' E 120°18'416149623.9
2016-May-26 02:32N 31°05' E 121°28'20874.9
2016-May-26 02:31N 31°25' E 121°33'231691.8
2016-May-26 02:30N 31°03' E 121°29'21686.2
2016-May-26 02:28N 31°24' E 121°31'129.1
2016-May-26 02:26N 31°24' E 121°32'40184893.1
2016-May-26 02:26N 37°59' E 120°08'40415998.8
2016-May-26 02:24N 31°21' E 121°33'226.9
2016-May-26 02:21N 31°19' E 121°34'14843.6
2016-May-26 02:20N 31°30' E 121°24'460590.5
2016-May-26 01:33N 24°25' E 118°05'27516753.4
2016-May-26 01:32N 22°15' E 113°42'68955117.3
2016-May-26 01:32N 31°21' E 121°33'40315416.6
2016-May-26 01:30N 37°58' E 120°18'4018057.5
2016-May-26 01:27N 31°22' E 121°29'4325.5
2016-May-26 01:26N 31°26' E 121°29'82463.5
2016-May-26 01:26N 31°19' E 121°34'61049.8
2016-May-26 01:26N 31°25' E 121°33'6176.9
2016-May-26 01:24N 31°19' E 121°34'5134.4
2016-May-26 01:21N 31°24' E 121°31'9362.8
2016-May-26 01:20N 31°30' E 121°24'1114.8
2016-May-26 00:33N 31°23' E 121°34'44482.0
2016-May-26 00:33N 31°19' E 121°34'62006.8
2016-May-26 00:33N 31°15' E 121°30'448230309.3
2016-May-26 00:33N 24°25' E 118°05'45913338.6
2016-May-26 00:31N 31°30' E 121°23'10682.8
2016-May-26 00:30N 31°22' E 121°29'91564.0
2016-May-26 00:30N 31°30' E 121°24'121319.9
2016-May-26 00:29N 31°21' E 121°33'4167.1
2016-May-26 00:28N 31°24' E 121°31'4056814.3
2016-May-26 00:24N 38°04' E 120°17'4043293.9
2016-May-26 00:17N 31°25' E 121°33'4021903.4
2016-May-26 00:04N 38°01' E 120°08'406785.7
2016-May-25 23:33N 31°20' E 121°33'2518169.7
2016-May-25 23:33N 30°58' E 121°19'42985772.0
2016-May-25 23:33N 24°25' E 118°05'42761468.2
2016-May-25 23:33N 30°58' E 121°14'1761108.0
2016-May-25 23:33N 31°10' E 121°28'41820317.0
2016-May-25 23:31N 38°04' E 120°17'2309415530.6
2016-May-25 23:31N 00°02' E 114°10'1927198182.6
2016-May-25 23:30N 31°21' E 121°33'488.1
2016-May-25 23:28N 31°24' E 121°31'69918787.8
2016-May-25 23:26N 22°11' E 113°32'69720394.4
2016-May-25 23:24N 31°22' E 121°29'9670.7
2016-May-25 23:23N 31°30' E 121°24'66710388.9
2016-May-25 23:19N 22°54' E 113°30'9695478.1
2016-May-25 23:08N 37°60' E 120°08'42011635.1
2016-May-25 23:06N 31°05' E 121°28'1 1.1
2016-May-25 22:33N 31°04' E 121°28'4381575936.2
2016-May-25 22:33N 24°25' E 118°05'45328629.1
2016-May-25 22:32N 31°19' E 121°34'253403.3
2016-May-25 22:32N 30°58' E 121°19'0334.4
2016-May-25 22:32N 30°58' E 121°18'111100.0
2016-May-25 22:31N 31°05' E 121°28'124214.6
2016-May-25 22:31N 31°16' E 121°33'211356.5
2016-May-25 22:30N 31°11' E 121°09'251176.9
2016-May-25 22:29N 31°25' E 121°33'2150.2
2016-May-25 22:28N 31°24' E 121°31'19301389344.9
2016-May-25 22:28N 00°02' E 114°10'192733847.5
2016-May-25 22:25N 31°22' E 121°29'4052150.7
2016-May-25 22:13N 38°03' E 120°17'3975899.1
2016-May-25 22:09N 31°30' E 121°24'12139.6
2016-May-25 22:04N 31°21' E 121°33'2344.2
2016-May-25 21:33N 30°59' E 121°23'1832744.0
2016-May-25 21:33N 31°11' E 121°07'436785121.3
2016-May-25 21:33N 24°25' E 118°05'438788780.1
2016-May-25 21:33N 31°05' E 121°28'151654.2
2016-May-25 21:33N 31°19' E 121°34'21314.9
2016-May-25 21:33N 31°21' E 121°32'123029.1
2016-May-25 21:32N 31°30' E 121°24'327206.8
2016-May-25 21:32N 30°58' E 121°19'251421.2
2016-May-25 21:31N 31°21' E 121°33'211232.6
2016-May-25 21:30N 31°01' E 121°27'28706.1
2016-May-25 21:28N 31°28' E 121°25'193342948.9
2016-May-25 21:25N 00°02' E 114°10'19307735.8
2016-May-25 21:10N 31°24' E 121°31'234.0
2016-May-25 21:06N 31°25' E 121°33'2037.5
2016-May-25 20:34N 31°05' E 121°28'4381577540.7
2016-May-25 20:34N 24°25' E 118°05'458149950.6
2016-May-25 20:33N 31°25' E 121°33'2412304.7
2016-May-25 20:33N 31°01' E 121°29'196668.8
2016-May-25 20:33N 31°19' E 121°34'32577.0
2016-May-25 20:33N 31°16' E 121°34'161186.2
2016-May-25 20:32N 31°30' E 121°24'3655788.9
2016-May-25 20:28N 37°27' E 122°55'3581061.6
2016-May-25 20:08N 31°39' E 121°14'2644.9
2016-May-25 19:33N 31°19' E 121°34'2514747.6
2016-May-25 19:33N 30°58' E 121°19'31126642.7
2016-May-25 19:33N 26°02' E 119°30'322289489.5
2016-May-25 19:33N 31°07' E 121°28'145652.4
2016-May-25 19:32N 31°21' E 121°33'45448080.0
2016-May-25 19:32N 24°25' E 118°05'43813037.5
2016-May-25 19:30N 31°05' E 121°28'231479.8
2016-May-25 19:29N 31°28' E 121°25'851.3
2016-May-25 19:20N 31°25' E 121°33'15476.5
2016-May-25 19:18N 31°34' E 121°19'221014.0
2016-May-25 19:17N 31°16' E 121°33'450616.2
2016-May-25 18:33N 24°25' E 118°05'12415953.5
2016-May-25 18:33N 26°02' E 119°30'33680558.7
2016-May-25 18:32N 31°21' E 121°32'51323.6
2016-May-25 18:32N 31°16' E 121°33'013.2
2016-May-25 18:32N 31°16' E 121°33'16333.1
2016-May-25 18:29N 31°30' E 121°24'37215202.0
2016-May-25 18:27N 37°35' E 122°47'40415137.2
2016-May-25 18:26N 30°58' E 121°19'31259.0
2016-May-25 18:19N 31°28' E 121°25'8276.0
2016-May-25 18:17N 31°25' E 121°33'693.7
2016-May-25 18:13N 31°28' E 121°27'165101.1
2016-May-25 18:13N 31°13' E 121°30'446676.5
2016-May-25 17:33N 24°25' E 118°05'45644415.0
2016-May-25 17:33N 31°24' E 121°31'5262.0
2016-May-25 17:32N 31°19' E 121°33'141167.9
2016-May-25 17:31N 31°30' E 121°24'16786.1
2016-May-25 17:30N 31°16' E 121°33'4233.9
2016-May-25 17:29N 31°19' E 121°34'5472.8
2016-May-25 17:28N 31°15' E 121°32'20420.5
2016-May-25 17:25N 30°58' E 121°19'29512.2
2016-May-25 17:22N 31°25' E 121°33'22447.3
2016-May-25 17:19N 31°39' E 121°14'4322842.8
2016-May-25 17:10N 38°51' E 121°33'473779.8
2016-May-25 16:33N 30°58' E 121°19'42964327.4
2016-May-25 16:33N 24°25' E 118°05'45381591.9
2016-May-25 16:33N 31°19' E 121°34'31027.5
2016-May-25 16:33N 31°21' E 121°31'1280.6
2016-May-25 16:32N 31°22' E 121°30'8276.2
2016-May-25 16:31N 31°28' E 121°25'34119186.3
2016-May-25 16:30N 26°02' E 119°30'33816684.0
2016-May-25 16:28N 31°23' E 121°35'19961.1
2016-May-25 16:27N 31°36' E 121°18'202719.9
2016-May-25 16:27N 31°20' E 121°33'664149418.9
2016-May-25 16:26N 22°51' E 113°34'66659959.7
2016-May-25 16:26N 31°30' E 121°24'957267.8
2016-May-25 16:25N 29°58' E 121°50'88250.4
2016-May-25 16:04N 31°25' E 121°33'458898.4
2016-May-25 15:33N 24°25' E 118°05'45649794.4
2016-May-25 15:33N 31°21' E 121°38'1821567.5
2016-May-25 15:33N 31°32' E 121°22'43921049.5
2016-May-25 15:31N 38°51' E 121°33'45127074.5
2016-May-25 15:30N 31°19' E 121°34'4807.2
2016-May-25 15:30N 31°23' E 121°30'9485.4
2016-May-25 15:29N 31°30' E 121°24'992842.7
2016-May-25 15:27N 29°56' E 122°02'882994.3
2016-May-25 15:25N 31°21' E 121°33'478.1
2016-May-25 15:22N 31°24' E 121°31'24116.9
2016-May-25 15:10N 31°01' E 121°27'787.2
2016-May-25 15:05N 30°58' E 121°19'429809.6
2016-May-25 14:33N 24°25' E 118°05'39093624.0
2016-May-25 14:33N 29°50' E 122°07'1002128.1
2016-May-25 14:30N 31°26' E 121°30'3142.8
2016-May-25 14:29N 31°25' E 121°33'1034390.3
2016-May-25 14:29N 31°30' E 121°24'14104.0
2016-May-25 14:21N 31°19' E 121°34'4515255.5
2016-May-25 14:16N 38°50' E 121°34'773703.8
2016-May-25 14:15N 38°03' E 120°16'101535832.9
2016-May-25 14:13N 22°10' E 113°31'436395.4
2016-May-25 14:13N 22°53' E 113°31'66411335.1
2016-May-25 14:09N 31°21' E 121°33'1626.9
2016-May-25 13:33N 31°05' E 121°28'36207.4
2016-May-25 13:33N 31°02' E 121°29'2623085.4
2016-May-25 13:33N 31°27' E 121°29'45931764.7
2016-May-25 13:32N 24°25' E 118°05'4591653794.2
2016-May-25 13:32N 31°30' E 121°23'744182.4
2016-May-25 13:31N 30°18' E 121°45'409595.5
2016-May-25 13:31N 29°42' E 122°05'114136571.4
2016-May-25 13:31N 31°30' E 121°24'39724237.3
2016-May-25 13:30N 38°03' E 120°16'771408.2
2016-May-25 13:26N 38°51' E 121°33'10832857.5
2016-May-25 13:04N 22°10' E 113°31'7011388.1
2016-May-25 12:33N 31°34' E 121°19'205432.8
2016-May-25 12:33N 31°19' E 121°34'453326367.8
2016-May-25 12:33N 24°25' E 118°05'826141537.0
2016-May-25 12:33N 38°03' E 120°16'423152125.2
2016-May-25 12:33N 31°05' E 121°28'25229.2
2016-May-25 12:26N 31°30' E 121°24'31897.9
2016-May-25 12:24N 30°59' E 121°20'27598.4
2016-May-25 12:21N 31°20' E 121°40'9322.8
2016-May-25 12:19N 31°25' E 121°31'4438490.8
2016-May-25 12:16N 38°49' E 121°39'4442620.3
2016-May-25 12:06N 31°25' E 121°33'3 5.3
2016-May-25 11:33N 31°23' E 121°30'91586.5
2016-May-25 11:33N 31°30' E 121°24'39765005.6
2016-May-25 11:33N 38°03' E 120°16'40929451.9
2016-May-25 11:32N 31°19' E 121°34'45370950.4
2016-May-25 11:31N 24°25' E 118°05'4418451.7
2016-May-25 11:28N 31°17' E 121°05'235525.6
2016-May-25 11:28N 31°05' E 121°28'390.2
2016-May-25 11:26N 31°08' E 121°28'18601.8
2016-May-25 11:24N 31°25' E 121°31'2278454.5
2016-May-25 11:24N 31°40' E 121°12'243849.5
2016-May-25 11:24N 31°25' E 121°33'601109.5
2016-May-25 11:21N 30°26' E 121°23'4382049.8
2016-May-25 11:08N 37°38' E 122°45'390674.4
2016-May-25 10:33N 31°17' E 121°08'442397911.9
2016-May-25 10:33N 24°25' E 118°05'4541634779.1
2016-May-25 10:33N 31°21' E 121°31'177472.8
2016-May-25 10:33N 31°05' E 121°28'423108676.4
2016-May-25 10:33N 38°03' E 120°16'39720431.6
2016-May-25 10:32N 31°30' E 121°24'141139.8
2016-May-25 10:31N 31°19' E 121°34'39212720.4
2016-May-25 10:29N 37°51' E 121°18'44237921.7
2016-May-25 10:28N 30°29' E 121°10'45652926.6
2016-May-25 10:28N 38°02' E 120°08'50729923.8
2016-May-25 10:27N 29°44' E 122°03'89339.7
2016-May-25 10:11N 31°08' E 121°28'12263.7
2016-May-25 10:08N 30°58' E 121°19'281518.3
2016-May-25 10:07N 31°21' E 121°38'457814.7
2016-May-25 09:33N 24°25' E 118°05'438525860.0
2016-May-25 09:33N 31°05' E 121°28'420378232.1
2016-May-25 09:33N 37°59' E 119°59'499199575.1
2016-May-25 09:33N 29°51' E 122°07'9585107.6
2016-May-25 09:33N 31°22' E 121°36'41078.0
2016-May-25 09:33N 31°19' E 121°34'4994.2
2016-May-25 09:33N 31°23' E 121°33'3129.7
2016-May-25 09:31N 31°21' E 121°31'4118.9
2016-May-25 09:29N 31°25' E 121°31'8207.8
2016-May-25 09:27N 31°30' E 121°24'39795347.8
2016-May-25 09:27N 38°03' E 120°16'428128475.6
2016-May-25 09:26N 30°58' E 121°19'29699.1
2016-May-25 09:24N 31°25' E 121°33'4 5.2
2016-May-25 08:34N 31°21' E 121°33'3852.0
2016-May-25 08:33N 31°22' E 121°30'45496201.9
2016-May-25 08:33N 24°25' E 118°05'43837561.4
2016-May-25 08:32N 31°05' E 121°28'651468549.4
2016-May-25 08:32N 22°48' E 113°37'62244783.8
2016-May-25 08:31N 29°56' E 122°01'9315226.6
2016-May-25 08:31N 31°25' E 121°31'400143878.9
2016-May-25 08:31N 38°00' E 120°17'719117622.2
2016-May-25 08:31N 26°03' E 119°30'3354273.8
2016-May-25 08:26N 31°19' E 121°34'6526.9
2016-May-25 08:25N 31°25' E 121°33'1084.5
2016-May-25 08:18N 31°30' E 121°24'3668039.7
2016-May-25 08:16N 37°34' E 122°11'3592743.7
2016-May-25 08:08N 31°38' E 121°14'464812.7
2016-May-25 07:34N 24°25' E 118°05'26167038.5
2016-May-25 07:33N 22°57' E 113°37'65622081.8
2016-May-25 07:31N 31°17' E 121°34'407292853.9
2016-May-25 07:31N 37°59' E 120°16'405112106.3
2016-May-25 07:31N 31°19' E 121°34'152374.4
2016-May-25 07:31N 31°05' E 121°28'253656.4
2016-May-25 07:30N 31°30' E 121°24'33822969.3
2016-May-25 07:30N 26°06' E 119°32'307551807.2
2016-May-25 07:29N 30°58' E 121°19'862419.2
2016-May-25 07:27N 31°58' E 120°06'674.2
2016-May-25 07:22N 31°56' E 120°13'753720.6
2016-May-25 07:21N 31°21' E 121°32'3524978.6
2016-May-25 07:21N 31°46' E 121°04'35444.8
2016-May-25 07:16N 31°21' E 121°33'3504773.1
2016-May-25 07:12N 25°45' E 119°38'3504723.2
2016-May-25 07:07N 31°21' E 121°31'454807.3
2016-May-25 06:33N 24°25' E 118°05'45445411.6
2016-May-25 06:33N 31°21' E 121°31'2518200.0
2016-May-25 06:33N 30°58' E 121°19'633175403.2
2016-May-25 06:33N 22°57' E 113°37'661140071.7
2016-May-25 06:32N 31°42' E 121°09'3113863.2
2016-May-25 06:32N 31°19' E 121°34'153899.3
2016-May-25 06:32N 31°05' E 121°28'251988.1
2016-May-25 06:31N 31°30' E 121°24'3939899.8
2016-May-25 06:29N 37°59' E 120°17'36365312.1
2016-May-25 06:28N 31°57' E 120°06'38400.2
2016-May-25 06:23N 31°58' E 120°51'3175477.9
2016-May-25 06:19N 26°47' E 119°43'6727284.9
2016-May-25 06:14N 37°59' E 119°56'4176739.2
2016-May-25 06:10N 31°08' E 121°28'3251.7
2016-May-25 05:33N 31°38' E 121°16'662396963.5
2016-May-25 05:33N 22°57' E 113°37'26124710.3
2016-May-25 05:33N 24°25' E 118°05'454272588.1
2016-May-25 05:33N 31°22' E 121°30'10989.8
2016-May-25 05:32N 31°30' E 121°24'252471.1
2016-May-25 05:31N 31°05' E 121°28'121554.0
2016-May-25 05:31N 31°16' E 121°33'2115364.6
2016-May-25 05:31N 30°58' E 121°19'252461.0
2016-May-25 05:30N 31°19' E 121°34'8543567.1
2016-May-25 05:30N 31°57' E 120°05'86624.1
2016-May-25 05:22N 31°08' E 121°28'41612488.1
2016-May-25 05:20N 38°00' E 120°17'390504.7
2016-May-25 04:33N 31°33' E 121°21'661475761.7
2016-May-25 04:33N 22°57' E 113°37'63384452.8
2016-May-25 04:33N 30°58' E 121°19'2514766.2
2016-May-25 04:33N 31°19' E 121°34'45352640.6
2016-May-25 04:32N 24°25' E 118°05'438143416.4
2016-May-25 04:32N 31°05' E 121°28'25993.1
2016-May-25 04:30N 31°30' E 121°24'674715.5
2016-May-25 04:30N 31°56' E 120°12'676055.2
2016-May-25 04:29N 31°30' E 121°24'9225.1
2016-May-25 04:26N 31°22' E 121°30'40334584.6
2016-May-25 04:26N 38°01' E 120°17'36124962.5
2016-May-25 04:25N 32°01' E 120°46'59840.9
2016-May-25 04:21N 31°18' E 121°33'7412.1
2016-May-25 04:20N 31°25' E 121°33'172330.5
2016-May-25 04:19N 31°08' E 121°28'441575.1
2016-May-25 03:33N 24°25' E 118°05'429154375.9
2016-May-25 03:33N 30°58' E 121°19'335868.7
2016-May-25 03:33N 31°30' E 121°25'9427.8
2016-May-25 03:31N 31°22' E 121°30'169.8
2016-May-25 03:30N 31°23' E 121°30'5633.1
2016-May-25 03:30N 31°19' E 121°34'123705.7
2016-May-25 03:30N 31°08' E 121°28'221316.4
2016-May-25 03:29N 31°30' E 121°24'66021406.9
2016-May-25 03:27N 22°57' E 113°37'65527398.0
2016-May-25 03:25N 31°16' E 121°33'531.6
2016-May-25 03:16N 31°21' E 121°33'4054133.0
2016-May-25 03:10N 38°01' E 120°16'36368817.8
2016-May-25 03:10N 31°58' E 120°17'6471054.7
2016-May-25 02:33N 22°57' E 113°37'660125058.7
2016-May-25 02:33N 31°30' E 121°24'39549013.9
2016-May-25 02:32N 38°01' E 120°17'823370531.0
2016-May-25 02:32N 24°25' E 118°05'45377707.6
2016-May-25 02:32N 31°19' E 121°34'4508.4
2016-May-25 02:32N 31°21' E 121°38'2833638.8
2016-May-25 02:31N 30°58' E 121°19'2691864.0
2016-May-25 02:31N 31°22' E 121°30'12693.2
2016-May-25 02:30N 31°10' E 121°28'2018172.4
2016-May-25 02:30N 31°30' E 121°24'53124.1
2016-May-25 02:30N 31°27' E 121°29'41748.4
2016-May-25 02:30N 31°25' E 121°33'4161.3
2016-May-25 02:28N 31°21' E 121°33'2175.4
2016-May-25 02:28N 31°18' E 121°33'74725.5
2016-May-25 02:22N 31°59' E 120°20'7491.6
2016-May-25 01:33N 31°19' E 121°34'453101991.2
2016-May-25 01:33N 24°25' E 118°05'26136115.0
2016-May-25 01:33N 22°57' E 113°37'264316648.6
2016-May-25 01:33N 24°21' E 118°10'431110926.3
2016-May-25 01:32N 30°58' E 121°19'42424227.7
2016-May-25 01:31N 37°59' E 120°17'40239096.2
2016-May-25 01:31N 31°22' E 121°30'53632.2
2016-May-25 01:26N 32°01' E 120°48'38026324.8
2016-May-25 01:25N 25°45' E 119°39'3544318.8
2016-May-25 01:20N 31°25' E 121°33'4544.1
2016-May-25 01:19N 31°22' E 121°30'101095.6
2016-May-25 01:19N 31°30' E 121°24'21902.2
2016-May-25 01:18N 31°10' E 121°28'60682.3
2016-May-25 01:12N 32°00' E 120°49'5685.9
2016-May-25 00:33N 31°19' E 121°34'658789108.4
2016-May-25 00:33N 22°57' E 113°37'261134142.4
2016-May-25 00:33N 24°25' E 118°05'45246503.0
2016-May-25 00:33N 31°18' E 121°34'51308.4
2016-May-25 00:32N 31°23' E 121°34'46770043.9
2016-May-25 00:32N 24°13' E 118°08'46552272.9
2016-May-25 00:31N 31°22' E 121°30'10132.8
2016-May-25 00:27N 31°30' E 121°24'12565.4
2016-May-25 00:26N 31°21' E 121°33'458.0
2016-May-25 00:21N 31°25' E 121°33'814250.3
2016-May-25 00:20N 31°57' E 120°05'883315.1
2016-May-25 00:19N 31°20' E 121°40'657057.4
2016-May-25 00:18N 31°60' E 120°39'6992.2
2016-May-24 23:33N 31°05' E 121°28'194545.3
2016-May-24 23:33N 31°23' E 121°33'45763234.2
2016-May-24 23:33N 24°25' E 118°05'186620.5
2016-May-24 23:32N 24°07' E 118°04'47160498.6
2016-May-24 23:32N 31°19' E 121°34'7296.9
2016-May-24 23:31N 31°13' E 121°30'6512344379.5
2016-May-24 23:31N 22°57' E 113°37'66060926.9
2016-May-24 23:30N 31°30' E 121°24'10127.5
2016-May-24 23:25N 31°22' E 121°30'621710.0
2016-May-24 23:23N 32°02' E 120°35'69619.6
2016-May-24 23:17N 31°10' E 121°28'1684.6
2016-May-24 23:05N 31°25' E 121°33'663140471.6
2016-May-24 23:05N 22°58' E 113°32'6591251.5
2016-May-24 22:34N 31°19' E 121°34'1236.0
2016-May-24 22:33N 31°19' E 121°34'111690.3
2016-May-24 22:33N 31°10' E 121°28'2326.1
2016-May-24 22:33N 31°08' E 121°28'441113371.5
2016-May-24 22:32N 24°25' E 118°05'4381577795.2
2016-May-24 22:32N 31°05' E 121°28'644289683.4
2016-May-24 22:32N 22°57' E 113°37'657169052.0
2016-May-24 22:32N 31°22' E 121°30'65732834.9
2016-May-24 22:31N 23°02' E 113°31'65734777.9
2016-May-24 22:30N 31°19' E 121°34'1448927.7
2016-May-24 22:30N 31°30' E 121°24'39719580.5
2016-May-24 22:28N 38°03' E 120°17'3632237.7
2016-May-24 22:19N 32°00' E 120°23'7522543.2
2016-May-24 22:19N 31°21' E 121°38'550.5
2016-May-24 22:13N 31°21' E 121°33'1117.5
2016-May-24 21:33N 31°10' E 121°28'6471164971.0
2016-May-24 21:33N 22°57' E 113°37'6422311462.0
2016-May-24 21:33N 31°02' E 121°29'288472.7
2016-May-24 21:33N 31°30' E 121°24'92717.2
2016-May-24 21:33N 31°23' E 121°30'58184.0
2016-May-24 21:33N 31°19' E 121°34'4531631838.8
2016-May-24 21:33N 24°25' E 118°05'26931264.4
2016-May-24 21:32N 23°03' E 113°25'659182625.7
2016-May-24 21:32N 31°22' E 121°30'466.2
2016-May-24 21:29N 31°19' E 121°34'408244761.0
2016-May-24 21:28N 38°02' E 120°17'40918868.2
2016-May-24 21:27N 31°20' E 121°41'621661.0
2016-May-24 21:25N 32°01' E 120°47'56177.4
2016-May-24 21:06N 31°21' E 121°33'5786.6
2016-May-24 21:06N 31°16' E 121°33'9340.3
2016-May-24 21:04N 31°25' E 121°33'458902.8
2016-May-24 20:34N 24°25' E 118°05'45377706.6
2016-May-24 20:33N 31°19' E 121°34'658169094.6
2016-May-24 20:33N 22°57' E 113°37'640384061.6
2016-May-24 20:33N 31°01' E 121°27'2517897.4
2016-May-24 20:33N 31°25' E 121°33'4327.1
2016-May-24 20:32N 31°22' E 121°30'38042720.7
2016-May-24 20:31N 37°41' E 121°56'3866740.3
2016-May-24 20:28N 31°16' E 121°33'7826.0
2016-May-24 20:28N 31°10' E 121°28'41470947.8
2016-May-24 20:27N 37°57' E 119°56'36012961.7
2016-May-24 20:25N 31°59' E 120°49'515255.2
2016-May-24 20:25N 31°24' E 121°32'10295.1
2016-May-24 20:23N 31°30' E 121°24'460557.0
2016-May-24 19:33N 24°25' E 118°05'44363736.8
2016-May-24 19:33N 31°10' E 121°28'647582485.5
2016-May-24 19:33N 22°57' E 113°37'65850368.6
2016-May-24 19:32N 31°19' E 121°34'201352.7
2016-May-24 19:31N 31°01' E 121°27'25539.0
2016-May-24 19:29N 31°25' E 121°33'40231482.7
2016-May-24 19:28N 38°02' E 120°17'789368.9
2016-May-24 19:27N 38°49' E 121°36'4558155.9
2016-May-24 19:24N 31°14' E 121°30'17284.7
2016-May-24 19:20N 31°30' E 121°24'1701881.8
2016-May-24 19:15N 31°25' E 118°05'15210697.3
2016-May-24 19:14N 31°47' E 121°01'5276.0
2016-May-24 18:33N 31°01' E 121°27'640121282.6
2016-May-24 18:33N 22°57' E 113°37'661792967.6
2016-May-24 18:33N 32°00' E 120°41'475213871.7
2016-May-24 18:33N 24°25' E 118°05'45440871.2
2016-May-24 18:32N 31°22' E 121°29'1243911.5
2016-May-24 18:32N 31°10' E 121°28'625040.0
2016-May-24 18:31N 32°01' E 120°47'40922986.9
2016-May-24 18:30N 38°48' E 121°33'45344057.7
2016-May-24 18:30N 31°15' E 121°32'3744384.3
2016-May-24 18:30N 31°45' E 121°06'2112576.5
2016-May-24 18:29N 31°30' E 121°24'14410.9
2016-May-24 18:27N 31°19' E 121°34'455.9
2016-May-24 18:23N 31°22' E 121°30'5016073.9
2016-May-24 18:18N 23°43' E 117°42'481640.6
2016-May-24 17:33N 31°00' E 121°27'640767818.4
2016-May-24 17:33N 22°57' E 113°37'26155235.1
2016-May-24 17:33N 24°25' E 118°05'45339800.9
2016-May-24 17:32N 31°19' E 121°34'2816840.6
2016-May-24 17:32N 31°40' E 121°12'321141.7
2016-May-24 17:31N 31°13' E 121°30'498149319.7
2016-May-24 17:30N 23°40' E 117°38'49442349.1
2016-May-24 17:30N 31°10' E 121°28'3424325.7
2016-May-24 17:30N 31°41' E 121°12'43018431.7
2016-May-24 17:28N 38°50' E 121°32'4403793.5
2016-May-24 17:21N 31°30' E 121°24'14480.6
2016-May-24 17:19N 31°40' E 121°12'43831.1
2016-May-24 17:16N 30°58' E 121°15'40228354.2
2016-May-24 17:15N 37°38' E 121°50'401573.4
2016-May-24 16:34N 30°58' E 121°18'38137301.1
2016-May-24 16:33N 31°36' E 121°17'3822732.3
2016-May-24 16:33N 30°59' E 121°21'635326450.1
2016-May-24 16:33N 22°57' E 113°37'647258882.4
2016-May-24 16:33N 31°10' E 121°28'278177.2
2016-May-24 16:33N 31°36' E 121°18'463238113.7
2016-May-24 16:33N 24°25' E 118°05'45329669.8
2016-May-24 16:32N 31°19' E 121°34'557908.1
2016-May-24 16:31N 31°59' E 120°49'32116871.9
2016-May-24 16:31N 31°37' E 121°17'91033.3
2016-May-24 16:31N 31°30' E 121°24'37014957.9
2016-May-24 16:29N 37°39' E 121°53'38420019.8
2016-May-24 16:28N 31°16' E 121°33'725762.3
2016-May-24 16:28N 31°22' E 121°29'5193.2
2016-May-24 16:27N 31°25' E 121°33'91052.4
2016-May-24 16:26N 31°16' E 121°33'5271.8
2016-May-24 16:25N 31°21' E 121°32'218.4
2016-May-24 16:20N 31°22' E 121°30'086.0
2016-May-24 16:20N 31°22' E 121°30'1316.4
2016-May-24 15:34N 31°33' E 121°22'3691.9
2016-May-24 15:33N 31°31' E 121°24'460236804.7
2016-May-24 15:33N 24°25' E 118°05'26167071.2
2016-May-24 15:33N 22°57' E 113°37'637382021.3
2016-May-24 15:33N 30°59' E 121°23'332585.7
2016-May-24 15:32N 31°32' E 121°22'361553.7
2016-May-24 15:31N 30°57' E 121°13'1816372.0
2016-May-24 15:31N 31°10' E 121°28'5942552.6
2016-May-24 15:31N 31°59' E 120°49'412219.4
2016-May-24 15:29N 31°30' E 121°24'37123858.2
2016-May-24 15:28N 37°40' E 121°56'4621424.8
2016-May-24 15:09N 29°58' E 121°51'95160.8
2016-May-24 14:34N 31°30' E 121°25'46041442.6
2016-May-24 14:33N 24°25' E 118°05'826212471.0
2016-May-24 14:33N 38°04' E 120°17'493104369.8
2016-May-24 14:32N 29°58' E 121°59'972499.3
2016-May-24 14:30N 31°30' E 121°24'292948.7
2016-May-24 14:29N 31°01' E 121°28'9588.6
2016-May-24 14:28N 31°10' E 121°28'1993.8
2016-May-24 14:17N 31°28' E 121°25'0 0.6
2016-May-24 13:33N 31°29' E 121°25'459550801.6
2016-May-24 13:33N 24°25' E 118°05'393117923.5
2016-May-24 13:33N 29°53' E 122°09'10441730.0
2016-May-24 13:33N 31°30' E 121°24'255.9
2016-May-24 13:31N 31°28' E 121°25'19321.8
2016-May-24 13:27N 31°10' E 121°28'20126.8
2016-May-24 13:18N 31°30' E 121°24'3 4.2
2016-May-24 12:33N 31°31' E 121°21'460110423.3
2016-May-24 12:33N 24°25' E 118°05'4781719674.7
2016-May-24 12:33N 32°01' E 120°47'151108995.6
2016-May-24 12:33N 29°44' E 122°03'912067.4
2016-May-24 12:30N 31°10' E 121°28'20150.9
2016-May-24 12:22N 31°30' E 121°24'52863.2
2016-May-24 12:18N 32°02' E 120°35'546993.3
2016-May-24 12:18N 31°28' E 121°25'5472490.8
2016-May-24 12:05N 23°16' E 116°57'93178.7
2016-May-24 11:33N 24°25' E 118°05'46047276.6
2016-May-24 11:33N 31°30' E 121°24'1158481.1
2016-May-24 11:32N 29°41' E 122°07'610129194.9
2016-May-24 11:32N 22°57' E 113°37'66035443.6
2016-May-24 11:30N 31°24' E 121°31'237.0
2016-May-24 11:27N 31°25' E 121°33'4386.6
2016-May-24 11:27N 31°22' E 121°30'8310360.2
2016-May-24 11:26N 31°58' E 120°02'7710679.3
2016-May-24 11:26N 31°28' E 121°25'11890.3
2016-May-24 11:25N 31°20' E 121°33'11322.2
2016-May-24 11:23N 31°10' E 121°28'7981.2
2016-May-24 11:23N 31°16' E 121°33'7232.6
2016-May-24 11:21N 31°23' E 121°35'66775075.2
2016-May-24 11:20N 22°53' E 113°31'6646658.1
2016-May-24 11:14N 31°19' E 121°34'54810554.3
2016-May-24 11:11N 23°12' E 116°51'5694762.8
2016-May-24 11:04N 32°01' E 120°48'57111.2
2016-May-24 10:33N 31°19' E 121°34'2210120.8
2016-May-24 10:33N 31°17' E 121°07'442265309.9
2016-May-24 10:33N 24°25' E 118°05'261234747.3
2016-May-24 10:33N 22°57' E 113°37'36687824.0
2016-May-24 10:33N 22°32' E 120°13'53086735.2
2016-May-24 10:32N 31°17' E 121°34'8839.4
2016-May-24 10:32N 31°25' E 121°33'10406.7
2016-May-24 10:30N 31°30' E 121°24'201441.3
2016-May-24 10:29N 31°10' E 121°28'6497.7
2016-May-24 10:29N 31°15' E 121°31'292361.9
2016-May-24 10:28N 31°39' E 121°13'152875.5
2016-May-24 10:28N 31°28' E 121°25'7966.2
2016-May-24 10:27N 31°22' E 121°29'5164.3
2016-May-24 10:26N 31°19' E 121°34'41432.5
2016-May-24 10:25N 31°22' E 121°30'192781633.4
2016-May-24 10:24N 00°02' E 114°10'195685892.9
2016-May-24 10:23N 32°00' E 120°48'34825.2
2016-May-24 10:20N 31°57' E 120°08'4425608.4
2016-May-24 10:15N 39°04' E 117°48'44110662.2
2016-May-24 10:13N 32°04' E 120°32'143217.2
2016-May-24 09:33N 29°60' E 121°56'5801044323.3
2016-May-24 09:33N 39°04' E 117°51'878150587.8
2016-May-24 09:33N 24°25' E 118°05'45712287.7
2016-May-24 09:31N 31°24' E 121°32'9701.0
2016-May-24 09:30N 31°30' E 121°24'10428.3
2016-May-24 09:29N 31°21' E 121°30'128.2
2016-May-24 09:26N 31°22' E 121°29'65759128.9
2016-May-24 09:26N 22°57' E 113°37'644193328.5
2016-May-24 09:25N 31°56' E 120°14'7721276.5
2016-May-24 09:25N 31°20' E 121°33'10146.1
2016-May-24 09:21N 31°11' E 121°28'957917.1
2016-May-24 09:20N 29°42' E 122°05'105480.5
2016-May-24 09:07N 31°22' E 121°30'496877.7
2016-May-24 08:33N 39°04' E 117°50'879451893.8
2016-May-24 08:33N 24°25' E 118°05'4541635511.5
2016-May-24 08:33N 31°22' E 121°30'7184848.0
2016-May-24 08:33N 31°59' E 120°19'709370.9
2016-May-24 08:33N 31°23' E 121°30'161143.9
2016-May-24 08:32N 31°07' E 121°28'8523663.9
2016-May-24 08:32N 29°48' E 122°05'883824.6
2016-May-24 08:30N 31°10' E 121°28'121829.6
2016-May-24 08:30N 31°22' E 121°29'356.2
2016-May-24 08:27N 31°21' E 121°32'3568.0
2016-May-24 08:27N 31°22' E 121°29'7910500.5
2016-May-24 08:27N 31°57' E 120°06'843854.2
2016-May-24 08:25N 31°19' E 121°34'14113.9
2016-May-24 08:18N 31°30' E 121°24'12947.6
2016-May-24 08:17N 31°21' E 121°33'454619.9
2016-May-24 07:33N 24°25' E 118°05'393353973.2
2016-May-24 07:33N 29°55' E 122°06'75135808.0
2016-May-24 07:33N 31°03' E 121°29'12920.7
2016-May-24 07:32N 30°58' E 121°16'63173328.4
2016-May-24 07:32N 22°57' E 113°37'657473024.4
2016-May-24 07:32N 31°22' E 121°29'95243.2
2016-May-24 07:32N 31°30' E 121°24'9849.7
2016-May-24 07:31N 31°22' E 121°29'121859.2
2016-May-24 07:31N 31°10' E 121°28'13255.2
2016-May-24 07:28N 31°22' E 121°30'3728.0
2016-May-24 07:28N 31°25' E 121°31'3599.2
2016-May-24 07:27N 31°22' E 121°30'4227.9
2016-May-24 07:26N 31°19' E 121°34'634723.4
2016-May-24 07:25N 32°01' E 120°38'66512730.9
2016-May-24 07:22N 23°03' E 113°16'66716332.6
2016-May-24 07:20N 31°30' E 121°24'335907.4
2016-May-24 07:19N 30°58' E 121°17'123170.3
2016-May-24 07:19N 31°09' E 121°11'43723462.1
2016-May-24 07:18N 24°21' E 118°14'46884217.2
2016-May-24 07:18N 31°56' E 120°16'8176.7
2016-May-24 07:15N 32°01' E 120°23'471671.4
2016-May-24 06:33N 24°25' E 118°05'430257914.1
2016-May-24 06:33N 30°59' E 121°20'640177093.9
2016-May-24 06:33N 23°02' E 113°22'663596354.6
2016-May-24 06:33N 31°21' E 121°33'456234510.5
2016-May-24 06:33N 24°22' E 118°08'39274206.2
2016-May-24 06:32N 29°57' E 121°56'6915489.4
2016-May-24 06:32N 30°59' E 121°20'248471.6
2016-May-24 06:32N 31°19' E 121°34'658157821.7
2016-May-24 06:32N 22°57' E 113°37'63771691.1
2016-May-24 06:31N 31°11' E 121°09'184030.5
2016-May-24 06:31N 31°01' E 121°27'22465.9
2016-May-24 06:28N 31°22' E 121°29'711250.4
2016-May-24 06:25N 31°56' E 120°16'714419.8
2016-May-24 06:24N 31°22' E 121°29'123.3
2016-May-24 06:21N 31°22' E 121°30'10226.3
2016-May-24 06:19N 31°30' E 121°24'21336.6
2016-May-24 06:15N 31°10' E 121°28'13242.9
2016-May-24 06:12N 31°22' E 121°30'455714.1
2016-May-24 05:34N 24°25' E 118°04'11233.9
2016-May-24 05:33N 24°25' E 118°05'440316844.3
2016-May-24 05:33N 31°14' E 121°09'639164231.7
2016-May-24 05:33N 23°04' E 113°28'637152822.6
2016-May-24 05:33N 30°59' E 121°24'2112843.9
2016-May-24 05:33N 31°19' E 121°34'56250.8
2016-May-24 05:33N 31°24' E 121°32'91637.2
2016-May-24 05:32N 31°30' E 121°24'309729.9
2016-May-24 05:32N 31°00' E 121°27'64039697.1
2016-May-24 05:31N 22°57' E 113°37'6576379.4
2016-May-24 05:25N 31°22' E 121°30'40312282.6
2016-May-24 05:23N 37°57' E 119°54'3588359.6
2016-May-24 05:21N 31°59' E 120°01'842760.2
2016-May-24 05:19N 31°22' E 121°29'2228.6
2016-May-24 04:33N 31°00' E 121°27'2211158.6
2016-May-24 04:33N 31°22' E 121°29'454272478.2
2016-May-24 04:33N 24°25' E 118°05'45423355.0
2016-May-24 04:32N 31°22' E 121°29'65926661.0
2016-May-24 04:30N 22°58' E 113°32'64448274.5
2016-May-24 04:30N 31°17' E 121°09'18772.3
2016-May-24 04:28N 31°30' E 121°24'10577.5
2016-May-24 04:27N 31°21' E 121°30'113.8
2016-May-24 04:25N 31°22' E 121°30'1388.0
2016-May-24 04:15N 31°09' E 121°27'64610867.6
2016-May-24 04:12N 22°57' E 113°37'65815995.4
2016-May-24 04:09N 31°19' E 121°34'786536.8
2016-May-24 04:09N 31°57' E 120°13'465793.0
2016-May-24 03:34N 24°25' E 118°05'4411589336.9
2016-May-24 03:34N 31°17' E 121°06'213976.2
2016-May-24 03:33N 31°08' E 121°28'121930.8
2016-May-24 03:33N 31°19' E 121°34'201876.6
2016-May-24 03:32N 31°00' E 121°27'646101121.1
2016-May-24 03:32N 22°53' E 113°30'62020.7
2016-May-24 03:32N 22°50' E 113°35'66458283.2
2016-May-24 03:31N 31°22' E 121°30'65713004.1
2016-May-24 03:28N 22°57' E 113°37'66040968.1
2016-May-24 03:27N 31°30' E 121°24'9239.4
2016-May-24 03:25N 31°24' E 121°31'25459.7
2016-May-24 03:22N 30°59' E 121°24'4127646.0
2016-May-24 03:18N 37°47' E 120°13'3908313.5
2016-May-24 03:15N 31°22' E 121°29'0 0.1
2016-May-24 03:12N 31°22' E 121°29'19273006.4
2016-May-24 02:33N 00°02' E 114°10'14822666929.4
2016-May-24 02:33N 24°25' E 118°05'261134140.3
2016-May-24 02:33N 22°57' E 113°37'63862027.2
2016-May-24 02:33N 30°59' E 121°24'93269.9
2016-May-24 02:32N 31°08' E 121°28'221603.0
2016-May-24 02:32N 31°30' E 121°24'10765.1
2016-May-24 02:31N 31°22' E 121°30'81303.4
2016-May-24 02:31N 31°28' E 121°25'7570.5
2016-May-24 02:30N 31°22' E 121°29'226008.5
2016-May-24 02:30N 31°00' E 121°27'27081071.1
2016-May-24 02:29N 26°46' E 119°43'29714238.2
2016-May-24 02:28N 31°29' E 121°26'11510.8
2016-May-24 02:27N 31°19' E 121°34'772439.2
2016-May-24 02:25N 31°57' E 120°15'733484.7
2016-May-24 02:24N 31°24' E 121°31'751330.0
2016-May-24 02:20N 31°56' E 120°11'6434311.2
2016-May-24 02:11N 23°00' E 113°31'65923477.3
2016-May-24 02:10N 31°21' E 121°33'454738.4
2016-May-24 01:33N 24°25' E 118°05'46248910.5
2016-May-24 01:32N 31°34' E 121°18'355436.3
2016-May-24 01:32N 31°00' E 121°27'2814328.4
2016-May-24 01:32N 31°28' E 121°25'2925958.9
2016-May-24 01:32N 30°59' E 121°24'255940.5
2016-May-24 01:31N 31°22' E 121°35'124388.7
2016-May-24 01:31N 31°30' E 121°24'193494090.0
2016-May-24 01:30N 00°02' E 114°10'137635373.6
2016-May-24 01:28N 22°57' E 113°37'64524445.1
2016-May-24 01:26N 31°57' E 120°15'7971006.8
2016-May-24 01:26N 31°08' E 121°28'141676.6
2016-May-24 01:25N 31°22' E 121°30'348.2
2016-May-24 01:22N 31°21' E 121°33'355.9
2016-May-24 01:19N 31°22' E 121°29'454597.3
2016-May-24 00:33N 24°25' E 118°05'45423693.8
2016-May-24 00:32N 31°22' E 121°29'221259.8
2016-May-24 00:31N 31°00' E 121°27'30840.8
2016-May-24 00:29N 31°30' E 121°24'311571.4
2016-May-24 00:28N 30°59' E 121°24'638163931.4
2016-May-24 00:27N 22°57' E 113°37'65715778.2
2016-May-24 00:25N 31°22' E 121°30'346.1
2016-May-24 00:21N 31°21' E 121°33'251023.8
2016-May-24 00:20N 31°39' E 121°13'15669.1
2016-May-24 00:19N 31°28' E 121°25'621640.1
2016-May-24 00:16N 32°02' E 120°24'19549405.2
2016-May-24 00:04N 00°02' E 114°10'19143762.3
2016-May-23 23:33N 31°08' E 121°28'82501.2
2016-May-23 23:33N 31°00' E 121°27'434520365.2
2016-May-23 23:33N 24°25' E 118°05'46043543.2
2016-May-23 23:32N 31°30' E 121°24'672531.0
2016-May-23 23:31N 31°56' E 120°11'55701.0
2016-May-23 23:26N 31°40' E 121°12'194190753.1
2016-May-23 23:25N 00°02' E 114°10'1900136785.4
2016-May-23 23:24N 30°57' E 121°13'72915.2
2016-May-23 23:19N 32°02' E 120°35'9605.7
2016-May-23 23:18N 32°03' E 120°25'621501.7
2016-May-23 23:16N 31°28' E 121°25'29356.9
2016-May-23 23:11N 30°59' E 121°24'813.2
2016-May-23 22:33N 30°58' E 121°15'337466.5
2016-May-23 22:33N 31°30' E 121°24'460206827.7
2016-May-23 22:33N 24°25' E 118°05'46649359.9
2016-May-23 22:32N 31°57' E 120°16'839582.5
2016-May-23 22:32N 31°00' E 121°27'237.6
2016-May-23 22:28N 30°59' E 121°24'1904107126.5
2016-May-23 22:27N 00°02' E 114°10'230528124.4
2016-May-23 22:22N 37°42' E 122°02'3933456.0
2016-May-23 22:16N 31°12' E 121°07'19163.8
2016-May-23 22:09N 31°08' E 121°28'1321.5
2016-May-23 21:33N 30°58' E 121°18'19021141242.3
2016-May-23 21:33N 00°02' E 114°10'1911860122.1
2016-May-23 21:33N 31°10' E 121°07'2035645.9
2016-May-23 21:33N 31°00' E 121°27'30561.9
2016-May-23 21:30N 31°30' E 121°24'31662.9
2016-May-23 21:27N 30°59' E 121°24'81314.9
2016-May-23 21:12N 32°02' E 120°24'771326.9
2016-May-23 21:08N 31°08' E 121°28'915.0
2016-May-23 20:34N 30°60' E 121°25'22114.3
2016-May-23 20:33N 31°00' E 121°27'434130089.6
2016-May-23 20:33N 24°25' E 118°05'432155603.8
2016-May-23 20:33N 30°60' E 121°25'9219.3
2016-May-23 20:31N 31°08' E 121°28'221512.7
2016-May-23 20:30N 31°30' E 121°24'3746827.5
2016-May-23 20:27N 37°42' E 122°10'401453.7
2016-May-23 19:33N 31°02' E 121°29'43637339.6
2016-May-23 19:33N 24°25' E 118°05'434120082.7
2016-May-23 19:33N 31°00' E 121°27'2071311.5
2016-May-23 19:33N 31°19' E 121°34'1811079.5
2016-May-23 19:32N 31°01' E 121°29'72050.7
2016-May-23 19:32N 31°08' E 121°28'22362.6
2016-May-23 19:29N 31°30' E 121°24'9745.6
2016-May-23 19:28N 31°22' E 121°29'3270.1
2016-May-23 19:27N 31°21' E 121°33'358.4
2016-May-23 19:24N 31°22' E 121°30'38111916.4
2016-May-23 19:23N 37°41' E 122°14'35917448.6
2016-May-23 19:21N 31°56' E 120°14'3686968.2
2016-May-23 19:18N 38°04' E 120°17'36819177.2
2016-May-23 19:17N 31°57' E 120°52'3771929.4
2016-May-23 19:05N 38°12' E 119°57'438818.4
2016-May-23 18:33N 31°00' E 121°27'43455752.7
2016-May-23 18:33N 24°25' E 118°05'453163183.9
2016-May-23 18:33N 31°19' E 121°34'125551.2
2016-May-23 18:32N 31°08' E 121°28'141224.7
2016-May-23 18:32N 31°22' E 121°30'38019283.9
2016-May-23 18:31N 37°40' E 122°16'37314123.0
2016-May-23 18:29N 31°30' E 121°24'295.9
2016-May-23 18:28N 31°28' E 121°25'2830.9
2016-May-23 17:33N 31°00' E 121°27'434130089.6
2016-May-23 17:33N 24°25' E 118°05'45315842.9
2016-May-23 17:32N 31°19' E 121°34'121233.0
2016-May-23 17:31N 31°08' E 121°28'622611.4
2016-May-23 17:30N 32°01' E 120°48'433758.8
2016-May-23 17:29N 31°30' E 121°24'103949.9
2016-May-23 17:29N 31°22' E 121°30'112.2
2016-May-23 17:24N 31°22' E 121°29'302257.3
2016-May-23 17:23N 31°45' E 121°06'23417.2
2016-May-23 17:20N 31°28' E 121°25'481700.6
2016-May-23 17:18N 32°00' E 120°43'3472175.1
2016-May-23 17:09N 37°39' E 122°10'72123.3
2016-May-23 16:34N 38°46' E 121°35'44731535.7
2016-May-23 16:33N 31°19' E 121°34'65663844.1
2016-May-23 16:32N 23°04' E 113°30'658474082.7
2016-May-23 16:32N 31°30' E 121°24'196103.4
2016-May-23 16:32N 31°43' E 121°08'43233.5
2016-May-23 16:32N 31°41' E 121°11'425865.1
2016-May-23 16:31N 31°00' E 121°27'43450357.3
2016-May-23 16:31N 24°25' E 118°05'82042157.4
2016-May-23 16:30N 37°38' E 122°07'38512715.8
2016-May-23 16:28N 31°15' E 121°29'7116.2
2016-May-23 16:24N 31°08' E 121°28'44516178.5
2016-May-23 16:23N 24°24' E 117°57'46213988.3
2016-May-23 16:21N 31°28' E 121°25'402782.9
2016-May-23 16:20N 31°57' E 120°52'47357.6
2016-May-23 16:12N 31°22' E 121°29'112.9
2016-May-23 16:08N 31°22' E 121°30'40612092.9
2016-May-23 16:06N 38°04' E 120°17'388719.1
2016-May-23 15:33N 31°39' E 121°14'465418950.0
2016-May-23 15:33N 24°25' E 118°03'462237692.5
2016-May-23 15:33N 31°33' E 121°20'333146.8
2016-May-23 15:32N 31°00' E 121°27'643578640.7
2016-May-23 15:32N 22°54' E 113°35'661148716.4
2016-May-23 15:32N 31°19' E 121°34'11395.6
2016-May-23 15:30N 31°28' E 121°25'8366.4
2016-May-23 15:29N 31°22' E 121°30'512159.5
2016-May-23 15:28N 31°59' E 120°49'411857.5
2016-May-23 15:26N 31°30' E 121°24'9227.2
2016-May-23 15:24N 31°22' E 121°29'44989739.1
2016-May-23 15:24N 38°51' E 121°33'45119329.7
2016-May-23 15:22N 31°20' E 121°33'6565721.3
2016-May-23 15:15N 23°04' E 113°30'96675577.1
2016-May-23 15:14N 38°04' E 120°17'39819896.5
2016-May-23 15:13N 31°30' E 121°24'2944.3
2016-May-23 14:34N 31°00' E 121°27'3512693.5
2016-May-23 14:33N 31°35' E 121°19'463237863.4
2016-May-23 14:33N 24°25' E 118°05'45346624.0
2016-May-23 14:33N 31°19' E 121°34'31716.2
2016-May-23 14:33N 31°21' E 121°31'2581.2
2016-May-23 14:32N 31°22' E 121°29'1189.4
2016-May-23 14:32N 31°22' E 121°30'25465.8
2016-May-23 14:29N 31°41' E 121°11'255286.3
2016-May-23 14:28N 31°22' E 121°30'65632349.3
2016-May-23 14:27N 23°04' E 113°30'61227521.2
2016-May-23 14:26N 29°58' E 121°53'9510103.2
2016-May-23 14:25N 31°30' E 121°24'140.0
2016-May-23 14:24N 31°29' E 121°25'46611323.2
2016-May-23 14:21N 24°17' E 118°10'8343930.0
2016-May-23 14:08N 38°04' E 120°17'396670.2
2016-May-23 13:33N 31°32' E 121°23'317066.2
2016-May-23 13:33N 31°00' E 121°26'4341560918.2
2016-May-23 13:33N 24°25' E 118°05'39247089.8
2016-May-23 13:32N 29°56' E 122°03'916520.1
2016-May-23 13:31N 31°22' E 121°30'315.0
2016-May-23 13:19N 31°25' E 121°30'762295.2
2016-May-23 13:17N 31°56' E 120°09'702648.4
2016-May-23 13:16N 31°29' E 121°25'7301.2
2016-May-23 13:14N 31°25' E 121°31'229.8
2016-May-23 13:11N 31°24' E 121°31'9112.2
2016-May-23 13:06N 31°30' E 121°24'66846212.0
2016-May-23 13:05N 22°55' E 113°27'66537379.8
2016-May-23 13:04N 31°22' E 121°29'2242.4
2016-May-23 12:33N 31°00' E 121°26'79283377.8
2016-May-23 12:33N 29°50' E 122°07'10642343.0
2016-May-23 12:33N 31°29' E 121°25'45997266.1
2016-May-23 12:33N 24°25' E 118°05'26517325.4
2016-May-23 12:32N 23°04' E 113°30'65619502.7
2016-May-23 12:30N 31°22' E 121°29'1401.3
2016-May-23 12:30N 31°22' E 121°30'9551.0
2016-May-23 12:29N 31°30' E 121°24'6679604.9
2016-May-23 12:25N 22°54' E 113°30'664796759.9
2016-May-23 12:25N 31°21' E 121°31'2301.5
2016-May-23 12:24N 31°21' E 121°33'57517.2
2016-May-23 12:17N 32°01' E 120°45'20445.5
2016-May-23 12:15N 31°47' E 121°01'42576498.2
2016-May-23 12:14N 38°51' E 121°33'44140697.7
2016-May-23 12:14N 31°30' E 121°24'3043.9
2016-May-23 11:33N 31°00' E 121°26'43457811.8
2016-May-23 11:33N 24°25' E 118°05'465239208.7
2016-May-23 11:33N 31°41' E 121°11'151904.1
2016-May-23 11:32N 31°30' E 121°24'43587.4
2016-May-23 11:28N 32°00' E 120°48'527761.7
2016-May-23 11:27N 31°22' E 121°29'65681373.2
2016-May-23 11:27N 23°04' E 113°30'65884663.5
2016-May-23 11:27N 31°29' E 121°25'1134297.9
2016-May-23 11:25N 29°41' E 122°05'1145790.8
2016-May-23 11:24N 31°30' E 121°24'9569.0
2016-May-23 11:23N 31°22' E 121°30'14141.8
2016-May-23 11:17N 31°32' E 121°20'66132165.6
2016-May-23 11:16N 22°59' E 113°31'66547865.2
2016-May-23 11:15N 31°59' E 120°49'2130.3
2016-May-23 10:33N 31°44' E 121°07'4756533.8
2016-May-23 10:33N 31°00' E 121°26'434156091.8
2016-May-23 10:33N 24°25' E 118°05'46087085.4
2016-May-23 10:33N 31°30' E 121°24'142718.2
2016-May-23 10:33N 31°19' E 121°34'5479.5
2016-May-23 10:32N 31°22' E 121°29'1077235.2
2016-May-23 10:31N 29°41' E 122°07'1155848.2
2016-May-23 10:30N 31°30' E 121°24'92277.3
2016-May-23 10:30N 31°22' E 121°30'25747.5
2016-May-23 10:28N 31°41' E 121°11'169309.8
2016-May-23 10:28N 31°30' E 121°24'6593199.6
2016-May-23 10:15N 23°04' E 113°29'66110916.4
2016-May-23 10:12N 31°20' E 121°41'456708.9
2016-May-23 09:33N 24°25' E 118°05'454136203.9
2016-May-23 09:33N 31°21' E 121°31'4971789979.1
2016-May-23 09:33N 23°48' E 117°39'503113078.9
2016-May-23 09:33N 31°30' E 121°24'29106194.5
2016-May-23 09:33N 31°00' E 121°26'4431400.8
2016-May-23 09:32N 31°42' E 121°10'304177.8
2016-May-23 09:32N 31°19' E 121°34'13630.0
2016-May-23 09:31N 31°30' E 121°24'118093.8
2016-May-23 09:31N 31°23' E 121°35'10618168.5
2016-May-23 09:30N 29°41' E 122°07'1155543.5
2016-May-23 09:29N 31°30' E 121°24'9135.2
2016-May-23 09:25N 31°22' E 121°29'373.5
2016-May-23 09:22N 31°21' E 121°33'3104.7
2016-May-23 09:21N 31°22' E 121°30'66214621.0
2016-May-23 09:18N 22°56' E 113°30'66745279.9
2016-May-23 09:17N 31°46' E 121°06'59550.7
2016-May-23 09:11N 32°00' E 119°59'6387222.2
2016-May-23 09:05N 23°04' E 113°29'229427.0
2016-May-23 08:33N 23°43' E 117°35'504139573.8
2016-May-23 08:33N 31°21' E 121°32'1472.2
2016-May-23 08:33N 31°20' E 121°33'0106.2
2016-May-23 08:33N 31°21' E 121°33'2124982.4
2016-May-23 08:33N 31°00' E 121°26'654336191.1
2016-May-23 08:33N 22°20' E 114°04'677110820.0
2016-May-23 08:32N 31°39' E 121°13'33948.4
2016-May-23 08:30N 31°08' E 121°28'9428090.2
2016-May-23 08:30N 29°41' E 122°07'1157689.0
2016-May-23 08:29N 31°30' E 121°24'023.4
2016-May-23 08:28N 31°30' E 121°24'36515445.0
2016-May-23 08:27N 37°33' E 122°05'36536453.3
2016-May-23 08:26N 31°30' E 121°24'1011.1
2016-May-23 07:33N 31°22' E 121°30'810181.8
2016-May-23 07:33N 31°29' E 121°25'313072.5
2016-May-23 07:33N 30°59' E 121°20'4012145.9
2016-May-23 07:32N 31°39' E 121°13'405755.2
2016-May-23 07:32N 31°00' E 121°26'302271.2
2016-May-23 07:31N 31°30' E 121°24'14324.0
2016-May-23 07:29N 31°19' E 121°34'291959.9
2016-May-23 07:28N 31°41' E 121°11'271037.3
2016-May-23 07:26N 31°21' E 121°33'10437509.4
2016-May-23 07:26N 29°41' E 122°07'15121701.7
2016-May-23 07:26N 31°55' E 120°48'61995.4
2016-May-23 07:22N 30°58' E 121°13'336006.2
2016-May-23 07:22N 31°30' E 121°24'702969.2
2016-May-23 07:20N 31°57' E 120°08'83829.6
2016-May-23 07:14N 31°16' E 121°33'67120135.2
2016-May-23 07:12N 22°24' E 113°54'451077.5
2016-May-23 07:10N 23°04' E 113°29'6381053.8
2016-May-23 06:33N 31°00' E 121°26'434195117.3
2016-May-23 06:33N 24°25' E 118°05'434111606.5
2016-May-23 06:33N 31°01' E 121°27'4230370.8
2016-May-23 06:33N 31°41' E 121°11'1761118.1
2016-May-23 06:33N 31°28' E 121°25'153104.0
2016-May-23 06:32N 31°39' E 121°13'642764.0
2016-May-23 06:31N 31°59' E 120°01'89160999.7
2016-May-23 06:31N 30°58' E 121°18'88317546.4
2016-May-23 06:31N 29°41' E 122°07'1166400.4
2016-May-23 06:30N 31°30' E 121°24'141262.3
2016-May-23 06:29N 31°19' E 121°34'532023.6
2016-May-23 06:28N 31°55' E 120°48'658395082.7
2016-May-23 06:28N 23°04' E 113°30'65687465.7
2016-May-23 06:27N 31°22' E 121°30'498448076.5
2016-May-23 06:27N 39°05' E 117°46'5002485.2
2016-May-23 06:15N 31°21' E 121°33'19269.1
2016-May-23 06:11N 31°35' E 121°19'3906645.7
2016-May-23 06:07N 38°01' E 120°17'8231456.8
2016-May-23 05:33N 24°25' E 118°05'45322983.9
2016-May-23 05:32N 31°19' E 121°34'10361650.9
2016-May-23 05:32N 29°41' E 122°07'11610401.6
2016-May-23 05:32N 31°30' E 121°24'14939.9
2016-May-23 05:31N 31°40' E 121°13'4215008.5
2016-May-23 05:31N 30°60' E 121°24'2996.8
2016-May-23 05:30N 31°00' E 121°26'3111291.2
2016-May-23 05:30N 31°31' E 121°20'673.9
2016-May-23 05:26N 31°28' E 121°25'10273.4
2016-May-23 05:23N 31°20' E 121°33'454543.8
2016-May-23 04:33N 24°25' E 118°05'460127292.9
2016-May-23 04:33N 31°30' E 121°24'486102987.8
2016-May-23 04:33N 39°04' E 117°50'515142630.4
2016-May-23 04:33N 31°00' E 121°26'876364.6
2016-May-23 04:32N 31°57' E 120°09'8212326.2
2016-May-23 04:31N 31°16' E 121°33'9729193.3
2016-May-23 04:31N 29°42' E 122°04'101180933.4
2016-May-23 04:31N 31°19' E 121°34'2714024.6
2016-May-23 04:31N 31°40' E 121°13'35943.1
2016-May-23 04:29N 31°08' E 121°28'7401.6
2016-May-23 04:28N 31°01' E 121°29'271065.5
2016-May-23 04:26N 31°28' E 121°25'17238.5
2016-May-23 04:22N 31°41' E 121°11'1561.1
2016-May-23 04:07N 31°30' E 121°24'5261.1
2016-May-23 04:06N 31°34' E 121°20'3462.7
2016-May-23 03:33N 31°00' E 121°26'304649.9
2016-May-23 03:33N 31°30' E 121°24'460827327.4
2016-May-23 03:33N 24°25' E 118°05'45933755.4
2016-May-23 03:32N 31°30' E 121°24'2310.1
2016-May-23 03:32N 31°28' E 121°25'162369.8
2016-May-23 03:31N 31°40' E 121°13'12113598.3
2016-May-23 03:31N 29°48' E 122°05'818849.8
2016-May-23 03:30N 31°03' E 121°29'411778.8
2016-May-23 03:29N 31°41' E 121°11'251358.7
2016-May-23 03:28N 31°22' E 121°30'1 8.9
2016-May-23 03:22N 31°21' E 121°31'1162.7
2016-May-23 03:12N 31°30' E 121°24'13330.2
2016-May-23 03:09N 31°20' E 121°33'2034.3
2016-May-23 02:34N 31°00' E 121°26'3773.3
2016-May-23 02:33N 31°03' E 121°29'189293.3
2016-May-23 02:33N 31°21' E 121°32'45465362.5
2016-May-23 02:33N 24°25' E 118°05'45349449.7
2016-May-23 02:32N 31°19' E 121°34'2017570.1
2016-May-23 02:32N 31°01' E 121°27'428046.9
2016-May-23 02:32N 31°41' E 121°11'296.9
2016-May-23 02:31N 31°40' E 121°13'2328067.2
2016-May-23 02:31N 31°22' E 121°30'66127046.2
2016-May-23 02:29N 22°55' E 113°34'664477875.0
2016-May-23 02:29N 31°30' E 121°24'1045967.1
2016-May-23 02:28N 29°53' E 122°08'1042519.2
2016-May-23 02:26N 31°30' E 121°24'762924.4
2016-May-23 02:24N 31°58' E 120°02'1480.8
2016-May-23 02:14N 31°58' E 120°18'467693.4
2016-May-23 01:33N 24°25' E 118°05'460330928.4
2016-May-23 01:33N 31°30' E 121°24'98047.4
2016-May-23 01:33N 31°24' E 121°31'2818.3
2016-May-23 01:33N 31°23' E 121°34'237621.9
2016-May-23 01:33N 31°00' E 121°26'7316346.3
2016-May-23 01:33N 29°55' E 122°03'7429568.1
2016-May-23 01:32N 31°03' E 121°29'52827565.7
2016-May-23 01:31N 23°17' E 116°47'55586910.7
2016-May-23 01:31N 31°40' E 121°13'22001.7
2016-May-23 01:31N 31°41' E 121°11'660182749.7
2016-May-23 01:31N 23°04' E 113°29'65914475.7
2016-May-23 01:28N 31°25' E 121°31'82555.3
2016-May-23 01:28N 31°30' E 121°24'229.3
2016-May-23 01:24N 31°28' E 121°25'7294.9
2016-May-23 01:22N 31°23' E 121°30'8525430.2
2016-May-23 01:22N 31°60' E 120°00'85306605.6
2016-May-23 01:22N 31°22' E 121°30'3266.6
2016-May-23 01:22N 31°21' E 121°33'70432.9
2016-May-23 01:12N 31°58' E 120°23'65111714.8
2016-May-23 01:09N 22°59' E 113°33'64221009.1
2016-May-23 01:07N 31°57' E 120°07'71127.4
2016-May-23 00:33N 31°30' E 121°24'2749257.2
2016-May-23 00:33N 31°03' E 121°29'53079464.0
2016-May-23 00:33N 23°20' E 116°38'55068337.9
2016-May-23 00:32N 31°28' E 121°25'2211126.2
2016-May-23 00:32N 31°16' E 121°04'251368.0
2016-May-23 00:31N 31°40' E 121°13'235600.2
2016-May-23 00:31N 31°22' E 121°30'3850.1
2016-May-23 00:31N 31°21' E 121°33'62109.5
2016-May-23 00:30N 31°26' E 121°29'31242.9
2016-May-23 00:30N 31°28' E 121°26'945553.3
2016-May-23 00:29N 29°57' E 121°56'886897.7
2016-May-23 00:28N 31°23' E 121°30'455545985.2
2016-May-23 00:28N 24°25' E 118°05'460137886.8
2016-May-23 00:28N 31°30' E 121°24'15274.2
2016-May-23 00:25N 31°41' E 121°11'66015734.5
2016-May-23 00:22N 23°04' E 113°29'626.4
2016-May-23 00:08N 22°59' E 113°33'6401097.4
2016-May-22 23:33N 31°00' E 121°26'43430606.6
2016-May-22 23:33N 24°25' E 118°05'460110409.4
2016-May-22 23:32N 31°32' E 121°21'11505.0
2016-May-22 23:31N 31°40' E 121°13'2417088.4
2016-May-22 23:31N 31°17' E 121°07'254734.1
2016-May-22 23:31N 31°22' E 121°36'2010538.3
2016-May-22 23:31N 31°03' E 121°29'351005.5
2016-May-22 23:28N 31°36' E 121°16'9301.5
2016-May-22 23:27N 31°30' E 121°24'010.7
2016-May-22 23:26N 31°30' E 121°24'10145.8
2016-May-22 23:22N 31°22' E 121°30'25836.7
2016-May-22 23:20N 31°41' E 121°11'27375.3
2016-May-22 23:16N 31°21' E 121°33'783121.0
2016-May-22 23:14N 31°57' E 120°11'692103.3
2016-May-22 23:12N 31°28' E 121°25'6 9.1
2016-May-22 22:33N 31°32' E 121°20'3036145.1
2016-May-22 22:33N 31°03' E 121°29'4371571757.7
2016-May-22 22:33N 24°25' E 118°05'454204250.7
2016-May-22 22:33N 31°21' E 121°31'112378.1
2016-May-22 22:33N 31°30' E 121°24'2107.3
2016-May-22 22:32N 31°28' E 121°25'162103.8
2016-May-22 22:31N 31°40' E 121°13'274.9
2016-May-22 22:30N 31°41' E 121°11'5211699.5
2016-May-22 22:30N 31°57' E 120°13'66558.8
2016-May-22 22:23N 31°30' E 121°24'14672.7
2016-May-22 22:21N 31°22' E 121°37'662.0
2016-May-22 22:16N 31°22' E 121°30'6588909.5
2016-May-22 22:11N 22°59' E 113°33'64813881.0
2016-May-22 22:08N 31°58' E 120°18'82141.1
2016-May-22 21:34N 31°00' E 121°26'3238415.6
2016-May-22 21:33N 31°32' E 121°20'135114.2
2016-May-22 21:33N 31°22' E 121°30'455327512.4
2016-May-22 21:33N 24°25' E 118°05'46419000.6
2016-May-22 21:32N 31°57' E 120°09'69247480.6
2016-May-22 21:32N 31°30' E 121°24'272592.7
2016-May-22 21:31N 31°03' E 121°29'192451.3
2016-May-22 21:31N 31°22' E 121°30'65828901.6
2016-May-22 21:29N 22°59' E 113°33'66299348.3
2016-May-22 21:29N 31°41' E 121°11'2146.2
2016-May-22 21:28N 31°40' E 121°13'14757.0
2016-May-22 21:27N 31°30' E 121°24'223.7
2016-May-22 21:22N 31°28' E 121°25'10223.3
2016-May-22 21:19N 31°21' E 121°33'7318844.4
2016-May-22 21:19N 31°59' E 120°19'75326.1
2016-May-22 21:05N 31°19' E 121°34'1732.7
2016-May-22 20:33N 31°32' E 121°20'460828207.1
2016-May-22 20:33N 24°25' E 118°05'466558883.0
2016-May-22 20:33N 31°41' E 121°11'292961.7
2016-May-22 20:33N 31°19' E 121°34'65959266.0
2016-May-22 20:32N 22°59' E 113°33'66346778.1
2016-May-22 20:31N 31°40' E 121°13'4202.5
2016-May-22 20:30N 31°42' E 121°08'18719.2
2016-May-22 20:28N 31°30' E 121°24'017.7
2016-May-22 20:28N 31°30' E 121°24'102646.5
2016-May-22 20:28N 31°22' E 121°30'8450.2
2016-May-22 20:27N 31°28' E 121°25'1074.1
2016-May-22 20:19N 31°21' E 121°33'797257.3
2016-May-22 20:18N 31°57' E 120°11'6419690.3
2016-May-22 20:14N 23°04' E 113°29'6424327.5
2016-May-22 20:05N 31°04' E 121°29'4 6.7
2016-May-22 19:33N 31°00' E 121°26'305932.8
2016-May-22 19:33N 31°30' E 121°24'314231.1
2016-May-22 19:32N 30°59' E 121°24'3358801.2
2016-May-22 19:32N 31°32' E 121°20'660118828.3
2016-May-22 19:32N 22°59' E 113°33'65931608.3
2016-May-22 19:31N 31°19' E 121°34'453148349.0
2016-May-22 19:31N 24°25' E 118°05'46082717.6
2016-May-22 19:30N 31°30' E 121°24'137.0
2016-May-22 19:29N 31°29' E 121°25'15758.9
2016-May-22 19:27N 31°40' E 121°13'23157.6
2016-May-22 19:19N 31°22' E 121°30'3229.5
2016-May-22 19:18N 31°21' E 121°33'55754.6
2016-May-22 19:14N 32°01' E 120°48'3623894.3
2016-May-22 19:08N 38°02' E 120°18'408709.2
2016-May-22 18:33N 31°19' E 121°34'1720700.8
2016-May-22 18:33N 31°32' E 121°20'3461057.1
2016-May-22 18:33N 30°58' E 121°18'8542.2
2016-May-22 18:33N 31°00' E 121°26'412614.9
2016-May-22 18:32N 31°40' E 121°13'38523925.5
2016-May-22 18:31N 38°02' E 120°11'824989003.3
2016-May-22 18:31N 24°25' E 118°05'46050143.3
2016-May-22 18:30N 31°30' E 121°24'0469.6
2016-May-22 18:30N 31°30' E 121°24'66134984.3
2016-May-22 18:29N 22°59' E 113°33'661340018.1
2016-May-22 18:29N 31°30' E 121°25'9498.5
2016-May-22 18:28N 31°22' E 121°30'18894.1
2016-May-22 18:26N 31°03' E 121°28'1778.4
2016-May-22 18:13N 31°21' E 121°33'2131.5
2016-May-22 17:34N 31°00' E 121°26'3210480.8
2016-May-22 17:33N 31°32' E 121°20'297563.0
2016-May-22 17:33N 31°03' E 121°28'43798348.3
2016-May-22 17:33N 24°25' E 118°05'46031219.9
2016-May-22 17:32N 31°30' E 121°24'143063.6
2016-May-22 17:32N 31°40' E 121°13'231240.9
2016-May-22 17:31N 31°22' E 121°30'4589.8
2016-May-22 17:30N 31°19' E 121°34'65928561.9
2016-May-22 17:29N 22°59' E 113°33'66158022.8
2016-May-22 17:28N 31°30' E 121°24'659169357.1
2016-May-22 17:28N 23°04' E 113°29'65421389.9
2016-May-22 17:26N 31°16' E 121°33'61448.7
2016-May-22 17:18N 32°01' E 120°44'3622588.1
2016-May-22 17:09N 38°02' E 120°11'39716227.3
2016-May-22 17:08N 31°30' E 121°25'2950.6
2016-May-22 16:33N 31°00' E 121°26'434104062.5
2016-May-22 16:33N 24°25' E 118°05'46027120.7
2016-May-22 16:32N 31°30' E 121°24'1412172.6
2016-May-22 16:32N 31°19' E 121°34'271535.2
2016-May-22 16:31N 31°40' E 121°13'262904.2
2016-May-22 16:31N 31°21' E 121°33'4535.5
2016-May-22 16:30N 31°22' E 121°38'408112890.2
2016-May-22 16:30N 38°04' E 120°17'97049876.6
2016-May-22 16:29N 22°59' E 113°33'65657556.3
2016-May-22 16:28N 31°16' E 121°33'660339204.2
2016-May-22 16:28N 23°02' E 113°21'662158952.8
2016-May-22 16:28N 31°22' E 121°30'5251.6
2016-May-22 16:27N 31°18' E 121°33'14193.5
2016-May-22 16:22N 31°30' E 121°24'1 9.5
2016-May-22 16:15N 31°30' E 121°25'39710423.3
2016-May-22 16:12N 38°02' E 120°11'96269255.1
2016-May-22 16:12N 23°04' E 113°29'6426583.8
2016-May-22 16:06N 31°04' E 121°29'2037.8
2016-May-22 15:34N 31°24' E 121°32'45229.7
2016-May-22 15:33N 31°19' E 121°34'1715525.6
2016-May-22 15:33N 31°32' E 121°20'5551.7
2016-May-22 15:33N 31°30' E 121°25'460236333.1
2016-May-22 15:33N 24°25' E 118°05'43497558.6
2016-May-22 15:32N 31°00' E 121°26'64134964.3
2016-May-22 15:31N 23°04' E 113°25'644210922.6
2016-May-22 15:31N 31°04' E 121°29'394683.2
2016-May-22 15:31N 31°40' E 121°13'24685.6
2016-May-22 15:29N 31°23' E 121°33'662264605.2
2016-May-22 15:28N 22°59' E 113°33'6624585.1
2016-May-22 15:20N 31°37' E 121°17'6607973.2
2016-May-22 15:15N 23°04' E 113°29'66044832.0
2016-May-22 15:14N 31°41' E 121°11'66539924.7
2016-May-22 15:13N 23°02' E 113°22'662148949.6
2016-May-22 15:13N 31°20' E 121°33'13793.1
2016-May-22 15:12N 31°30' E 121°24'3988371.1
2016-May-22 15:09N 38°04' E 120°17'40816318.0
2016-May-22 15:07N 31°21' E 121°33'40729865.9
2016-May-22 15:06N 38°02' E 120°11'396720.6
2016-May-22 14:34N 31°30' E 121°24'30106366.8
2016-May-22 14:33N 31°00' E 121°26'339844.1
2016-May-22 14:33N 31°33' E 121°20'1193.4
2016-May-22 14:33N 31°32' E 121°20'460165643.4
2016-May-22 14:33N 24°25' E 118°05'456164236.6
2016-May-22 14:33N 31°24' E 121°31'660594232.6
2016-May-22 14:33N 23°04' E 113°25'5826.1
2016-May-22 14:32N 23°03' E 113°30'660113196.8
2016-May-22 14:32N 31°41' E 121°11'162020.9
2016-May-22 14:31N 31°29' E 121°25'6611190038.9
2016-May-22 14:31N 22°59' E 113°33'661108137.7
2016-May-22 14:31N 31°26' E 121°29'203936.3
2016-May-22 14:31N 31°40' E 121°13'268431.7
2016-May-22 14:31N 31°21' E 121°33'40834153.6
2016-May-22 14:30N 38°04' E 120°17'4127522.7
2016-May-22 14:27N 31°18' E 121°43'655278.2
2016-May-22 14:26N 32°01' E 120°47'44534.2
2016-May-22 14:21N 31°30' E 121°24'27178.9
2016-May-22 14:12N 31°04' E 121°28'70110.2
2016-May-22 13:34N 29°58' E 121°58'392470662.9
2016-May-22 13:33N 24°25' E 118°05'460552138.0
2016-May-22 13:33N 31°32' E 121°20'121602.0
2016-May-22 13:33N 31°41' E 121°11'2910362.7
2016-May-22 13:33N 31°19' E 121°34'202464.3
2016-May-22 13:32N 31°00' E 121°26'293069.6
2016-May-22 13:32N 31°29' E 121°25'2925994.4
2016-May-22 13:32N 31°01' E 121°27'64196172.3
2016-May-22 13:31N 22°59' E 113°33'65950467.4
2016-May-22 13:31N 31°21' E 121°33'12956.0
2016-May-22 13:30N 31°30' E 121°24'010.4
2016-May-22 13:29N 31°30' E 121°24'39812128.5
2016-May-22 13:27N 38°04' E 120°18'40430317.6
2016-May-22 13:26N 31°24' E 121°32'3471.4
2016-May-22 13:26N 31°22' E 121°30'11781.1
2016-May-22 13:25N 31°31' E 121°22'6583369.9
2016-May-22 13:13N 23°04' E 113°29'10301854713.3
2016-May-22 13:13N 38°46' E 121°36'434657.6
2016-May-22 12:33N 31°32' E 121°20'108129599.9
2016-May-22 12:33N 29°52' E 122°08'95171756.2
2016-May-22 12:33N 31°22' E 121°30'2225952.5
2016-May-22 12:33N 31°00' E 121°26'417801.7
2016-May-22 12:33N 31°40' E 121°13'387173957.6
2016-May-22 12:33N 38°04' E 120°18'40786156.6
2016-May-22 12:33N 31°22' E 121°36'4571644319.9
2016-May-22 12:33N 24°25' E 118°05'46631623.4
2016-May-22 12:32N 31°40' E 121°13'66372293.4
2016-May-22 12:31N 22°59' E 113°33'66137777.1
2016-May-22 12:30N 31°29' E 121°25'3364.8
2016-May-22 12:30N 31°31' E 121°23'2326.8
2016-May-22 12:29N 31°30' E 121°24'10770.1
2016-May-22 12:29N 31°37' E 121°16'10117.7
2016-May-22 12:24N 31°30' E 121°24'44011737.3
2016-May-22 12:21N 38°50' E 121°33'4113963.1
2016-May-22 12:15N 32°01' E 120°47'4158.6
2016-May-22 11:33N 31°32' E 121°20'3212805.2
2016-May-22 11:33N 31°00' E 121°26'467140176.8
2016-May-22 11:33N 38°48' E 121°35'43856300.2
2016-May-22 11:33N 31°30' E 121°24'4601654271.8
2016-May-22 11:33N 24°25' E 118°05'45474282.5
2016-May-22 11:32N 31°21' E 121°31'241761.0
2016-May-22 11:31N 31°40' E 121°13'66316800.6
2016-May-22 11:29N 22°59' E 113°33'658124749.1
2016-May-22 11:29N 31°21' E 121°31'117718.0
2016-May-22 11:29N 31°30' E 121°24'156097.2
2016-May-22 11:29N 31°41' E 121°11'261683.5
2016-May-22 11:28N 31°59' E 120°49'5715670.1
2016-May-22 11:27N 31°21' E 121°38'668343699.9
2016-May-22 11:27N 22°54' E 113°30'66768590.6
2016-May-22 11:27N 31°29' E 121°25'6595452.9
2016-May-22 11:19N 23°04' E 113°29'6591185562.1
2016-May-22 11:19N 31°31' E 121°23'39364321.4
2016-May-22 11:19N 37°60' E 120°11'50653626.3
2016-May-22 11:18N 29°42' E 122°04'50916519.3
2016-May-22 11:17N 38°03' E 120°18'427594.6
2016-May-22 10:34N 31°00' E 121°26'238291.1
2016-May-22 10:33N 31°23' E 121°30'1322505.6
2016-May-22 10:33N 31°32' E 121°20'437174835.0
2016-May-22 10:33N 38°49' E 121°36'42832809.5
2016-May-22 10:32N 31°41' E 121°11'152285.8
2016-May-22 10:32N 31°30' E 121°24'675242962.7
2016-May-22 10:32N 22°18' E 114°08'675142905.8
2016-May-22 10:32N 31°30' E 121°24'1416617.6
2016-May-22 10:31N 31°40' E 121°13'358296.2
2016-May-22 10:31N 31°08' E 121°28'64711360.3
2016-May-22 10:28N 22°59' E 113°33'659169447.4
2016-May-22 10:28N 31°21' E 121°33'65724126.1
2016-May-22 10:26N 23°04' E 113°29'610219720.3
2016-May-22 10:26N 29°41' E 122°07'1563347.0
2016-May-22 10:23N 32°01' E 120°48'543562.5
2016-May-22 10:22N 31°21' E 121°31'1092.0
2016-May-22 10:16N 31°29' E 121°25'1014.2
2016-May-22 09:33N 31°36' E 121°16'37132669.0
2016-May-22 09:33N 31°00' E 121°26'43497558.6
2016-May-22 09:33N 24°25' E 118°05'45044986.1
2016-May-22 09:33N 31°16' E 121°33'319372.3
2016-May-22 09:32N 31°41' E 121°11'154570.3
2016-May-22 09:32N 31°30' E 121°24'1449188.4
2016-May-22 09:32N 31°40' E 121°13'66391773.7
2016-May-22 09:32N 22°59' E 113°33'66244950.3
2016-May-22 09:31N 31°39' E 121°13'1265057.1
2016-May-22 09:29N 29°41' E 122°05'998504.0
2016-May-22 09:29N 31°17' E 121°34'168076.3
2016-May-22 09:29N 31°30' E 121°24'659263440.5
2016-May-22 09:28N 23°04' E 113°29'645165795.7
2016-May-22 09:28N 31°08' E 121°28'131276.9
2016-May-22 09:28N 31°21' E 121°31'67222810.7
2016-May-22 09:26N 22°18' E 114°08'997597970.0
2016-May-22 09:26N 38°02' E 120°18'39714727.3
2016-May-22 09:24N 31°29' E 121°25'442750.1
2016-May-22 09:23N 32°00' E 120°49'41555.5
2016-May-22 09:19N 31°31' E 121°23'251620.5
2016-May-22 09:18N 31°10' E 121°07'623524.5
2016-May-22 09:17N 31°58' E 120°21'73748.6
2016-May-22 09:11N 30°58' E 121°09'66671.8
2016-May-22 09:05N 32°01' E 120°47'70132.4
2016-May-22 08:33N 31°00' E 121°26'43455746.4
2016-May-22 08:33N 24°25' E 118°05'46649313.2
2016-May-22 08:32N 31°41' E 121°11'2920738.4
2016-May-22 08:32N 31°19' E 121°34'121607.0
2016-May-22 08:32N 31°29' E 121°25'661198368.2
2016-May-22 08:32N 22°59' E 113°33'663795349.7
2016-May-22 08:32N 31°40' E 121°13'434671.9
2016-May-22 08:31N 30°58' E 121°17'4413149.9
2016-May-22 08:31N 31°41' E 121°10'122859.5
2016-May-22 08:31N 31°31' E 121°18'252459.8
2016-May-22 08:30N 31°08' E 121°28'51079846.6
2016-May-22 08:30N 39°05' E 117°46'60158518.2
2016-May-22 08:29N 29°42' E 122°04'616369898.8
2016-May-22 08:29N 22°18' E 114°08'99263741.2
2016-May-22 08:28N 37°59' E 120°11'39320516.7
2016-May-22 08:27N 31°30' E 121°24'39618761.0
2016-May-22 08:26N 38°02' E 120°18'39614408.3
2016-May-22 08:24N 31°30' E 121°24'16339.8
2016-May-22 08:21N 31°16' E 121°33'61199.2
2016-May-22 08:21N 31°21' E 121°31'65732844.5
2016-May-22 08:20N 23°02' E 113°30'6596899.7
2016-May-22 08:14N 31°31' E 121°23'659980.0
2016-May-22 07:34N 23°05' E 113°27'639287620.2
2016-May-22 07:33N 31°00' E 121°26'84578.0
2016-May-22 07:33N 30°58' E 121°18'428771104.8
2016-May-22 07:33N 24°25' E 118°05'46650808.3
2016-May-22 07:33N 31°41' E 121°11'4721699059.8
2016-May-22 07:33N 39°04' E 117°51'481216387.3
2016-May-22 07:33N 31°34' E 121°19'390107900.7
2016-May-22 07:32N 37°60' E 120°11'423762214.3
2016-May-22 07:32N 31°01' E 121°27'7935378.5
2016-May-22 07:32N 29°50' E 122°06'9433801.9
2016-May-22 07:32N 31°19' E 121°34'6561181543.9
2016-May-22 07:32N 23°04' E 113°29'660158476.6
2016-May-22 07:32N 31°40' E 121°13'3013384.8
2016-May-22 07:32N 31°16' E 121°33'161497.1
2016-May-22 07:31N 31°30' E 121°24'11412.6
2016-May-22 07:31N 31°29' E 121°25'312060.4
2016-May-22 07:30N 30°59' E 121°21'461738.1
2016-May-22 07:28N 31°43' E 121°06'365365.5
2016-May-22 07:28N 31°16' E 121°33'16431.3
2016-May-22 07:26N 31°30' E 121°24'12171.9
2016-May-22 07:22N 31°21' E 121°33'38860658.5
2016-May-22 07:21N 37°48' E 121°26'38722106.5
2016-May-22 07:20N 31°21' E 121°31'235409.3
2016-May-22 07:20N 31°38' E 121°14'326788.6
2016-May-22 07:20N 32°01' E 120°47'3621681.1
2016-May-22 07:07N 38°03' E 120°17'408738.4
2016-May-22 06:34N 31°19' E 121°34'8845243.8
2016-May-22 06:33N 29°55' E 122°02'39129360.9
2016-May-22 06:33N 24°25' E 118°05'46029545.3
2016-May-22 06:32N 31°30' E 121°25'666159865.3
2016-May-22 06:31N 23°03' E 113°18'66491916.9
2016-May-22 06:31N 31°19' E 121°34'21935.6
2016-May-22 06:30N 30°60' E 121°25'4029112.3
2016-May-22 06:30N 31°39' E 121°13'406555.6
2016-May-22 06:29N 31°01' E 121°27'3935153.9
2016-May-22 06:29N 31°38' E 121°14'2410.0
2016-May-22 06:29N 31°40' E 121°13'30626.3
2016-May-22 06:26N 31°16' E 121°33'653138387.5
2016-May-22 06:26N 23°04' E 113°29'6562362679.7
2016-May-22 06:26N 31°21' E 121°31'11972.3
2016-May-22 06:25N 31°30' E 121°24'39689176.4
2016-May-22 06:25N 38°03' E 120°17'36715715.7
2016-May-22 06:23N 31°57' E 120°52'8436.8
2016-May-22 06:22N 32°00' E 120°44'466868.7
2016-May-22 06:22N 31°30' E 121°24'209202.4
2016-May-22 06:22N 31°43' E 121°06'192387.9
2016-May-22 06:21N 31°31' E 121°22'591546.6
2016-May-22 06:19N 31°58' E 120°21'802311.6
2016-May-22 06:17N 31°00' E 121°26'51725498.6
2016-May-22 06:16N 39°05' E 117°45'5056284.8
2016-May-22 06:11N 31°16' E 121°33'0 0.0
2016-May-22 05:33N 31°16' E 121°33'451162208.4
2016-May-22 05:33N 24°25' E 118°04'46051778.0
2016-May-22 05:33N 31°30' E 121°25'2631758.8
2016-May-22 05:33N 31°03' E 121°29'514616661.9
2016-May-22 05:33N 39°04' E 117°48'486102917.1
2016-May-22 05:32N 31°31' E 121°22'151594.4
2016-May-22 05:32N 31°19' E 121°34'3410058.1
2016-May-22 05:32N 31°43' E 121°06'814533.3
2016-May-22 05:32N 31°39' E 121°14'2404.1
2016-May-22 05:31N 31°40' E 121°13'3868627.0
2016-May-22 05:31N 31°04' E 121°28'12166.3
2016-May-22 05:27N 31°16' E 121°33'6177.6
2016-May-22 05:25N 31°21' E 121°31'40673127.5
2016-May-22 05:25N 38°03' E 120°18'3667209.1
2016-May-22 05:22N 31°57' E 120°09'869145.8
2016-May-22 05:21N 31°00' E 121°26'30346.0
2016-May-22 05:16N 31°30' E 121°24'6 8.3
2016-May-22 04:33N 31°34' E 121°19'463277759.7
2016-May-22 04:33N 24°25' E 118°04'45460535.5
2016-May-22 04:33N 31°19' E 121°34'40911070.7
2016-May-22 04:31N 38°04' E 120°18'38620138.2
2016-May-22 04:29N 31°40' E 121°13'124006.5
2016-May-22 04:29N 31°31' E 121°22'362.6
2016-May-22 04:27N 31°29' E 121°25'292909.1
2016-May-22 04:26N 31°00' E 121°26'303341.5
2016-May-22 04:26N 31°30' E 121°24'112582.5
2016-May-22 04:25N 31°38' E 121°14'221231.9
2016-May-22 04:24N 31°21' E 121°31'661.0
2016-May-22 04:19N 31°16' E 121°33'4082879.1
2016-May-22 04:10N 37°58' E 120°11'4154058.9
2016-May-22 04:04N 31°08' E 121°28'405981.4
2016-May-22 04:04N 31°43' E 121°06'4691.7
2016-May-22 03:34N 31°00' E 121°26'434223366.7
2016-May-22 03:33N 24°25' E 118°04'46630520.4
2016-May-22 03:32N 31°40' E 121°13'269480.3
2016-May-22 03:32N 31°20' E 121°33'71535.7
2016-May-22 03:32N 31°14' E 121°30'312884.1
2016-May-22 03:31N 31°41' E 121°11'297975.0
2016-May-22 03:31N 31°19' E 121°34'6306.0
2016-May-22 03:30N 31°15' E 121°29'161416.1
2016-May-22 03:29N 31°30' E 121°24'39813264.1
2016-May-22 03:28N 38°04' E 120°17'3984857.6
2016-May-22 03:23N 31°30' E 121°24'9341.8
2016-May-22 03:21N 31°37' E 121°17'1197.8
2016-May-22 03:14N 31°29' E 121°27'21326.6
2016-May-22 03:10N 31°08' E 121°28'41642745.8
2016-May-22 03:10N 37°59' E 120°11'959119054.4
2016-May-22 03:09N 23°04' E 113°29'65913871.5
2016-May-22 03:06N 31°29' E 121°25'1323.1
2016-May-22 02:33N 31°19' E 121°34'2917276.6
2016-May-22 02:33N 31°41' E 121°11'466419796.0
2016-May-22 02:33N 24°25' E 118°04'45891620.2
2016-May-22 02:33N 31°23' E 121°35'162198.0
2016-May-22 02:33N 31°32' E 121°19'12603.7
2016-May-22 02:31N 31°26' E 121°30'9541.3
2016-May-22 02:30N 31°17' E 121°34'41239075.4
2016-May-22 02:30N 38°05' E 120°17'12910123.4
2016-May-22 02:29N 39°04' E 117°50'486583407.3
2016-May-22 02:29N 31°30' E 121°24'142136.5
2016-May-22 02:29N 31°40' E 121°13'15232.9
2016-May-22 02:25N 31°29' E 121°25'1 8.0
2016-May-22 02:17N 31°30' E 121°24'132517.0
2016-May-22 02:17N 31°19' E 121°33'40523521.0
2016-May-22 02:16N 37°59' E 120°10'4013023.9
2016-May-22 02:08N 31°24' E 121°31'2341.0
2016-May-22 01:33N 31°00' E 121°26'292899.0
2016-May-22 01:33N 31°29' E 121°25'14259.3
2016-May-22 01:33N 31°30' E 121°24'460331444.8
2016-May-22 01:33N 24°25' E 118°04'459826251.9
2016-May-22 01:33N 31°26' E 121°30'51131.0
2016-May-22 01:32N 31°22' E 121°30'2898.5
2016-May-22 01:32N 31°21' E 121°32'40358079.1
2016-May-22 01:32N 37°58' E 120°11'38180782.6
2016-May-22 01:32N 31°40' E 121°13'10461.1
2016-May-22 01:30N 31°32' E 121°19'39639627.6
2016-May-22 01:30N 38°05' E 120°17'40822238.3
2016-May-22 01:29N 31°22' E 121°36'11586.7
2016-May-22 01:28N 31°28' E 121°25'2219.7
2016-May-22 01:27N 31°30' E 121°24'101069.3
2016-May-22 01:26N 31°21' E 121°31'043.0
2016-May-22 01:26N 31°21' E 121°31'12484.8
2016-May-22 01:25N 31°18' E 121°44'19200.7
2016-May-22 01:19N 31°05' E 121°28'78730.1
2016-May-22 01:13N 31°58' E 120°21'76951.0
2016-May-22 01:08N 31°08' E 121°28'442770.0
2016-May-22 00:33N 24°25' E 118°04'45586194.2
2016-May-22 00:33N 31°22' E 121°30'211984.2
2016-May-22 00:32N 31°00' E 121°26'3219134.8
2016-May-22 00:32N 31°32' E 121°19'132849.1
2016-May-22 00:32N 31°22' E 121°30'2175945.9
2016-May-22 00:32N 31°01' E 121°28'247780.2
2016-May-22 00:32N 31°24' E 121°31'227209.2
2016-May-22 00:32N 31°40' E 121°13'142373.9
2016-May-22 00:31N 31°30' E 121°24'65910680.2
2016-May-22 00:28N 23°04' E 113°29'9583448774.8
2016-May-22 00:28N 37°57' E 120°11'4018809.0
2016-May-22 00:25N 31°21' E 121°31'11325.3
2016-May-22 00:23N 31°30' E 121°24'39718093.0
2016-May-22 00:22N 38°03' E 120°17'99717602.7
2016-May-22 00:18N 22°18' E 114°08'67163614.0
2016-May-22 00:18N 31°22' E 121°30'14142.8
2016-May-22 00:12N 31°08' E 121°28'22583.1
2016-May-22 00:10N 31°29' E 121°25'14134.6
2016-May-22 00:03N 31°21' E 121°38'457910.7
2016-May-21 23:33N 24°25' E 118°04'434260597.7
2016-May-21 23:33N 31°00' E 121°26'2428528.4
2016-May-21 23:33N 31°24' E 121°32'95451.3
2016-May-21 23:33N 31°30' E 121°24'1119502.3
2016-May-21 23:33N 31°23' E 121°34'61179.3
2016-May-21 23:33N 31°18' E 121°34'154110.7
2016-May-21 23:33N 31°30' E 121°24'2533.9
2016-May-21 23:32N 31°29' E 121°25'151637.8
2016-May-21 23:32N 31°40' E 121°13'157609.7
2016-May-21 23:32N 31°29' E 121°25'221175.1
2016-May-21 23:31N 31°08' E 121°28'660103240.4
2016-May-21 23:30N 22°18' E 114°08'67237203.1
2016-May-21 23:29N 31°22' E 121°30'772492.6
2016-May-21 23:27N 31°57' E 120°09'78383.7
2016-May-21 23:15N 31°21' E 121°31'4085315.5
2016-May-21 23:10N 38°04' E 120°18'4275198.1
2016-May-21 23:06N 31°01' E 121°27'1323.9
2016-May-21 22:33N 31°13' E 121°30'154266.1
2016-May-21 22:33N 31°28' E 121°26'459827086.7
2016-May-21 22:33N 24°25' E 118°04'460331440.7
2016-May-21 22:33N 31°30' E 121°24'58998.8
2016-May-21 22:33N 31°33' E 121°19'3310892.8
2016-May-21 22:33N 31°00' E 121°26'1425907.4
2016-May-21 22:33N 31°08' E 121°12'131645.2
2016-May-21 22:32N 31°08' E 121°28'133820.7
2016-May-21 22:32N 31°20' E 121°33'361.8
2016-May-21 22:29N 31°21' E 121°31'5373.8
2016-May-21 22:29N 31°22' E 121°36'4154.4
2016-May-21 22:27N 31°19' E 121°34'271196.2
2016-May-21 22:26N 31°40' E 121°13'231235.5
2016-May-21 22:25N 31°22' E 121°30'41991.0
2016-May-21 22:25N 31°19' E 121°34'4091216.7
2016-May-21 22:04N 38°04' E 120°18'39941065.1
2016-May-21 22:04N 31°28' E 121°25'611.5
2016-May-21 21:33N 31°32' E 121°20'2631443.9
2016-May-21 21:33N 31°08' E 121°10'1629012.1
2016-May-21 21:33N 31°00' E 121°26'434781783.2
2016-May-21 21:33N 24°25' E 118°04'442227148.2
2016-May-21 21:33N 31°08' E 121°28'203858.5
2016-May-21 21:33N 31°28' E 121°25'2453.1
2016-May-21 21:33N 31°30' E 121°24'103436.2
2016-May-21 21:32N 31°22' E 121°30'232548.9
2016-May-21 21:32N 31°40' E 121°13'255208.8
2016-May-21 21:32N 31°21' E 121°31'153525.9
2016-May-21 21:31N 31°07' E 121°28'342461.3
2016-May-21 21:31N 31°39' E 121°14'131178.2
2016-May-21 21:30N 31°29' E 121°25'12928.0
2016-May-21 21:29N 31°19' E 121°34'131009.8
2016-May-21 21:28N 31°30' E 121°24'11196.2
2016-May-21 21:25N 31°21' E 121°31'455528.5
2016-May-21 20:33N 24°25' E 118°04'458823616.0
2016-May-21 20:33N 31°23' E 121°34'1619103.2
2016-May-21 20:33N 31°08' E 121°28'81060.3
2016-May-21 20:33N 31°00' E 121°26'394203.4
2016-May-21 20:32N 31°38' E 121°15'245458.1
2016-May-21 20:32N 31°19' E 121°34'2719548.5
2016-May-21 20:32N 31°40' E 121°13'3643629.6
2016-May-21 20:32N 31°04' E 121°10'631206618.0
2016-May-21 20:32N 23°04' E 113°29'6569564.7
2016-May-21 20:28N 31°22' E 121°30'91563.6
2016-May-21 20:27N 31°29' E 121°25'1136.7
2016-May-21 20:27N 31°30' E 121°24'16517.2
2016-May-21 20:25N 31°16' E 121°33'361444.6
2016-May-21 20:24N 31°43' E 121°07'20306.3
2016-May-21 20:20N 31°30' E 121°24'691379.3
2016-May-21 20:17N 31°57' E 120°09'786506.6
2016-May-21 20:16N 31°21' E 121°31'6564250.5
2016-May-21 20:07N 23°03' E 113°30'6391156.5
2016-May-21 19:34N 31°00' E 121°26'639191725.3
2016-May-21 19:33N 23°05' E 113°27'645165956.6
2016-May-21 19:33N 31°08' E 121°28'442530012.4
2016-May-21 19:33N 24°25' E 118°04'451180229.4
2016-May-21 19:33N 31°16' E 121°33'3229063.9
2016-May-21 19:33N 31°41' E 121°10'301193.3
2016-May-21 19:31N 31°19' E 121°34'3294.6
2016-May-21 19:31N 31°21' E 121°31'241597.8
2016-May-21 19:30N 31°40' E 121°13'815213.0
2016-May-21 19:30N 31°44' E 121°05'382606.8
2016-May-21 19:29N 31°16' E 121°33'161132.3
2016-May-21 19:28N 31°30' E 121°24'2418.6
2016-May-21 19:28N 31°28' E 121°25'69022388.5
2016-May-21 19:26N 22°09' E 113°52'69130704.0
2016-May-21 19:25N 31°30' E 121°24'13318.0
2016-May-21 19:22N 31°19' E 121°34'31868.5
2016-May-21 19:22N 31°21' E 121°31'1155.4
2016-May-21 19:22N 31°22' E 121°30'9159.9
2016-May-21 19:18N 31°29' E 121°25'2228.8
2016-May-21 18:33N 31°08' E 121°28'31112916.9
2016-May-21 18:33N 31°38' E 121°16'3827562.0
2016-May-21 18:33N 31°00' E 121°26'434104237.8
2016-May-21 18:33N 24°25' E 118°04'46023015.4
2016-May-21 18:32N 31°30' E 121°24'1738.0
2016-May-21 18:32N 31°29' E 121°25'13430.5
2016-May-21 18:30N 31°19' E 121°34'14692.0
2016-May-21 18:29N 31°30' E 121°24'16146.6
2016-May-21 18:22N 31°16' E 121°33'680.6
2016-May-21 18:18N 31°21' E 121°31'6104.5
2016-May-21 18:15N 31°16' E 121°33'6260.7
2016-May-21 18:13N 31°21' E 121°31'113.0
2016-May-21 18:09N 31°22' E 121°30'312627.2
2016-May-21 18:09N 31°44' E 121°05'1 7.2
2016-May-21 18:04N 31°45' E 121°04'351799.7
2016-May-21 18:03N 31°19' E 121°33'1632.5
2016-May-21 17:33N 31°32' E 121°22'3212767.7
2016-May-21 17:33N 31°00' E 121°26'83060.7
2016-May-21 17:33N 31°08' E 121°28'661339901.5
2016-May-21 17:33N 22°27' E 113°53'25954870.9
2016-May-21 17:33N 24°25' E 118°04'45121068.1
2016-May-21 17:31N 31°16' E 121°33'396720.9
2016-May-21 17:31N 31°46' E 121°03'3440654.4
2016-May-21 17:31N 31°21' E 121°31'827794.6
2016-May-21 17:30N 31°58' E 120°04'5272.0
2016-May-21 17:29N 31°57' E 120°09'77981.5
2016-May-21 17:25N 31°22' E 121°30'969.3
2016-May-21 17:17N 31°30' E 121°25'23981.2
2016-May-21 17:15N 31°44' E 121°05'201106.5
2016-May-21 17:14N 31°59' E 120°49'417099.3
2016-May-21 17:14N 31°30' E 121°24'13156.4
2016-May-21 17:09N 31°19' E 121°33'0 6.0
2016-May-21 17:06N 31°19' E 121°34'2036.6
2016-May-21 16:33N 31°00' E 121°26'434173729.6
2016-May-21 16:33N 24°25' E 118°04'459330290.4
2016-May-21 16:33N 31°26' E 121°30'187243.0
2016-May-21 16:33N 31°08' E 121°28'22860.5
2016-May-21 16:32N 31°30' E 121°24'0 3.0
2016-May-21 16:29N 31°30' E 121°24'10154.6
2016-May-21 16:25N 31°22' E 121°30'4211.3
2016-May-21 16:24N 31°19' E 121°34'1373.3
2016-May-21 16:14N 31°30' E 121°25'703090.5
2016-May-21 16:12N 31°57' E 120°09'465718.7
2016-May-21 15:33N 24°25' E 118°04'44245429.6
2016-May-21 15:33N 31°08' E 121°28'165335.2
2016-May-21 15:33N 31°21' E 121°39'233229.8
2016-May-21 15:32N 31°00' E 121°26'302959.8
2016-May-21 15:32N 31°30' E 121°24'11259.6
2016-May-21 15:29N 31°38' E 121°15'113186.0
2016-May-21 15:29N 31°30' E 121°24'16262.4
2016-May-21 15:25N 31°16' E 121°33'4384.9
2016-May-21 15:25N 31°19' E 121°34'4109287.4
2016-May-21 15:22N 38°05' E 120°17'39959813.3
2016-May-21 15:22N 31°30' E 121°24'224006.7
2016-May-21 15:21N 31°44' E 121°05'236338.7
2016-May-21 15:21N 31°30' E 121°25'921635.6
2016-May-21 15:18N 30°07' E 122°13'1514015.7
2016-May-21 15:15N 31°57' E 120°13'4193542.3
2016-May-21 15:08N 38°51' E 121°33'8841521.0
2016-May-21 14:33N 24°25' E 118°04'462831174.0
2016-May-21 14:33N 31°33' E 121°21'3223345.4
2016-May-21 14:33N 31°00' E 121°26'832736.2
2016-May-21 14:32N 31°57' E 120°15'72130173.3
2016-May-21 14:32N 31°22' E 121°30'40639484.3
2016-May-21 14:31N 38°04' E 120°18'381105545.0
2016-May-21 14:31N 31°44' E 121°05'311413.9
2016-May-21 14:29N 31°22' E 121°30'10715.3
2016-May-21 14:29N 31°30' E 121°24'015.8
2016-May-21 14:28N 31°30' E 121°24'986386.0
2016-May-21 14:27N 30°04' E 122°17'52819393.9
2016-May-21 14:25N 38°51' E 121°32'45167707.2
2016-May-21 14:25N 31°19' E 121°34'13561.9
2016-May-21 14:24N 31°30' E 121°25'22885.7
2016-May-21 14:22N 31°08' E 121°28'1069.9
2016-May-21 14:14N 31°17' E 121°34'16319.7
2016-May-21 14:11N 31°30' E 121°24'1 1.3
2016-May-21 13:34N 31°29' E 121°25'2934817.2
2016-May-21 13:33N 31°00' E 121°26'470845816.9
2016-May-21 13:33N 38°50' E 121°33'7654608.0
2016-May-21 13:33N 37°58' E 120°23'82282162.5
2016-May-21 13:33N 24°25' E 118°04'46012458.3
2016-May-21 13:31N 31°30' E 121°24'13948.6
2016-May-21 13:30N 31°19' E 121°34'3478.2
2016-May-21 13:29N 31°21' E 121°31'11263.5
2016-May-21 13:27N 31°30' E 121°24'65945601.1
2016-May-21 13:26N 23°04' E 113°29'6484409.0
2016-May-21 13:17N 31°60' E 120°20'701068.3
2016-May-21 13:13N 31°22' E 121°30'976.5
2016-May-21 13:06N 31°30' E 121°24'2954.0
2016-May-21 12:33N 31°00' E 121°26'43460137.2
2016-May-21 12:33N 24°25' E 118°04'81743247.4
2016-May-21 12:32N 37°52' E 120°31'481433029.3
2016-May-21 12:32N 29°57' E 122°01'61849411.2
2016-May-21 12:31N 23°00' E 113°31'961115323.4
2016-May-21 12:31N 37°57' E 120°11'39264154.7
2016-May-21 12:30N 31°30' E 121°24'126.9
2016-May-21 12:28N 31°29' E 121°25'23368.4
2016-May-21 12:24N 31°44' E 121°05'67723893.3
2016-May-21 12:22N 22°18' E 114°08'67218743.7
2016-May-21 12:20N 31°21' E 121°31'131.7
2016-May-21 12:18N 31°22' E 121°30'4485664.7
2016-May-21 12:13N 38°50' E 121°33'4405871.9
2016-May-21 12:09N 31°30' E 121°24'379638.4
2016-May-21 11:33N 37°47' E 120°39'409490369.4
2016-May-21 11:33N 31°00' E 121°26'434142142.4
2016-May-21 11:33N 24°25' E 118°04'39146964.7
2016-May-21 11:33N 29°51' E 122°07'1069072.7
2016-May-21 11:32N 31°30' E 121°24'223177.9
2016-May-21 11:31N 31°08' E 121°28'22753.2
2016-May-21 11:30N 31°29' E 121°25'153.4
2016-May-21 11:28N 31°30' E 121°24'39226130.5
2016-May-21 11:28N 37°57' E 120°11'39226158.6
2016-May-21 11:27N 31°30' E 121°24'22298.3
2016-May-21 11:22N 31°44' E 121°05'32769.0
2016-May-21 11:20N 31°21' E 121°31'16155.7
2016-May-21 11:14N 31°18' E 121°12'45557.5
2016-May-21 11:09N 31°59' E 120°49'521748.7
2016-May-21 11:07N 31°23' E 121°34'67515470.7
2016-May-21 11:04N 22°18' E 114°08'6531271.2
2016-May-21 10:33N 31°00' E 121°26'434223366.6
2016-May-21 10:33N 24°25' E 118°04'468112224.8
2016-May-21 10:33N 31°44' E 121°05'3118582.9
2016-May-21 10:33N 31°22' E 121°30'38777410.6
2016-May-21 10:33N 37°47' E 120°39'7424076.8
2016-May-21 10:32N 38°47' E 121°33'43474454.4
2016-May-21 10:32N 31°33' E 121°20'4227.8
2016-May-21 10:31N 31°30' E 121°24'11310714.1
2016-May-21 10:30N 29°42' E 122°04'61716687.5
2016-May-21 10:28N 22°18' E 114°08'672161179.6
2016-May-21 10:28N 31°21' E 121°31'521196.6
2016-May-21 10:25N 31°59' E 120°49'512446.4
2016-May-21 10:24N 31°22' E 121°30'9233.8
2016-May-21 10:22N 31°29' E 121°25'22436.1
2016-May-21 10:19N 31°08' E 121°28'41499417.9
2016-May-21 10:19N 37°57' E 120°11'8201092.3
2016-May-21 09:34N 24°25' E 118°04'442318007.5
2016-May-21 09:33N 31°08' E 121°28'40240173.7
2016-May-21 09:33N 37°48' E 120°39'372102985.8
2016-May-21 09:33N 31°37' E 121°16'254441.7
2016-May-21 09:32N 31°21' E 121°38'825696.5
2016-May-21 09:31N 31°57' E 120°11'16785814.5
2016-May-21 09:31N 29°42' E 122°05'10623939.0
2016-May-21 09:31N 31°17' E 121°09'182722.7
2016-May-21 09:31N 31°30' E 121°24'14498.3
2016-May-21 09:29N 31°40' E 121°13'152670.8
2016-May-21 09:29N 31°29' E 121°25'67565634.1
2016-May-21 09:28N 22°18' E 114°08'675151888.0
2016-May-21 09:28N 31°29' E 121°25'23211.9
2016-May-21 09:21N 31°44' E 121°05'38783.3
2016-May-21 09:18N 31°21' E 121°39'857.6
2016-May-21 09:10N 31°22' E 121°30'49815440.2
2016-May-21 09:08N 39°05' E 117°46'4515839.9
2016-May-21 09:04N 31°59' E 120°49'4488.5
2016-May-21 08:34N 31°16' E 121°04'397158782.0
2016-May-21 08:33N 37°52' E 120°31'817367748.6
2016-May-21 08:33N 24°25' E 118°04'477343147.1
2016-May-21 08:33N 31°59' E 120°49'5130809.8
2016-May-21 08:33N 31°24' E 121°33'2442654.8
2016-May-21 08:33N 31°00' E 121°26'795093.0
2016-May-21 08:32N 29°49' E 122°05'982114.4
2016-May-21 08:29N 31°22' E 121°30'233369.8
2016-May-21 08:29N 31°40' E 121°13'272233.7
2016-May-21 08:28N 31°19' E 121°34'1311906.9
2016-May-21 08:28N 31°30' E 121°24'645267.6
2016-May-21 08:27N 31°57' E 120°16'481588.0
2016-May-21 08:26N 31°42' E 121°09'18261.2
2016-May-21 08:21N 31°29' E 121°25'144.9
2016-May-21 08:20N 31°30' E 121°24'39224757.9
2016-May-21 08:19N 37°57' E 120°11'3768294.0
2016-May-21 08:16N 31°44' E 121°05'42864.4
2016-May-21 08:13N 31°08' E 121°28'16179.4
2016-May-21 08:08N 31°23' E 121°34'3151.1
2016-May-21 08:07N 31°21' E 121°31'52910453.9
2016-May-21 08:04N 22°37' E 120°15'5071005.3
2016-May-21 07:33N 31°00' E 121°26'420755783.5
2016-May-21 07:33N 37°57' E 120°25'401722523.9
2016-May-21 07:33N 31°20' E 121°33'528172814.6
2016-May-21 07:33N 22°37' E 120°10'4501619190.7
2016-May-21 07:33N 29°55' E 122°05'39442939.0
2016-May-21 07:33N 24°25' E 118°04'43170481.0
2016-May-21 07:32N 30°59' E 121°21'2710644.8
2016-May-21 07:32N 31°23' E 121°34'405728494.6
2016-May-21 07:32N 38°02' E 120°12'38532973.5
2016-May-21 07:31N 31°40' E 121°13'3517857.1
2016-May-21 07:31N 31°08' E 121°28'223530.1
2016-May-21 07:31N 31°29' E 121°25'13543.2
2016-May-21 07:29N 31°19' E 121°34'445.1
2016-May-21 07:24N 31°22' E 121°30'974.1
2016-May-21 07:17N 31°29' E 121°24'1065.9
2016-May-21 07:07N 31°21' E 121°31'1323.9
2016-May-21 06:34N 31°08' E 121°28'1222204.8
2016-May-21 06:34N 31°19' E 121°34'2014280.8
2016-May-21 06:33N 31°00' E 121°26'4843063.5
2016-May-21 06:33N 31°44' E 121°05'46873191.0
2016-May-21 06:33N 24°25' E 118°04'82680367.5
2016-May-21 06:32N 38°03' E 120°19'492147594.7
2016-May-21 06:32N 29°57' E 121°53'684352.7
2016-May-21 06:31N 31°01' E 121°26'293063.2
2016-May-21 06:31N 31°29' E 121°24'135.5
2016-May-21 06:30N 31°30' E 121°24'142.7
2016-May-21 06:29N 31°29' E 121°25'101652.0
2016-May-21 06:28N 31°21' E 121°31'1314.7
2016-May-21 05:33N 31°08' E 121°28'1211102.4
2016-May-21 05:33N 31°19' E 121°34'202303.4
2016-May-21 05:33N 31°00' E 121°26'644178423.5
2016-May-21 05:32N 22°53' E 113°34'26428800.0
2016-May-21 05:32N 24°25' E 118°04'45928460.0
2016-May-21 05:31N 31°24' E 121°34'43569.6
2016-May-21 05:31N 31°22' E 121°30'313643.6
2016-May-21 05:30N 31°44' E 121°05'223614.3
2016-May-21 05:30N 31°29' E 121°23'3987393.1
2016-May-21 05:27N 38°04' E 120°19'3988387.7
2016-May-21 05:24N 31°30' E 121°25'438192.5
2016-May-21 05:24N 31°60' E 120°48'5223187.7
2016-May-21 05:23N 31°22' E 121°30'4984163.2
2016-May-21 05:16N 39°05' E 117°44'500700.9
2016-May-21 04:33N 31°21' E 121°31'4551637238.7
2016-May-21 04:33N 24°25' E 118°04'442122312.1
2016-May-21 04:33N 31°08' E 121°28'85509.3
2016-May-21 04:33N 31°00' E 121°26'51551466.7
2016-May-21 04:33N 39°04' E 117°51'49418735.4
2016-May-21 04:31N 31°24' E 121°34'662170239.8
2016-May-21 04:31N 23°00' E 113°31'65838842.5
2016-May-21 04:30N 31°22' E 121°30'491.4
2016-May-21 04:27N 31°19' E 121°34'13736.4
2016-May-21 04:26N 31°29' E 121°23'169.5
2016-May-21 04:25N 31°30' E 121°25'151534.1
2016-May-21 04:24N 31°16' E 121°33'29327.4
2016-May-21 04:19N 31°39' E 121°13'9497.2
2016-May-21 04:18N 31°44' E 121°05'19448167.2
2016-May-21 04:04N 00°02' E 114°10'14812935.9
2016-May-21 03:33N 24°25' E 118°04'442159005.7
2016-May-21 03:33N 31°08' E 121°28'1914688870.8
2016-May-21 03:33N 00°02' E 114°10'13841245806.4
2016-May-21 03:33N 23°05' E 113°28'967165766.7
2016-May-21 03:33N 38°05' E 120°19'39917324.6
2016-May-21 03:31N 31°29' E 121°23'102159.8
2016-May-21 03:31N 31°24' E 121°34'281178.8
2016-May-21 03:30N 31°42' E 121°09'181118.8
2016-May-21 03:29N 31°30' E 121°25'1166.1
2016-May-21 03:28N 31°30' E 121°24'13204.9
2016-May-21 03:25N 31°19' E 121°34'311588.2
2016-May-21 03:23N 31°42' E 121°09'3413463.8
2016-May-21 03:23N 31°16' E 121°33'7130.5
2016-May-21 03:20N 31°22' E 121°30'31595.3
2016-May-21 03:17N 31°44' E 121°05'29246.8
2016-May-21 03:10N 31°25' E 121°31'11387.0
2016-May-21 03:08N 31°15' E 121°29'49700.5
2016-May-21 03:04N 31°52' E 120°53'7852.2
2016-May-21 03:04N 31°59' E 120°49'477952.2
2016-May-21 02:34N 24°25' E 118°04'434781793.1
2016-May-21 02:33N 31°00' E 121°26'1906343060.6
2016-May-21 02:33N 00°02' E 114°10'19402328408.5
2016-May-21 02:33N 31°38' E 121°15'112753.6
2016-May-21 02:33N 31°30' E 121°24'489103527.1
2016-May-21 02:33N 39°05' E 117°45'592177520.2
2016-May-21 02:32N 29°57' E 122°16'10420701.2
2016-May-21 02:32N 31°30' E 121°24'1794.7
2016-May-21 02:32N 31°30' E 121°25'38977720.3
2016-May-21 02:32N 37°54' E 120°13'378680893.4
2016-May-21 02:32N 31°39' E 121°14'243.8
2016-May-21 02:30N 31°39' E 121°13'341170.8
2016-May-21 02:28N 31°08' E 121°28'14622.7
2016-May-21 02:26N 31°22' E 121°30'65678768.1
2016-May-21 02:26N 23°06' E 113°27'6572363770.3
2016-May-21 02:26N 31°19' E 121°34'54514850.0
2016-May-21 02:24N 23°25' E 116°33'55523770.9
2016-May-21 02:22N 31°44' E 121°05'38310074.6
2016-May-21 02:20N 38°06' E 120°19'4151975.0
2016-May-21 02:07N 31°16' E 121°33'2238.9
2016-May-21 01:33N 31°34' E 121°19'3462062.7
2016-May-21 01:33N 31°00' E 121°26'7554029.2
2016-May-21 01:33N 29°56' E 122°11'496178387.6
2016-May-21 01:33N 23°21' E 116°37'534213703.4
2016-May-21 01:33N 31°08' E 121°28'1211097.4
2016-May-21 01:33N 31°19' E 121°34'1412217.4
2016-May-21 01:33N 31°30' E 121°24'460552240.2
2016-May-21 01:33N 24°25' E 118°04'463185223.2
2016-May-21 01:33N 31°35' E 121°19'65932522.6
2016-May-21 01:31N 23°06' E 113°27'65959310.9
2016-May-21 01:31N 31°29' E 121°25'443611.6
2016-May-21 01:30N 32°00' E 120°48'5012868.2
2016-May-21 01:30N 31°25' E 121°30'1931182925.1
2016-May-21 01:29N 00°02' E 114°10'2311693303.8
2016-May-21 01:29N 38°06' E 120°19'4095019.7
2016-May-21 01:24N 31°22' E 121°30'69537918.7
2016-May-21 01:23N 22°04' E 113°46'1007129521.6
2016-May-21 01:23N 37°54' E 120°13'39567733.3
2016-May-21 01:22N 31°24' E 121°34'23149.1
2016-May-21 01:13N 31°40' E 121°14'1291692.3
2016-May-21 01:08N 29°46' E 122°24'396682.6
2016-May-21 00:34N 24°25' E 118°04'460236472.3
2016-May-21 00:33N 31°29' E 121°25'698502605.1
2016-May-21 00:33N 22°04' E 113°46'698251311.1
2016-May-21 00:33N 31°31' E 121°22'1654.4
2016-May-21 00:33N 31°31' E 121°24'550152294.5
2016-May-21 00:33N 23°21' E 116°44'489440180.9
2016-May-21 00:33N 29°58' E 122°04'8613411.1
2016-May-21 00:32N 31°19' E 121°34'3518169.2
2016-May-21 00:32N 31°44' E 121°05'4843068.5
2016-May-21 00:32N 31°00' E 121°26'30106359.5
2016-May-21 00:32N 31°30' E 121°24'659139459.4
2016-May-21 00:32N 23°06' E 113°27'1385415366.3
2016-May-21 00:32N 00°02' E 114°10'191440285.1
2016-May-21 00:29N 31°08' E 121°28'221765.5
2016-May-21 00:28N 31°29' E 121°25'1513331.2
2016-May-21 00:28N 31°17' E 121°34'40137007.7
2016-May-21 00:27N 37°52' E 120°13'39359015.4
2016-May-21 00:27N 31°24' E 121°34'10376.9
2016-May-21 00:25N 31°30' E 121°25'101014.8
2016-May-21 00:25N 31°21' E 121°31'24892.5
2016-May-21 00:23N 31°40' E 121°14'3652314.7
2016-May-21 00:14N 37°44' E 121°43'988101588.0
2016-May-21 00:13N 22°55' E 113°26'648979.6
2016-May-20 23:34N 31°00' E 121°26'208925.5
2016-May-20 23:33N 31°19' E 121°34'4541634499.5
2016-May-20 23:33N 24°25' E 118°04'462415544.4
2016-May-20 23:33N 31°33' E 121°19'64092.5
2016-May-20 23:33N 31°29' E 121°25'910983.6
2016-May-20 23:33N 31°22' E 121°30'93097.2
2016-May-20 23:33N 31°30' E 121°24'5501979748.7
2016-May-20 23:33N 23°17' E 116°49'555399548.4
2016-May-20 23:33N 31°40' E 121°14'1323609.0
2016-May-20 23:33N 31°30' E 121°24'698251343.0
2016-May-20 23:33N 22°04' E 113°46'10261231418.1
2016-May-20 23:33N 37°44' E 121°40'97645627.3
2016-May-20 23:31N 23°06' E 113°27'975501195.1
2016-May-20 23:31N 37°42' E 121°41'38022089.5
2016-May-20 23:30N 31°22' E 121°30'314179.3
2016-May-20 23:30N 31°44' E 121°05'231274.6
2016-May-20 23:29N 31°29' E 121°25'102243.9
2016-May-20 23:28N 31°21' E 121°31'11330.6
2016-May-20 23:26N 31°30' E 121°25'1934158256.5
2016-May-20 23:26N 00°02' E 114°10'229813089.1
2016-May-20 23:15N 37°54' E 120°13'99634487.1
2016-May-20 23:13N 22°16' E 113°43'272408.2
2016-May-20 22:34N 24°25' E 118°04'468420848.0
2016-May-20 22:33N 31°44' E 121°05'4857424.7
2016-May-20 22:33N 31°00' E 121°26'2921134.1
2016-May-20 22:33N 31°30' E 121°24'1934696219.9
2016-May-20 22:33N 00°02' E 114°10'1322595009.7
2016-May-20 22:33N 22°04' E 113°46'695208414.3
2016-May-20 22:33N 31°22' E 121°29'9856.9
2016-May-20 22:32N 31°30' E 121°24'6931248201.3
2016-May-20 22:32N 22°13' E 113°40'542365.4
2016-May-20 22:31N 23°06' E 113°27'63083933.4
2016-May-20 22:30N 29°57' E 122°20'10417785.5
2016-May-20 22:30N 31°29' E 121°25'92137.4
2016-May-20 22:30N 31°22' E 121°30'11010.2
2016-May-20 22:30N 31°21' E 121°31'131308.4
2016-May-20 22:29N 31°08' E 121°28'224853.9
2016-May-20 22:29N 31°29' E 121°25'14410.8
2016-May-20 22:27N 31°39' E 121°13'29305.7
2016-May-20 22:21N 31°16' E 121°33'74267.0
2016-May-20 22:04N 32°01' E 120°24'72140.1
2016-May-20 21:33N 31°19' E 121°34'206491.3
2016-May-20 21:33N 31°00' E 121°26'7947550.4
2016-May-20 21:33N 29°53' E 122°14'10625332.9
2016-May-20 21:33N 31°29' E 121°25'1266.9
2016-May-20 21:33N 31°30' E 121°24'698139672.0
2016-May-20 21:32N 22°04' E 113°46'27690261.7
2016-May-20 21:32N 24°25' E 118°04'460138072.2
2016-May-20 21:32N 31°30' E 121°24'932560.9
2016-May-20 21:32N 31°22' E 121°29'221192.0
2016-May-20 21:31N 31°39' E 121°13'231209.9
2016-May-20 21:30N 31°22' E 121°30'96806.8
2016-May-20 21:30N 31°30' E 121°24'112.7
2016-May-20 21:27N 31°29' E 121°25'120.0
2016-May-20 21:23N 31°29' E 121°26'711882.5
2016-May-20 21:21N 31°57' E 120°09'781145.5
2016-May-20 21:17N 31°21' E 121°31'711166.5
2016-May-20 21:13N 31°58' E 120°20'3664700.5
2016-May-20 21:09N 38°04' E 120°19'3665336.8
2016-May-20 21:04N 31°58' E 120°04'3873.9
2016-May-20 20:34N 31°59' E 120°49'701841528.7
2016-May-20 20:33N 22°11' E 113°39'647332963.3
2016-May-20 20:33N 29°50' E 122°07'648116689.1
2016-May-20 20:33N 22°04' E 113°46'677608865.3
2016-May-20 20:33N 31°00' E 121°26'83443.3
2016-May-20 20:33N 31°08' E 121°28'420100704.8
2016-May-20 20:33N 38°04' E 120°19'40942076.6
2016-May-20 20:32N 31°19' E 121°34'13575.5
2016-May-20 20:31N 31°30' E 121°25'46044775.7
2016-May-20 20:30N 24°25' E 118°04'460236686.6
2016-May-20 20:30N 31°29' E 121°25'1957.8
2016-May-20 20:30N 31°30' E 121°24'659296479.6
2016-May-20 20:30N 23°06' E 113°27'65946493.2
2016-May-20 20:29N 31°29' E 121°25'101328.2
2016-May-20 20:28N 31°21' E 121°31'11558.0
2016-May-20 20:27N 31°30' E 121°24'63113365.7
2016-May-20 20:27N 31°57' E 120°17'25754.1
2016-May-20 20:25N 32°01' E 120°46'452799.2
2016-May-20 20:24N 31°30' E 121°24'14702.1
2016-May-20 20:23N 31°18' E 121°33'28267.9
2016-May-20 20:17N 31°39' E 121°13'23250.8
2016-May-20 20:11N 31°22' E 121°30'7625024.2
2016-May-20 20:11N 31°57' E 120°10'3577178.0
2016-May-20 20:08N 37°41' E 122°05'373637.9
2016-May-20 19:33N 31°30' E 121°24'1452061.5
2016-May-20 19:33N 31°18' E 121°33'9631512.0
2016-May-20 19:33N 29°45' E 122°03'385692584.2
2016-May-20 19:33N 24°25' E 118°04'434195445.8
2016-May-20 19:33N 31°00' E 121°26'411896.3
2016-May-20 19:32N 31°39' E 121°13'221898.8
2016-May-20 19:31N 31°22' E 121°29'693623311.4
2016-May-20 19:31N 22°11' E 113°39'693415809.8
2016-May-20 19:31N 31°19' E 121°34'11842.7
2016-May-20 19:30N 31°28' E 121°25'2036772.7
2016-May-20 19:30N 31°08' E 121°28'793220.1
2016-May-20 19:28N 31°57' E 120°15'643257175.7
2016-May-20 19:28N 23°05' E 113°27'65937069.3
2016-May-20 19:27N 31°29' E 121°25'698314245.5
2016-May-20 19:27N 22°04' E 113°46'685205504.0
2016-May-20 19:27N 31°56' E 120°13'32634.1
2016-May-20 19:24N 31°59' E 120°51'417712.1
2016-May-20 19:23N 31°30' E 121°24'9416.0
2016-May-20 19:22N 31°22' E 121°30'9317.2
2016-May-20 19:20N 31°29' E 121°25'374122380.4
2016-May-20 19:20N 37°42' E 122°02'3873373.3
2016-May-20 19:13N 31°16' E 121°33'4125209.7
2016-May-20 19:09N 38°04' E 120°19'3706471.6
2016-May-20 19:05N 31°54' E 120°53'5093.4
2016-May-20 18:33N 31°19' E 121°34'8118183.1
2016-May-20 18:33N 31°56' E 120°09'7110587.1
2016-May-20 18:33N 31°28' E 121°25'2911498.5
2016-May-20 18:33N 30°60' E 121°24'22647.0
2016-May-20 18:32N 31°00' E 121°26'8718349.8
2016-May-20 18:32N 29°40' E 122°03'11421693.1
2016-May-20 18:32N 31°29' E 121°25'9629.9
2016-May-20 18:31N 31°22' E 121°30'455546066.2
2016-May-20 18:31N 24°25' E 118°04'827595564.8
2016-May-20 18:31N 38°04' E 120°19'393235660.2
2016-May-20 18:31N 31°34' E 121°19'67587.2
2016-May-20 18:31N 31°30' E 121°24'4011896.9
2016-May-20 18:31N 31°58' E 120°51'393281.3
2016-May-20 18:30N 31°30' E 121°24'141371.8
2016-May-20 18:29N 31°18' E 121°33'121355.7
2016-May-20 18:29N 31°28' E 121°25'698157079.6
2016-May-20 18:28N 22°08' E 113°39'68498454.9
2016-May-20 18:28N 31°08' E 121°28'645122232.2
2016-May-20 18:28N 23°05' E 113°27'95429090.3
2016-May-20 18:26N 37°52' E 120°13'40233641.3
2016-May-20 18:25N 31°16' E 121°33'7527133.3
2016-May-20 18:25N 32°00' E 120°21'69123025.8
2016-May-20 18:23N 22°08' E 113°41'102978780.3
2016-May-20 18:22N 37°42' E 121°58'3823204.1
2016-May-20 18:15N 31°21' E 121°31'4493383.7
2016-May-20 18:07N 38°50' E 121°34'451804.4
2016-May-20 17:33N 31°19' E 121°34'2011900.6
2016-May-20 17:33N 31°00' E 121°26'43444673.9
2016-May-20 17:33N 24°25' E 118°04'442530019.1
2016-May-20 17:33N 31°08' E 121°28'62110884.7
2016-May-20 17:33N 31°60' E 120°48'1923298.4
2016-May-20 17:33N 32°03' E 120°26'7083545.4
2016-May-20 17:33N 31°21' E 121°31'38259754.8
2016-May-20 17:32N 37°42' E 122°02'7251654.9
2016-May-20 17:32N 38°50' E 121°33'441793604.7
2016-May-20 17:32N 31°30' E 121°25'81063.1
2016-May-20 17:32N 31°22' E 121°29'6140.4
2016-May-20 17:29N 31°18' E 121°33'69251889.3
2016-May-20 17:28N 22°11' E 113°39'1014104324.3
2016-May-20 17:28N 38°05' E 120°19'40750520.7
2016-May-20 17:27N 31°22' E 121°30'7115.4
2016-May-20 17:24N 31°16' E 121°33'16555.6
2016-May-20 17:22N 31°30' E 121°24'257.9
2016-May-20 17:20N 31°28' E 121°25'1131838.1
2016-May-20 17:16N 29°40' E 122°03'881809.2
2016-May-20 17:13N 31°03' E 121°29'27648.7
2016-May-20 17:11N 31°30' E 121°24'231760.3
2016-May-20 17:10N 31°46' E 121°04'51916841.9
2016-May-20 17:08N 23°41' E 117°35'485834.5
2016-May-20 16:33N 31°00' E 121°26'207933.8
2016-May-20 16:33N 31°19' E 121°34'326416.8
2016-May-20 16:33N 31°43' E 121°08'660158356.1
2016-May-20 16:33N 23°05' E 113°27'23435088.9
2016-May-20 16:32N 23°45' E 117°38'42773188.4
2016-May-20 16:32N 29°40' E 122°03'10998130.5
2016-May-20 16:32N 31°25' E 121°30'8621.9
2016-May-20 16:31N 31°30' E 121°24'460110456.0
2016-May-20 16:31N 24°25' E 118°04'459236195.1
2016-May-20 16:31N 31°28' E 121°25'455349.9
2016-May-20 16:30N 31°60' E 120°48'3497016.1
2016-May-20 16:27N 37°43' E 122°03'38252950.4
2016-May-20 16:27N 31°22' E 121°29'44844844.6
2016-May-20 16:26N 38°50' E 121°33'441176401.3
2016-May-20 16:26N 31°30' E 121°25'14272.6
2016-May-20 16:23N 31°18' E 121°33'4115944.7
2016-May-20 16:19N 38°05' E 120°19'4132426.9
2016-May-20 16:09N 31°16' E 121°33'61299.4
2016-May-20 16:08N 31°22' E 121°30'192.1
2016-May-20 16:08N 31°21' E 121°31'455799.0
2016-May-20 15:34N 24°25' E 118°04'434130297.2
2016-May-20 15:33N 31°00' E 121°26'470211520.2
2016-May-20 15:33N 38°50' E 121°33'45185480.4
2016-May-20 15:33N 31°19' E 121°34'59106971.7
2016-May-20 15:33N 32°00' E 120°43'518169689.4
2016-May-20 15:33N 23°48' E 117°39'48792367.4
2016-May-20 15:32N 31°11' E 121°28'9634693.5
2016-May-20 15:32N 29°40' E 122°03'608218836.0
2016-May-20 15:32N 23°05' E 113°27'96650423.9
2016-May-20 15:31N 38°05' E 120°19'39879694.5
2016-May-20 15:31N 31°30' E 121°24'92094.7
2016-May-20 15:30N 31°22' E 121°29'94095.6
2016-May-20 15:30N 31°30' E 121°24'4351565244.0
2016-May-20 15:30N 38°45' E 121°37'45729889.3
2016-May-20 15:29N 31°08' E 121°28'22950.8
2016-May-20 15:28N 31°30' E 121°25'4312934.6
2016-May-20 15:28N 31°60' E 120°48'44900.8
2016-May-20 15:25N 31°28' E 121°25'705899.0
2016-May-20 15:24N 31°57' E 120°09'3585823.6
2016-May-20 15:20N 37°54' E 120°13'39018490.7
2016-May-20 15:19N 31°28' E 121°25'12414.3
2016-May-20 15:17N 31°37' E 121°16'24128.2
2016-May-20 15:06N 31°18' E 121°33'55716.2
2016-May-20 15:06N 31°22' E 121°30'1425.9
2016-May-20 14:33N 31°33' E 121°20'191.6
2016-May-20 14:33N 31°33' E 121°21'50578987.2
2016-May-20 14:33N 23°48' E 117°39'4378015.0
2016-May-20 14:33N 24°25' E 118°04'434260594.4
2016-May-20 14:33N 31°00' E 121°26'8540.1
2016-May-20 14:32N 31°08' E 121°28'2213333.0
2016-May-20 14:32N 31°30' E 121°24'2147.2
2016-May-20 14:31N 31°28' E 121°25'910308.2
2016-May-20 14:31N 31°21' E 121°31'4196.0
2016-May-20 14:29N 31°18' E 121°33'1130.0
2016-May-20 14:29N 31°19' E 121°34'133792.6
2016-May-20 14:29N 31°30' E 121°25'11514730.9
2016-May-20 14:28N 29°40' E 122°03'5123286.4
2016-May-20 14:19N 38°05' E 120°19'36822843.0
2016-May-20 14:18N 31°57' E 120°09'701545.1
2016-May-20 14:15N 31°28' E 121°25'2514.0
2016-May-20 14:15N 31°30' E 121°24'6595134.0
2016-May-20 14:07N 23°05' E 113°27'266472.5
2016-May-20 13:33N 24°25' E 118°04'43465148.6
2016-May-20 13:33N 31°00' E 121°26'174074.7
2016-May-20 13:33N 31°16' E 121°34'494177934.2
2016-May-20 13:33N 23°48' E 117°39'85667030.3
2016-May-20 13:32N 37°54' E 120°12'390175711.1
2016-May-20 13:32N 31°28' E 121°25'111172.2
2016-May-20 13:31N 31°19' E 121°34'517388.7
2016-May-20 13:31N 31°22' E 121°29'656262371.1
2016-May-20 13:31N 23°03' E 113°30'968387042.9
2016-May-20 13:31N 38°05' E 120°19'39955210.6
2016-May-20 13:30N 31°29' E 121°25'1173.5
2016-May-20 13:30N 31°30' E 121°24'91025.6
2016-May-20 13:30N 31°22' E 121°30'0205.2
2016-May-20 13:29N 31°22' E 121°30'565.3
2016-May-20 13:24N 31°18' E 121°34'156627.4
2016-May-20 13:24N 31°30' E 121°24'141182.1
2016-May-20 13:24N 31°18' E 121°33'45320904.1
2016-May-20 13:22N 38°51' E 121°33'44353152.2
2016-May-20 13:22N 31°28' E 121°28'242.2
2016-May-20 13:19N 31°28' E 121°25'940.0
2016-May-20 13:06N 31°21' E 121°31'2139.2
2016-May-20 12:34N 31°00' E 121°26'644115999.0
2016-May-20 12:33N 23°02' E 113°22'953429007.8
2016-May-20 12:33N 37°47' E 120°12'496893135.2
2016-May-20 12:33N 29°40' E 122°03'42380229.5
2016-May-20 12:33N 23°48' E 117°39'23320490.2
2016-May-20 12:32N 23°04' E 113°30'66279421.4
2016-May-20 12:32N 31°59' E 120°48'518012.7
2016-May-20 12:31N 31°22' E 121°30'5522.3
2016-May-20 12:31N 31°18' E 121°33'81602.0
2016-May-20 12:30N 31°25' E 121°28'665043.4
2016-May-20 12:29N 31°60' E 120°22'7321858.7
2016-May-20 12:29N 31°19' E 121°34'52737.6
2016-May-20 12:29N 31°24' E 121°32'8423318.4
2016-May-20 12:29N 31°58' E 120°02'36621272.2
2016-May-20 12:28N 38°04' E 120°19'40736613.2
2016-May-20 12:27N 31°22' E 121°30'9368.3
2016-May-20 12:26N 31°29' E 121°25'146.5
2016-May-20 12:24N 31°28' E 121°25'71549.4
2016-May-20 12:24N 31°22' E 121°30'911202.0
2016-May-20 12:24N 31°30' E 121°24'69762.1
2016-May-20 12:19N 31°57' E 120°09'64028439.5
2016-May-20 12:17N 23°06' E 113°27'6575851.5
2016-May-20 12:10N 31°21' E 121°32'1 2.4
2016-May-20 11:34N 31°21' E 121°30'216352.4
2016-May-20 11:33N 31°00' E 121°26'8221065.7
2016-May-20 11:33N 31°57' E 120°17'6451161103.9
2016-May-20 11:33N 23°04' E 113°26'943308714.9
2016-May-20 11:33N 37°40' E 120°13'380683211.0
2016-May-20 11:33N 31°25' E 121°28'500200181.8
2016-May-20 11:33N 23°48' E 117°39'49747083.0
2016-May-20 11:32N 31°19' E 121°34'1035518.2
2016-May-20 11:31N 29°40' E 122°03'10110741.1
2016-May-20 11:30N 31°18' E 121°33'28811666.6
2016-May-20 11:29N 26°46' E 119°43'2977129.3
2016-May-20 11:26N 31°30' E 121°24'10167.6
2016-May-20 11:23N 31°22' E 121°30'657181812.3
2016-May-20 11:23N 23°06' E 113°27'657590854.3
2016-May-20 11:23N 31°21' E 121°31'119.9
2016-May-20 11:18N 31°22' E 121°30'7128.5
2016-May-20 11:15N 31°28' E 121°25'65810622.8
2016-May-20 11:11N 23°04' E 113°30'63927048.6
2016-May-20 11:10N 31°58' E 120°05'731436.7
2016-May-20 11:07N 31°29' E 121°25'69019562.8
2016-May-20 11:05N 22°16' E 113°43'272524.7
2016-May-20 10:34N 24°25' E 118°04'454163447.9
2016-May-20 10:33N 31°19' E 121°34'2035712.2
2016-May-20 10:33N 31°00' E 121°26'2280793.6
2016-May-20 10:33N 31°18' E 121°42'386138928.1
2016-May-20 10:33N 37°38' E 120°18'48391537.5
2016-May-20 10:33N 29°43' E 122°02'10426815.4
2016-May-20 10:33N 31°23' E 121°30'2382082.6
2016-May-20 10:33N 31°17' E 121°05'483869298.7
2016-May-20 10:33N 23°49' E 117°40'234420423.8
2016-May-20 10:33N 23°02' E 113°31'65742987.6
2016-May-20 10:32N 31°22' E 121°30'8402.6
2016-May-20 10:30N 31°29' E 121°25'5112147.1
2016-May-20 10:30N 32°00' E 120°38'2646214.7
2016-May-20 10:30N 31°57' E 120°08'3685237.6
2016-May-20 10:26N 38°05' E 120°19'4013877.0
2016-May-20 10:20N 31°28' E 121°25'0 3.5
2016-May-20 10:18N 31°28' E 121°25'6584847.4
2016-May-20 10:10N 23°06' E 113°27'657214856.1
2016-May-20 10:10N 31°21' E 121°31'8010237.1
2016-May-20 10:09N 31°56' E 120°07'679101856.1
2016-May-20 10:09N 22°12' E 113°39'6491091.1
2016-May-20 09:33N 29°52' E 122°08'10017930.6
2016-May-20 09:33N 31°25' E 121°28'458137275.7
2016-May-20 09:33N 24°25' E 118°04'434260601.0
2016-May-20 09:33N 31°00' E 121°26'202380.8
2016-May-20 09:32N 31°19' E 121°34'794600.2
2016-May-20 09:31N 31°57' E 120°12'8011954.0
2016-May-20 09:31N 31°18' E 121°33'6143808.4
2016-May-20 09:31N 32°01' E 120°42'533114.7
2016-May-20 09:30N 31°26' E 121°29'44982.0
2016-May-20 09:30N 31°22' E 121°30'68817441.3
2016-May-20 09:27N 22°15' E 113°43'69171079.4
2016-May-20 09:27N 31°29' E 121°25'66372297.7
2016-May-20 09:26N 22°57' E 113°33'64829178.2
2016-May-20 09:25N 31°08' E 121°28'2279.5
2016-May-20 09:08N 31°30' E 121°24'39889615.3
2016-May-20 09:08N 38°05' E 120°19'36525268.0
2016-May-20 09:07N 32°00' E 120°42'9330.2
2016-May-20 09:05N 31°57' E 120°52'555323.3
2016-May-20 09:05N 31°20' E 121°40'59112.2
2016-May-20 08:33N 31°60' E 120°49'13697920.8
2016-May-20 08:33N 29°59' E 122°02'75134542.3
2016-May-20 08:33N 31°08' E 121°28'44258892.5
2016-May-20 08:33N 24°25' E 118°04'460413885.2
2016-May-20 08:33N 31°29' E 121°24'659296334.5
2016-May-20 08:33N 23°04' E 113°29'639255441.5
2016-May-20 08:32N 31°00' E 121°26'2316799.7
2016-May-20 08:32N 31°22' E 121°36'033.4
2016-May-20 08:32N 31°23' E 121°35'381686530.0
2016-May-20 08:32N 37°38' E 120°16'381114430.3
2016-May-20 08:31N 31°22' E 121°30'69328667.2
2016-May-20 08:30N 22°11' E 113°39'666114214.5
2016-May-20 08:30N 30°58' E 121°16'42931548.0
2016-May-20 08:29N 38°05' E 120°19'36834832.3
2016-May-20 08:28N 31°57' E 120°16'6412729.9
2016-May-20 08:28N 31°30' E 121°24'11621.6
2016-May-20 08:27N 31°21' E 121°31'5164.7
2016-May-20 08:25N 31°25' E 121°28'7238.2
2016-May-20 08:23N 31°19' E 121°34'13217.8
2016-May-20 08:20N 31°29' E 121°25'154.3
2016-May-20 08:18N 31°28' E 121°25'121533.6
2016-May-20 08:18N 31°18' E 121°33'6557278.5
2016-May-20 08:13N 23°04' E 113°30'6267885.8
2016-May-20 08:08N 31°02' E 121°05'771339.8
2016-May-20 08:04N 29°59' E 121°56'67129.8
2016-May-20 07:34N 31°00' E 121°26'434156358.6
2016-May-20 07:33N 24°25' E 118°04'4551636858.2
2016-May-20 07:33N 31°21' E 121°31'75135349.8
2016-May-20 07:33N 30°08' E 121°52'89321191.2
2016-May-20 07:33N 31°33' E 121°20'10160706.3
2016-May-20 07:33N 29°57' E 121°60'8739177.7
2016-May-20 07:33N 31°21' E 121°31'91269.6
2016-May-20 07:33N 31°28' E 121°25'116887.9
2016-May-20 07:33N 31°19' E 121°34'72446.7
2016-May-20 07:32N 31°25' E 121°28'660107996.6
2016-May-20 07:32N 22°60' E 113°31'66144056.5
2016-May-20 07:31N 31°30' E 121°24'221010.0
2016-May-20 07:30N 31°08' E 121°28'13221.8
2016-May-20 07:26N 31°21' E 121°31'4236.9
2016-May-20 07:25N 31°18' E 121°33'5162.2
2016-May-20 07:23N 31°22' E 121°30'9823.9
2016-May-20 07:23N 31°29' E 121°25'38236210.7
2016-May-20 07:22N 37°47' E 120°11'3479622.5
2016-May-20 07:20N 31°59' E 120°21'523.3
2016-May-20 07:08N 32°02' E 120°25'81141.2
2016-May-20 06:34N 31°00' E 121°26'203966.9
2016-May-20 06:33N 31°19' E 121°34'7317578.4
2016-May-20 06:33N 32°02' E 120°23'5136719.1
2016-May-20 06:33N 31°37' E 121°16'3110020.8
2016-May-20 06:33N 31°08' E 121°28'44263603.1
2016-May-20 06:32N 24°25' E 118°04'264949968.9
2016-May-20 06:32N 22°55' E 113°33'623140120.2
2016-May-20 06:32N 29°56' E 122°06'9113061.5
2016-May-20 06:32N 31°21' E 121°31'5204.4
2016-May-20 06:30N 31°25' E 121°28'5726.5
2016-May-20 06:30N 31°29' E 121°25'9893.5
2016-May-20 06:29N 31°22' E 121°30'102482.6
2016-May-20 06:29N 31°30' E 121°24'33398.9
2016-May-20 06:24N 30°58' E 121°14'42172112.9
2016-May-20 06:24N 37°55' E 120°09'3928296.8
2016-May-20 06:21N 31°28' E 121°25'47314689.4
2016-May-20 06:19N 24°10' E 118°03'46736524.3
2016-May-20 06:18N 31°18' E 121°33'411246537.2
2016-May-20 06:18N 38°04' E 120°19'3982237.0
2016-May-20 06:07N 31°30' E 121°24'1424.9
2016-May-20 05:33N 31°39' E 121°12'4124507.6
2016-May-20 05:33N 31°00' E 121°26'434521195.4
2016-May-20 05:33N 24°25' E 118°04'39274247.4
2016-May-20 05:33N 29°51' E 122°08'10025716.1
2016-May-20 05:33N 31°25' E 121°28'275788.2
2016-May-20 05:32N 30°59' E 121°20'6414816.0
2016-May-20 05:24N 22°50' E 113°36'666599739.8
2016-May-20 05:24N 31°30' E 121°24'3034.8
2016-May-20 04:34N 31°00' E 121°26'3330120.4
2016-May-20 04:33N 30°28' E 121°16'45786619.1
2016-May-20 04:33N 38°03' E 120°20'426511034.6
2016-May-20 04:33N 31°01' E 121°26'4271536188.7
2016-May-20 04:33N 38°02' E 120°09'403241500.3
2016-May-20 04:33N 31°25' E 121°28'6671200005.2
2016-May-20 04:33N 22°46' E 113°39'263189033.3
2016-May-20 04:33N 24°25' E 118°04'459413341.4
2016-May-20 04:33N 31°28' E 121°25'6521186.0
2016-May-20 04:33N 31°57' E 120°17'7712676.1
2016-May-20 04:32N 30°58' E 121°16'7730799.8
2016-May-20 04:32N 31°59' E 120°22'692210.2
2016-May-20 04:30N 31°22' E 121°30'564960.1
2016-May-20 04:30N 31°60' E 120°41'128.7
2016-May-20 04:26N 32°00' E 120°39'661884.6
2016-May-20 04:24N 31°08' E 121°28'2215596.8
2016-May-20 04:24N 31°30' E 121°25'151416.3
2016-May-20 04:24N 31°16' E 121°33'962478.6
2016-May-20 04:21N 29°43' E 122°03'981539.7
2016-May-20 04:17N 31°18' E 121°33'56990.1
2016-May-20 04:14N 31°59' E 120°49'47816544.3
2016-May-20 04:12N 24°20' E 118°18'45410022.6
2016-May-20 04:10N 31°19' E 121°34'4 6.7
2016-May-20 03:33N 31°22' E 121°30'455148964.5
2016-May-20 03:33N 24°25' E 118°04'8801583299.0
2016-May-20 03:33N 39°04' E 117°47'443399043.4
2016-May-20 03:33N 31°56' E 120°08'8724029.7
2016-May-20 03:33N 31°00' E 121°26'3013312.1
2016-May-20 03:33N 31°30' E 121°24'6422874.6
2016-May-20 03:33N 31°56' E 120°16'66235978.8
2016-May-20 03:33N 31°28' E 121°25'4329.0
2016-May-20 03:32N 31°25' E 121°28'2024029.2
2016-May-20 03:32N 31°05' E 121°28'246275.3
2016-May-20 03:32N 31°30' E 121°25'1148740.5
2016-May-20 03:31N 29°41' E 122°07'1021538.4
2016-May-20 03:27N 31°19' E 121°34'4098810.2
2016-May-20 03:24N 38°04' E 120°20'41010467.7
2016-May-20 03:22N 31°18' E 121°33'601421.8
2016-May-20 03:19N 32°01' E 120°44'6113728.8
2016-May-20 03:19N 31°16' E 121°33'301722.3
2016-May-20 03:18N 31°40' E 121°13'6776016.5
2016-May-20 03:11N 22°29' E 113°52'259412.3
2016-May-20 02:33N 24°25' E 118°04'464167135.1
2016-May-20 02:33N 31°37' E 121°17'378356.5
2016-May-20 02:33N 31°00' E 121°26'6561180158.9
2016-May-20 02:33N 22°25' E 113°53'67644241.0
2016-May-20 02:32N 31°25' E 121°28'211284.8
2016-May-20 02:31N 31°11' E 121°09'9723384.6
2016-May-20 02:31N 29°46' E 122°04'37236148.8
2016-May-20 02:30N 24°26' E 118°32'44449934.0
2016-May-20 02:30N 31°19' E 121°34'13722.4
2016-May-20 02:29N 31°30' E 121°25'8096413.9
2016-May-20 02:29N 32°01' E 119°58'797314.4
2016-May-20 02:28N 31°30' E 121°24'82173.0
2016-May-20 02:28N 31°24' E 121°31'716586.7
2016-May-20 02:27N 31°56' E 120°16'653267.0
2016-May-20 02:26N 31°28' E 121°25'45777.0
2016-May-20 02:22N 31°60' E 120°48'58687.7
2016-May-20 02:17N 31°16' E 121°33'28712754.6
2016-May-20 02:16N 26°45' E 119°43'2903114.5
2016-May-20 02:10N 31°19' E 121°33'1299.0
2016-May-20 02:03N 31°08' E 121°28'2244.5
2016-May-20 01:33N 31°30' E 121°24'460414204.9
2016-May-20 01:33N 24°25' E 118°04'462554186.8
2016-May-20 01:33N 31°32' E 121°22'10997859.9
2016-May-20 01:33N 29°51' E 122°07'9734916.8
2016-May-20 01:33N 31°22' E 121°30'71280.0
2016-May-20 01:33N 31°15' E 121°30'61132.3
2016-May-20 01:32N 31°19' E 121°34'8980060.4
2016-May-20 01:32N 31°59' E 120°00'9422610.8
2016-May-20 01:32N 31°00' E 121°26'253895.0
2016-May-20 01:32N 31°25' E 121°28'29445951.9
2016-May-20 01:31N 26°46' E 119°43'29318189.6
2016-May-20 01:30N 31°24' E 121°31'16381.2
2016-May-20 01:28N 31°08' E 121°28'20539.1
2016-May-20 01:26N 31°28' E 121°25'131162.7
2016-May-20 01:25N 31°18' E 121°34'74809.7
2016-May-20 01:19N 32°00' E 120°23'615947.6
2016-May-20 01:19N 31°29' E 121°25'10162.0
2016-May-20 01:15N 31°21' E 121°31'865847.8
2016-May-20 01:14N 31°59' E 120°00'465684.7
2016-May-20 00:33N 24°25' E 118°04'434781793.1
2016-May-20 00:33N 31°00' E 121°26'7453318.7
2016-May-20 00:33N 29°55' E 122°06'627752106.5
2016-May-20 00:33N 22°20' E 114°05'999128410.7
2016-May-20 00:33N 38°05' E 120°20'39827564.2
2016-May-20 00:32N 31°30' E 121°24'62730.6
2016-May-20 00:32N 31°25' E 121°28'3730.6
2016-May-20 00:32N 31°23' E 121°31'6581183901.9
2016-May-20 00:32N 23°04' E 113°29'65938246.3
2016-May-20 00:31N 31°30' E 121°24'1417014.2
2016-May-20 00:30N 31°18' E 121°33'14211.4
2016-May-20 00:27N 31°29' E 121°25'237.5
2016-May-20 00:23N 31°28' E 121°28'101301.6
2016-May-20 00:22N 31°19' E 121°34'755887.8
2016-May-20 00:22N 31°57' E 120°17'7142523.2
2016-May-20 00:21N 31°23' E 121°30'227.0
2016-May-20 00:18N 31°24' E 121°31'66032111.1
2016-May-20 00:17N 22°58' E 113°34'642889.3
2016-May-19 23:34N 31°58' E 120°06'8935678.7
2016-May-19 23:33N 31°00' E 121°26'434223369.5
2016-May-19 23:33N 24°25' E 118°04'458274548.1
2016-May-19 23:33N 31°25' E 121°28'1320.4
2016-May-19 23:33N 31°27' E 121°28'92076.7
2016-May-19 23:33N 31°19' E 121°34'14491.5
2016-May-19 23:31N 31°30' E 121°24'223471.0
2016-May-19 23:31N 31°08' E 121°28'13552.3
2016-May-19 23:29N 31°21' E 121°32'41845.0
2016-May-19 23:29N 31°24' E 121°31'6562363071.4
2016-May-19 23:29N 23°04' E 113°32'613441371.4
2016-May-19 23:29N 29°56' E 121°59'9347876.6
2016-May-19 23:29N 31°26' E 121°30'6243.8
2016-May-19 23:27N 31°29' E 121°25'662595695.6
2016-May-19 23:27N 22°58' E 113°32'6436712.3
2016-May-19 23:22N 31°56' E 120°10'811079.4
2016-May-19 23:17N 31°22' E 121°37'551491.5
2016-May-19 23:15N 31°59' E 120°49'42214.5
2016-May-19 23:03N 31°30' E 121°24'2958.9
2016-May-19 22:33N 31°00' E 121°26'85509.3
2016-May-19 22:33N 31°08' E 121°28'223594.0
2016-May-19 22:33N 31°30' E 121°24'675303733.8
2016-May-19 22:33N 22°12' E 114°17'671402857.2
2016-May-19 22:33N 31°19' E 121°34'454233494.3
2016-May-19 22:33N 24°25' E 118°04'457235151.6
2016-May-19 22:32N 31°24' E 121°31'21243.3
2016-May-19 22:32N 31°25' E 121°28'5606.0
2016-May-19 22:32N 31°29' E 121°25'659215650.5
2016-May-19 22:32N 23°04' E 113°29'65794630.5
2016-May-19 22:31N 31°23' E 121°30'42124080.3
2016-May-19 22:30N 24°45' E 118°54'3144898.6
2016-May-19 22:26N 23°05' E 113°28'657262712.8
2016-May-19 22:26N 31°22' E 121°30'38343084.6
2016-May-19 22:26N 37°44' E 122°03'3768560.5
2016-May-19 22:23N 31°30' E 121°24'141270.7
2016-May-19 22:22N 31°18' E 121°33'65510532.1
2016-May-19 22:19N 23°04' E 113°29'65814275.9
2016-May-19 22:16N 31°28' E 121°25'812.0
2016-May-19 21:34N 31°34' E 121°18'3424821.7
2016-May-19 21:33N 31°00' E 121°26'679305728.5
2016-May-19 21:33N 22°10' E 113°31'340111125.6
2016-May-19 21:33N 24°49' E 118°58'417136405.7
2016-May-19 21:33N 31°24' E 121°31'66485312.5
2016-May-19 21:32N 23°02' E 113°23'66695912.9
2016-May-19 21:32N 31°21' E 121°38'92135.3
2016-May-19 21:32N 31°25' E 121°28'458823634.3
2016-May-19 21:32N 24°25' E 118°04'459413134.4
2016-May-19 21:32N 31°27' E 121°27'40037902.6
2016-May-19 21:31N 38°03' E 120°20'40956577.2
2016-May-19 21:31N 31°19' E 121°34'545449.5
2016-May-19 21:30N 31°59' E 120°50'4174485.8
2016-May-19 21:30N 31°30' E 121°24'221.1
2016-May-19 21:25N 31°28' E 121°25'661930.2
2016-May-19 21:23N 31°57' E 120°15'64342840.6
2016-May-19 21:22N 23°04' E 113°29'63224727.4
2016-May-19 21:20N 30°58' E 121°18'26405.6
2016-May-19 21:17N 31°22' E 121°30'14379.1
2016-May-19 21:14N 31°08' E 121°28'611087.7
2016-May-19 21:11N 31°59' E 120°49'477763.9
2016-May-19 20:33N 24°25' E 118°04'434173729.6
2016-May-19 20:33N 31°00' E 121°26'2023801.3
2016-May-19 20:33N 31°19' E 121°34'5863.4
2016-May-19 20:33N 31°24' E 121°31'1982.3
2016-May-19 20:33N 31°23' E 121°30'3203.9
2016-May-19 20:32N 31°25' E 121°28'172303.0
2016-May-19 20:32N 31°08' E 121°28'1346373.1
2016-May-19 20:32N 30°58' E 121°18'341233.6
2016-May-19 20:30N 31°32' E 121°21'412627.5
2016-May-19 20:30N 31°30' E 121°24'128749.9
2016-May-19 20:30N 31°38' E 121°14'121150.2
2016-May-19 20:29N 31°30' E 121°24'170.9
2016-May-19 20:28N 31°29' E 121°25'635565.3
2016-May-19 20:28N 31°59' E 120°19'751644.2
2016-May-19 20:25N 31°18' E 121°33'5155.7
2016-May-19 20:23N 31°22' E 121°30'7185.6
2016-May-19 20:21N 31°21' E 121°38'4072316.8
2016-May-19 20:10N 38°03' E 120°20'426699.1
2016-May-19 19:33N 31°00' E 121°26'205492.6
2016-May-19 19:33N 31°19' E 121°34'51338.0
2016-May-19 19:33N 31°24' E 121°31'34979.7
2016-May-19 19:33N 31°25' E 121°28'45851476.5
2016-May-19 19:32N 24°25' E 118°04'45236977.7
2016-May-19 19:32N 31°17' E 121°34'159206.1
2016-May-19 19:32N 31°30' E 121°24'6591185653.3
2016-May-19 19:32N 23°04' E 113°29'63232498.2
2016-May-19 19:30N 30°58' E 121°18'324126.2
2016-May-19 19:30N 31°30' E 121°24'6112856.7
2016-May-19 19:30N 32°01' E 120°22'6930994.0
2016-May-19 19:30N 31°24' E 121°31'18870.6
2016-May-19 19:28N 31°37' E 121°16'312316.0
2016-May-19 19:27N 31°08' E 121°28'141225.9
2016-May-19 19:27N 31°22' E 121°30'797.3
2016-May-19 19:22N 31°28' E 121°25'3991435191.3
2016-May-19 19:22N 38°03' E 120°20'39789426.8
2016-May-19 19:22N 31°29' E 121°25'3739003.9
2016-May-19 19:20N 37°40' E 122°16'9877875.1
2016-May-19 19:12N 23°04' E 113°29'638992.0
2016-May-19 18:33N 31°00' E 121°26'54753.6
2016-May-19 18:33N 30°59' E 121°21'275794.4
2016-May-19 18:33N 31°25' E 121°28'176909.1
2016-May-19 18:33N 31°08' E 121°28'128881.9
2016-May-19 18:33N 31°19' E 121°34'7286652.8
2016-May-19 18:33N 32°04' E 120°27'47646298.3
2016-May-19 18:32N 24°25' E 118°04'4599959.9
2016-May-19 18:29N 31°28' E 121°25'2426.7
2016-May-19 18:29N 31°30' E 121°24'8243.7
2016-May-19 18:27N 31°24' E 121°31'7278.5
2016-May-19 18:26N 31°18' E 121°34'3831378392.7
2016-May-19 18:26N 37°39' E 122°20'37936872.0
2016-May-19 18:25N 31°22' E 121°30'4059655.9
2016-May-19 18:23N 38°03' E 120°20'3972026.5
2016-May-19 18:11N 31°30' E 121°24'163510.8
2016-May-19 18:10N 31°16' E 121°34'654249.6
2016-May-19 18:10N 32°01' E 120°38'65717660.5
2016-May-19 18:07N 23°04' E 113°29'6381131.7
2016-May-19 17:33N 31°00' E 121°26'062.7
2016-May-19 17:33N 31°01' E 121°27'435260758.2
2016-May-19 17:33N 24°25' E 118°04'46075312.6
2016-May-19 17:33N 31°30' E 121°25'56195.4
2016-May-19 17:33N 31°25' E 121°28'76728.5
2016-May-19 17:33N 31°19' E 121°34'141577.0
2016-May-19 17:32N 31°30' E 121°24'6598912.6
2016-May-19 17:28N 23°04' E 113°29'65926640.1
2016-May-19 17:26N 31°30' E 121°24'9953.7
2016-May-19 17:26N 31°22' E 121°30'244.5
2016-May-19 17:23N 31°24' E 121°31'37720249.3
2016-May-19 17:22N 37°38' E 122°24'3838555.0
2016-May-19 17:19N 31°18' E 121°33'453597.4
2016-May-19 16:34N 24°25' E 118°04'434390891.6
2016-May-19 16:33N 31°00' E 121°26'2529861.9
2016-May-19 16:33N 31°25' E 121°28'37512857.3
2016-May-19 16:32N 37°37' E 122°27'38045647.3
2016-May-19 16:31N 31°19' E 121°34'131896.3
2016-May-19 16:31N 31°30' E 121°25'1249.4
2016-May-19 16:30N 31°30' E 121°24'16343.2
2016-May-19 16:28N 31°16' E 121°33'41211311.8
2016-May-19 16:25N 38°03' E 120°20'40385398.5
2016-May-19 16:25N 31°24' E 121°31'581135.9
2016-May-19 16:22N 32°00' E 120°37'501283.1
2016-May-19 16:20N 31°30' E 121°24'141253.5
2016-May-19 16:19N 31°18' E 121°33'29313.1
2016-May-19 16:13N 31°41' E 121°12'1698.2
2016-May-19 16:04N 31°29' E 121°25'460905.8
2016-May-19 15:33N 24°25' E 118°04'43478178.3
2016-May-19 15:33N 31°00' E 121°26'201487.2
2016-May-19 15:32N 31°19' E 121°34'13630.4
2016-May-19 15:31N 31°30' E 121°24'371121428.6
2016-May-19 15:31N 37°37' E 122°30'37112964.6
2016-May-19 15:29N 31°30' E 121°24'474947.5
2016-May-19 15:28N 32°01' E 120°42'66074232.1
2016-May-19 15:28N 23°04' E 113°29'660215930.8
2016-May-19 15:28N 31°37' E 121°17'101012.0
2016-May-19 15:27N 31°30' E 121°25'56213.3
2016-May-19 15:27N 31°25' E 121°28'7177.0
2016-May-19 15:25N 31°19' E 121°33'12910.8
2016-May-19 15:24N 31°08' E 121°28'64517193.6
2016-May-19 15:22N 23°04' E 113°29'96611476.7
2016-May-19 15:16N 38°03' E 120°20'8271150.1
2016-May-19 14:33N 24°25' E 118°04'454116745.7
2016-May-19 14:33N 31°19' E 121°34'207931.5
2016-May-19 14:33N 31°00' E 121°26'3111277.9
2016-May-19 14:33N 31°32' E 121°23'33244.5
2016-May-19 14:33N 31°30' E 121°25'8256.8
2016-May-19 14:31N 31°23' E 121°30'3627.2
2016-May-19 14:31N 31°25' E 121°28'1162.2
2016-May-19 14:20N 31°14' E 121°29'17362.8
2016-May-19 14:17N 31°30' E 121°24'82070.3
2016-May-19 14:17N 31°36' E 121°17'161522.4
2016-May-19 14:16N 31°24' E 121°31'8163.3
2016-May-19 14:13N 31°30' E 121°24'156649.7
2016-May-19 14:13N 31°18' E 121°34'11362.6
2016-May-19 14:11N 31°08' E 121°28'5167868.5
2016-May-19 14:07N 22°37' E 120°05'908251318.8
2016-May-19 14:07N 37°36' E 122°34'399708.5
2016-May-19 13:33N 31°00' E 121°26'434260594.4
2016-May-19 13:33N 24°25' E 118°04'458109829.5
2016-May-19 13:33N 31°25' E 121°28'1304.0
2016-May-19 13:33N 31°26' E 121°30'53350516.9
2016-May-19 13:32N 22°37' E 120°10'522125327.6
2016-May-19 13:32N 31°17' E 121°07'233870.5
2016-May-19 13:31N 31°19' E 121°34'656393879.0
2016-May-19 13:31N 23°04' E 113°29'65656244.1
2016-May-19 13:31N 31°22' E 121°30'9876.6
2016-May-19 13:30N 31°30' E 121°25'9226.0
2016-May-19 13:28N 31°22' E 121°30'128777.8
2016-May-19 13:28N 31°32' E 121°22'392.4
2016-May-19 13:26N 31°30' E 121°24'042.8
2016-May-19 13:25N 31°30' E 121°24'0 0.9
2016-May-19 13:17N 31°30' E 121°24'14188.3
2016-May-19 13:12N 31°18' E 121°33'15129.9
2016-May-19 13:06N 31°30' E 121°23'2954.5
2016-May-19 12:33N 31°00' E 121°26'  
Track history (hours):
 
Tides and Currents Weather Stations Pressure Air Temp Water Temp Dewpoint Dewpoint Depression Visibility Wind Speed Wind Dir Waves Ship Positions

Callsign 000000 (name unknown)

Last reported at 2016-May-29 12:33 UTC. Time now 2016-May-29 13:28 UTC.
Position N 23°03' E 113°30'.

Type: Fishing. MMSI: 200007452.

Date/timePositionNaut miles runAvg speedWind from/ knotsBaromVisibWave heightAir tempDewpointWater temp
2016-May-29 12:33N 23°03' E 113°30'65971937.1
2016-May-29 12:33N 31°30' E 121°25'66019162.5
2016-May-29 12:31N 23°01' E 113°32'2113.2
2016-May-29 12:30N 22°59' E 113°31'66234058.8
2016-May-29 12:29N 31°25' E 121°32'4260.3
2016-May-29 12:28N 31°22' E 121°29'8230.9
2016-May-29 12:26N 31°30' E 121°25'8144.9
2016-May-29 12:22N 31°22' E 121°29'7 8.2
2016-May-29 11:33N 31°22' E 121°37'1816603.5
2016-May-29 11:33N 31°05' E 121°28'253196.7
2016-May-29 11:33N 31°30' E 121°25'8541.0
2016-May-29 11:32N 31°22' E 121°29'65724890.3
2016-May-29 11:30N 23°01' E 113°32'66017733.3
2016-May-29 11:28N 31°30' E 121°25'531904.8
2016-May-29 11:26N 32°01' E 120°33'6646403.9
2016-May-29 11:20N 22°52' E 113°34'2665725.5
2016-May-29 11:17N 24°25' E 118°05'46010742.3
2016-May-29 11:15N 31°30' E 121°24'64563.1
2016-May-29 11:08N 31°57' E 120°17'56726844.1
2016-May-29 11:07N 22°30' E 120°09'57242868.7
2016-May-29 11:06N 32°01' E 120°25'816778.3
2016-May-29 11:05N 31°02' E 121°29'2140.3
2016-May-29 10:33N 31°23' E 121°30'6910728.9
2016-May-29 10:33N 31°60' E 120°22'47022885.1
2016-May-29 10:31N 24°25' E 118°05'43822219.2
2016-May-29 10:30N 31°05' E 121°28'255614.1
2016-May-29 10:30N 31°30' E 121°25'9239.0
2016-May-29 10:28N 31°22' E 121°29'10263.6
2016-May-29 10:26N 31°30' E 121°22'271.7
2016-May-29 10:24N 31°30' E 121°24'704734.8
2016-May-29 10:23N 31°57' E 120°09'6402718.5
2016-May-29 10:09N 23°04' E 113°30'66010896.1
2016-May-29 10:05N 31°44' E 121°06'3464.6
2016-May-29 09:33N 31°19' E 121°34'339101756.5
2016-May-29 09:33N 36°55' E 122°29'784156728.3
2016-May-29 09:33N 24°25' E 118°05'265190612.0
2016-May-29 09:33N 23°04' E 113°30'642578148.9
2016-May-29 09:33N 31°05' E 121°28'281767.6
2016-May-29 09:32N 31°33' E 121°20'593493.6
2016-May-29 09:31N 31°57' E 120°16'44511942.0
2016-May-29 09:28N 39°04' E 117°48'49624815.8
2016-May-29 09:27N 31°22' E 121°29'68456.6
2016-May-29 09:18N 31°60' E 120°22'65025451.3
2016-May-29 09:17N 23°01' E 113°32'66140340.5
2016-May-29 09:16N 31°41' E 121°11'247732.2
2016-May-29 09:16N 31°25' E 121°32'2028.7
2016-May-29 08:33N 31°05' E 121°28'41168.7
2016-May-29 08:33N 31°02' E 121°29'3018179.8
2016-May-29 08:33N 31°31' E 121°21'62866.2
2016-May-29 08:33N 31°35' E 121°17'17739.9
2016-May-29 08:31N 31°22' E 121°29'65667425.7
2016-May-29 08:31N 23°04' E 113°30'66033928.5
2016-May-29 08:29N 31°38' E 121°16'47729586.6
2016-May-29 08:28N 39°04' E 117°50'49546925.3
2016-May-29 08:28N 31°22' E 121°29'72578.2
2016-May-29 08:28N 31°16' E 121°33'931.1
2016-May-29 08:09N 31°25' E 121°32'33422657.1
2016-May-29 08:09N 36°55' E 122°29'31919446.9
2016-May-29 08:08N 31°56' E 120°15'6674.6
2016-May-29 08:07N 31°57' E 120°09'703702.0
2016-May-29 08:06N 31°29' E 121°24'2750.2
2016-May-29 07:33N 31°02' E 121°29'4712103.9
2016-May-29 07:33N 31°45' E 121°06'1614604.8
2016-May-29 07:33N 31°34' E 121°20'73741.8
2016-May-29 07:33N 31°39' E 121°13'5785.1
2016-May-29 07:33N 31°35' E 121°18'352866.5
2016-May-29 07:32N 31°02' E 121°29'43631359.5
2016-May-29 07:31N 24°25' E 118°05'465128638.4
2016-May-29 07:31N 31°57' E 120°10'842522.0
2016-May-29 07:29N 31°05' E 121°28'68244667.1
2016-May-29 07:28N 22°11' E 113°33'10008070.6
2016-May-29 07:21N 36°55' E 122°29'3291782.0
2016-May-29 07:09N 31°31' E 121°19'2 3.8
2016-May-29 06:33N 31°33' E 121°19'305604.0
2016-May-29 06:33N 31°05' E 121°28'43871708.2
2016-May-29 06:33N 24°25' E 118°05'460236786.8
2016-May-29 06:33N 31°30' E 121°25'329118517.8
2016-May-29 06:33N 36°55' E 122°29'32947336.5
2016-May-29 06:32N 31°31' E 121°24'1424833.6
2016-May-29 06:32N 31°40' E 121°12'412696.5
2016-May-29 06:31N 31°02' E 121°29'9127364.6
2016-May-29 06:31N 31°57' E 120°04'562931.5
2016-May-29 06:30N 31°43' E 121°08'51262.2
2016-May-29 06:18N 31°57' E 120°10'692782.2
2016-May-29 06:17N 31°30' E 121°24'330449.4
2016-May-29 05:32N 36°55' E 122°29'3573602.6
2016-May-29 05:27N 31°02' E 121°29'43621188.8
2016-May-29 05:25N 24°25' E 118°05'438504.3
2016-May-29 04:33N 31°05' E 121°28'1769163.7
2016-May-29 04:32N 31°25' E 118°04'420504080.2
2016-May-29 04:32N 24°25' E 118°05'46018597.7
2016-May-29 04:30N 31°31' E 121°22'305398.0
2016-May-29 04:30N 31°02' E 121°29'651615.4
2016-May-29 04:28N 31°57' E 120°51'347756.7
2016-May-29 04:27N 31°57' E 120°11'3201406.5
2016-May-29 04:14N 36°55' E 122°29'3351930.4
2016-May-29 04:03N 31°24' E 121°32'661475574.7
2016-May-29 04:03N 23°04' E 113°26'6581278.0
2016-May-29 03:32N 31°21' E 121°30'203571.9
2016-May-29 03:32N 31°02' E 121°29'436223996.3
2016-May-29 03:32N 24°25' E 118°05'784282110.9
2016-May-29 03:32N 36°55' E 122°29'958137915.9
2016-May-29 03:31N 23°02' E 113°24'647466116.8
2016-May-29 03:31N 31°05' E 121°28'187067.4
2016-May-29 03:31N 31°23' E 121°30'7286400.2
2016-May-29 03:31N 31°57' E 120°15'798154.9
2016-May-29 03:31N 31°07' E 121°28'652180676.7
2016-May-29 03:30N 22°55' E 113°27'66533706.8
2016-May-29 03:29N 31°22' E 121°30'4963952.5
2016-May-29 03:22N 39°04' E 117°49'45549597.3
2016-May-29 03:21N 31°55' E 120°52'25795.9
2016-May-29 03:19N 31°38' E 121°14'3021727.5
2016-May-29 03:09N 26°47' E 119°42'2909247.4
2016-May-29 03:07N 31°22' E 121°29'2138.1
2016-May-29 02:33N 31°01' E 121°28'47392.4
2016-May-29 02:33N 31°05' E 121°28'43819719.8
2016-May-29 02:32N 24°25' E 118°05'45728345.0
2016-May-29 02:31N 31°22' E 121°36'66792382.8
2016-May-29 02:31N 23°03' E 113°18'66382309.5
2016-May-29 02:30N 31°22' E 121°29'29315956.4
2016-May-29 02:29N 26°44' E 119°44'29265807.0
2016-May-29 02:29N 31°22' E 121°30'7438224.7
2016-May-29 02:29N 31°57' E 120°13'3196837.5
2016-May-29 02:26N 36°55' E 122°29'3436639.3
2016-May-29 02:23N 31°15' E 121°33'7515083.2
2016-May-29 02:22N 32°00' E 120°21'771515.0
2016-May-29 02:19N 30°57' E 121°12'34763.9
2016-May-29 02:17N 31°30' E 121°24'27896.6
2016-May-29 02:15N 31°03' E 121°29'5157160.2
2016-May-29 02:11N 39°05' E 117°46'4486091.6
2016-May-29 02:06N 32°01' E 120°47'317049.2
2016-May-29 02:06N 31°56' E 120°11'75138.5
2016-May-29 01:33N 31°22' E 121°29'45458388.2
2016-May-29 01:33N 24°25' E 118°05'16750069.0
2016-May-29 01:33N 26°47' E 119°43'277248948.7
2016-May-29 01:33N 31°08' E 121°28'2357.4
2016-May-29 01:32N 31°05' E 121°28'6623833.9
2016-May-29 01:32N 32°00' E 120°44'30779007.8
2016-May-29 01:32N 36°55' E 122°29'31635593.6
2016-May-29 01:31N 31°58' E 120°18'8013074.0
2016-May-29 01:31N 31°05' E 121°28'66633765.4
2016-May-29 01:30N 22°03' E 114°16'684205118.9
2016-May-29 01:30N 31°32' E 121°20'175040.7
2016-May-29 01:29N 31°22' E 121°36'11571.4
2016-May-29 01:28N 31°12' E 121°30'9354.2
2016-May-29 01:27N 31°22' E 121°30'278802.4
2016-May-29 01:26N 30°58' E 121°16'681317.9
2016-May-29 01:23N 32°00' E 120°43'7041266493.4
2016-May-29 01:23N 22°10' E 113°32'70016590.3
2016-May-29 01:21N 31°30' E 121°24'601978.9
2016-May-29 01:19N 32°04' E 120°26'793599.6
2016-May-29 01:18N 31°18' E 121°42'5054546.8
2016-May-29 01:11N 39°05' E 117°45'517826.4
2016-May-29 00:33N 30°59' E 121°20'2412506.4
2016-May-29 00:33N 31°22' E 121°30'496595106.8
2016-May-29 00:33N 39°04' E 117°50'449323002.6
2016-May-29 00:33N 31°60' E 120°49'605857.0
2016-May-29 00:33N 31°09' E 121°28'45266.5
2016-May-29 00:33N 31°05' E 121°28'171622.1
2016-May-29 00:32N 31°22' E 121°29'337606498.7
2016-May-29 00:32N 36°55' E 122°29'33714781.5
2016-May-29 00:31N 31°22' E 121°29'827577.5
2016-May-29 00:30N 31°58' E 120°03'8852844.9
2016-May-29 00:30N 31°08' E 121°28'44117444.4
2016-May-29 00:28N 24°25' E 118°05'4595441.1
2016-May-29 00:23N 31°30' E 121°24'1650.8
2016-May-29 00:04N 31°41' E 121°11'4384.5
2016-May-28 23:33N 31°00' E 121°26'433222666.2
2016-May-28 23:33N 24°25' E 118°05'46667115.6
2016-May-28 23:33N 31°41' E 121°11'391928.7
2016-May-28 23:32N 31°05' E 121°28'71021.1
2016-May-28 23:31N 30°59' E 121°23'6799.6
2016-May-28 23:31N 31°04' E 121°28'15554.6
2016-May-28 23:29N 31°18' E 121°34'6717.0
2016-May-28 23:29N 31°22' E 121°29'512863.6
2016-May-28 23:28N 32°00' E 120°49'522999.2
2016-May-28 23:27N 31°22' E 121°30'6682.0
2016-May-28 23:26N 31°22' E 121°37'3366408.2
2016-May-28 23:23N 36°55' E 122°29'3229751.2
2016-May-28 23:21N 31°39' E 121°13'301069.7
2016-May-28 23:19N 31°14' E 121°30'812898.5
2016-May-28 23:18N 31°57' E 120°10'0 3.6
2016-May-28 23:09N 31°56' E 120°11'681126.0
2016-May-28 23:06N 31°30' E 121°24'26936.5
2016-May-28 23:04N 31°04' E 121°28'2039.2
2016-May-28 22:33N 31°24' E 121°31'81926.6
2016-May-28 22:33N 31°16' E 121°33'3222741.0
2016-May-28 22:33N 31°41' E 121°11'3915639.6
2016-May-28 22:33N 31°05' E 121°28'2507.2
2016-May-28 22:33N 31°03' E 121°29'1326.1
2016-May-28 22:33N 31°04' E 121°28'183580.4
2016-May-28 22:32N 31°22' E 121°30'38417276.0
2016-May-28 22:31N 37°45' E 121°59'824148382.7
2016-May-28 22:31N 24°25' E 118°05'45432697.4
2016-May-28 22:30N 31°22' E 121°29'23395.2
2016-May-28 22:26N 30°59' E 121°23'821605.9
2016-May-28 22:23N 31°57' E 120°15'31842440.9
2016-May-28 22:23N 36°55' E 122°29'3226238.7
2016-May-28 22:20N 31°39' E 121°13'161794.2
2016-May-28 22:08N 31°25' E 118°04'160279.6
2016-May-28 21:33N 31°41' E 121°11'419205.3
2016-May-28 21:33N 31°03' E 121°29'8122503.1
2016-May-28 21:33N 31°59' E 120°19'81291159.3
2016-May-28 21:33N 30°59' E 121°23'72040.6
2016-May-28 21:32N 31°05' E 121°28'371809.4
2016-May-28 21:31N 31°39' E 121°13'231543.0
2016-May-28 21:30N 31°22' E 121°30'31215.6
2016-May-28 21:30N 31°21' E 121°33'37710125.7
2016-May-28 21:28N 37°36' E 122°05'38220511.1
2016-May-28 21:27N 31°16' E 121°33'71229.9
2016-May-28 21:27N 31°22' E 121°29'4547046.9
2016-May-28 21:23N 24°25' E 118°05'46588025.7
2016-May-28 21:22N 31°56' E 120°11'35888.4
2016-May-28 21:20N 31°58' E 120°52'27144.2
2016-May-28 21:09N 31°59' E 120°20'80133.8
2016-May-28 20:33N 31°03' E 121°29'64253.2
2016-May-28 20:33N 30°59' E 121°23'417738.4
2016-May-28 20:32N 31°39' E 121°13'3160.8
2016-May-28 20:32N 31°41' E 121°11'498047.1
2016-May-28 20:31N 31°56' E 120°16'743686.9
2016-May-28 20:30N 31°21' E 121°32'45477815.7
2016-May-28 20:30N 24°25' E 118°05'43898597.5
2016-May-28 20:29N 31°05' E 121°28'352158248.8
2016-May-28 20:29N 36°53' E 122°28'31016154.8
2016-May-28 20:28N 32°01' E 120°23'34212442.2
2016-May-28 20:26N 37°33' E 122°05'38010439.5
2016-May-28 20:24N 31°14' E 121°29'8952.4
2016-May-28 20:24N 31°22' E 121°29'751549.6
2016-May-28 20:21N 31°56' E 120°11'76758.3
2016-May-28 20:15N 31°22' E 121°30'2536.1
2016-May-28 19:33N 31°41' E 121°11'31435305.0
2016-May-28 19:33N 36°48' E 122°30'35397838.2
2016-May-28 19:32N 30°59' E 121°24'85102186.5
2016-May-28 19:32N 31°56' E 120°09'8611464.6
2016-May-28 19:32N 31°03' E 121°29'43721550.2
2016-May-28 19:31N 24°25' E 118°05'88030463.3
2016-May-28 19:29N 38°47' E 121°34'45017437.5
2016-May-28 19:27N 31°17' E 121°34'292357.0
2016-May-28 19:27N 31°39' E 121°13'356160351.3
2016-May-28 19:26N 37°33' E 122°05'3725628.9
2016-May-28 19:23N 31°22' E 121°30'512288.8
2016-May-28 19:21N 31°60' E 120°49'191519.0
2016-May-28 19:20N 32°04' E 120°27'18259.6
2016-May-28 19:16N 31°56' E 120°08'773521.5
2016-May-28 19:15N 31°22' E 121°29'2434.7
2016-May-28 18:33N 30°59' E 121°21'8682.6
2016-May-28 18:33N 31°03' E 121°29'437157322.1
2016-May-28 18:33N 24°25' E 118°05'45663094.6
2016-May-28 18:32N 31°23' E 121°30'242084.7
2016-May-28 18:31N 31°41' E 121°11'272930.1
2016-May-28 18:31N 31°21' E 121°32'6982742.2
2016-May-28 18:16N 22°10' E 113°31'102555054.0
2016-May-28 18:14N 37°33' E 122°05'506854623.0
2016-May-28 18:09N 48°20' W 123°28'5393105518.9
2016-May-28 18:06N 31°30' E 121°24'169374.3
2016-May-28 18:06N 31°16' E 121°33'2952432.8
2016-May-28 18:06N 31°39' E 121°13'22640.4
2016-May-28 18:04N 31°22' E 121°29'539710704.4
2016-May-28 17:33N 48°21' W 123°27'53942773921.8
2016-May-28 17:33N 31°28' E 121°27'326348.6
2016-May-28 17:33N 30°58' E 121°15'3013414.0
2016-May-28 17:33N 31°24' E 121°31'457182749.6
2016-May-28 17:33N 24°25' E 118°05'814172397.1
2016-May-28 17:32N 37°33' E 122°05'37251509.1
2016-May-28 17:32N 31°22' E 121°29'194490.5
2016-May-28 17:32N 31°03' E 121°29'4110493.6
2016-May-28 17:32N 31°41' E 121°11'291782.3
2016-May-28 17:31N 31°20' E 121°33'1249.2
2016-May-28 17:15N 31°30' E 121°24'1492.3
2016-May-28 17:06N 31°39' E 121°13'1730.3
2016-May-28 16:33N 31°28' E 121°27'53979714639.4
2016-May-28 16:33N 48°23' W 123°21'53974857101.7
2016-May-28 16:33N 31°24' E 121°32'257503.7
2016-May-28 16:33N 31°41' E 121°11'414320.9
2016-May-28 16:33N 31°03' E 121°29'391175806.6
2016-May-28 16:32N 37°33' E 122°05'36517986.7
2016-May-28 16:31N 31°30' E 121°22'10624.6
2016-May-28 16:30N 31°22' E 121°29'222743.0
2016-May-28 16:30N 31°39' E 121°13'46459715.1
2016-May-28 16:29N 24°25' E 118°05'4592226.2
2016-May-28 16:17N 31°30' E 121°24'512392.8
2016-May-28 16:16N 32°01' E 120°37'6699374.1
2016-May-28 16:11N 22°43' E 113°40'61969809.3
2016-May-28 15:34N 48°24' W 123°22'54151218263.6
2016-May-28 15:33N 31°03' E 121°29'271476.9
2016-May-28 15:32N 31°30' E 121°22'151184.5
2016-May-28 15:31N 31°41' E 121°11'46624675.1
2016-May-28 15:30N 24°25' E 118°05'47510894.6
2016-May-28 15:28N 32°00' E 120°40'34016993.5
2016-May-28 15:26N 37°33' E 122°05'3652545.3
2016-May-28 15:18N 31°30' E 121°24'4411967.5
2016-May-28 15:04N 38°51' E 121°32'430826.1
2016-May-28 14:33N 31°41' E 121°11'430221053.4
2016-May-28 14:33N 38°51' E 121°33'441122141.4
2016-May-28 14:33N 31°30' E 121°22'275736.2
2016-May-28 14:33N 31°03' E 121°29'43722799.5
2016-May-28 14:31N 24°25' E 118°05'8148209.5
2016-May-28 14:25N 37°33' E 122°05'3382510.4
2016-May-28 14:17N 32°01' E 120°46'3194157.4
2016-May-28 14:13N 26°47' E 119°42'3105530.0
2016-May-28 14:09N 31°56' E 120°11'68113.5
2016-May-28 13:33N 31°30' E 121°24'295244.2
2016-May-28 13:33N 31°00' E 121°27'5755.0
2016-May-28 13:33N 31°05' E 121°28'393352.3
2016-May-28 13:32N 31°41' E 121°11'15517.5
2016-May-28 13:30N 31°30' E 121°22'41230.1
2016-May-28 13:20N 31°60' E 120°49'1 6.0
2016-May-28 13:10N 32°00' E 120°49'2742.7
2016-May-28 12:33N 31°41' E 121°11'4326006.6
2016-May-28 12:33N 30°59' E 121°20'312430.8
2016-May-28 12:32N 31°30' E 121°24'263.7
2016-May-28 12:30N 31°30' E 121°22'12314.1
2016-May-28 12:28N 31°39' E 121°13'37256.0
2016-May-28 12:19N 31°04' E 121°28'145.6
2016-May-28 12:17N 31°05' E 121°28'65346.8
2016-May-28 12:06N 32°00' E 120°47'4277.8
2016-May-28 11:33N 31°30' E 121°22'333183.5
2016-May-28 11:33N 30°58' E 121°15'444380.3
2016-May-28 11:32N 31°41' E 121°11'383550.3
2016-May-28 11:32N 31°06' E 121°28'18741.7
2016-May-28 11:30N 31°23' E 121°32'5262.1
2016-May-28 11:29N 31°18' E 121°33'1410285.2
2016-May-28 11:29N 31°05' E 121°28'251539.5
2016-May-28 11:28N 31°30' E 121°24'665133037.6
2016-May-28 11:28N 23°03' E 113°19'66670477.7
2016-May-28 11:27N 31°39' E 121°13'22165.2
2016-May-28 11:19N 31°22' E 121°29'1315.9
2016-May-28 10:29N 31°09' E 121°27'47053.4
2016-May-28 10:29N 31°05' E 121°28'4388216.5
2016-May-28 10:26N 24°25' E 118°05'4501619107.6
2016-May-28 10:25N 31°16' E 121°33'32499.7
2016-May-28 10:22N 31°41' E 121°11'414.1
2016-May-28 10:04N 31°38' E 121°15'4179.1
2016-May-28 09:33N 30°58' E 121°18'63346518.8
2016-May-28 09:32N 23°00' E 113°31'662108314.7
2016-May-28 09:32N 31°41' E 121°11'0215.6
2016-May-28 09:32N 31°41' E 121°11'3105.0
2016-May-28 09:30N 31°39' E 121°13'6954.9
2016-May-28 09:30N 31°35' E 121°18'31470.2
2016-May-28 09:26N 31°05' E 121°28'438175284.5
2016-May-28 09:26N 24°25' E 118°05'46542956.9
2016-May-28 09:25N 31°40' E 121°13'8165.0
2016-May-28 09:22N 31°45' E 121°06'21689.1
2016-May-28 09:20N 31°30' E 121°22'193421685.3
2016-May-28 09:15N 00°02' E 114°10'192730300.1
2016-May-28 09:11N 31°22' E 121°29'4147932.5
2016-May-28 09:08N 38°07' E 119°42'100352340.4
2016-May-28 09:07N 22°11' E 113°51'69027599.0
2016-May-28 09:05N 31°30' E 121°24'6591251.2
2016-May-28 08:33N 23°05' E 113°28'658182088.3
2016-May-28 08:33N 31°30' E 121°22'101166.5
2016-May-28 08:33N 31°22' E 121°29'910263.2
2016-May-28 08:33N 31°30' E 121°24'1421.7
2016-May-28 08:33N 31°30' E 121°25'460331472.2
2016-May-28 08:33N 24°25' E 118°05'44855586.6
2016-May-28 08:32N 31°15' E 121°30'221955.1
2016-May-28 08:31N 31°35' E 121°19'353641.2
2016-May-28 08:31N 30°59' E 121°23'677562.3
2016-May-28 08:30N 31°60' E 120°48'322891.3
2016-May-28 08:30N 31°38' E 121°16'63324.8
2016-May-28 08:29N 31°41' E 121°11'125.4
2016-May-28 08:28N 31°41' E 121°10'181995.0
2016-May-28 08:27N 31°29' E 121°26'24958.1
2016-May-28 08:25N 31°05' E 121°28'682204709.7
2016-May-28 08:25N 22°11' E 113°33'133014079.4
2016-May-28 08:20N 00°02' E 114°10'230748576.3
2016-May-28 08:17N 38°07' E 119°42'107515.1
2016-May-28 08:04N 39°05' E 117°46'9851913.9
2016-May-28 07:33N 23°05' E 113°26'659474708.1
2016-May-28 07:33N 31°24' E 121°31'89443.3
2016-May-28 07:33N 31°17' E 121°34'451232019.7
2016-May-28 07:33N 24°25' E 118°05'457410956.0
2016-May-28 07:33N 31°24' E 121°31'2412563.2
2016-May-28 07:33N 31°41' E 121°11'472566561.2
2016-May-28 07:33N 39°04' E 117°50'48291240.3
2016-May-28 07:33N 31°34' E 121°20'62631.2
2016-May-28 07:32N 31°38' E 121°15'4911851.1
2016-May-28 07:32N 32°00' E 120°23'616435.2
2016-May-28 07:32N 31°29' E 121°25'2851285.3
2016-May-28 07:32N 31°01' E 121°28'292519.6
2016-May-28 07:31N 31°30' E 121°22'252540.0
2016-May-28 07:30N 31°05' E 121°28'17397.7
2016-May-28 07:28N 31°22' E 121°29'66427165.0
2016-May-28 07:26N 22°54' E 113°28'6624841.2
2016-May-28 07:18N 31°16' E 121°33'0 0.7
2016-May-28 07:18N 31°16' E 121°33'5829802.8
2016-May-28 07:17N 31°60' E 120°48'31492.1
2016-May-28 07:14N 31°38' E 121°15'477712.8
2016-May-28 06:33N 39°04' E 117°48'481433307.7
2016-May-28 06:33N 31°35' E 121°19'46287586.0
2016-May-28 06:33N 24°25' E 118°05'454181604.8
2016-May-28 06:33N 31°20' E 121°33'137560.1
2016-May-28 06:33N 31°31' E 121°24'1578.3
2016-May-28 06:33N 31°30' E 121°24'2137.7
2016-May-28 06:32N 31°30' E 121°22'6356524.6
2016-May-28 06:32N 31°56' E 120°15'5814794.6
2016-May-28 06:32N 31°36' E 121°18'8772.8
2016-May-28 06:31N 31°41' E 121°11'1812720.6
2016-May-28 06:31N 31°28' E 121°25'8125.5
2016-May-28 06:27N 31°21' E 121°31'2154.7
2016-May-28 06:26N 31°20' E 121°33'2121.6
2016-May-28 06:25N 31°18' E 121°34'286.8
2016-May-28 06:23N 31°20' E 121°33'4231.0
2016-May-28 06:22N 31°22' E 121°29'19278021.6
2016-May-28 06:08N 00°02' E 114°10'190650822.1
2016-May-28 06:05N 31°00' E 121°26'3 5.4
2016-May-28 05:33N 30°59' E 121°23'431776368.4
2016-May-28 05:33N 24°25' E 118°05'466838944.5
2016-May-28 05:33N 31°41' E 121°11'397409.3
2016-May-28 05:33N 31°05' E 121°28'272817.2
2016-May-28 05:33N 31°31' E 121°23'2268.0
2016-May-28 05:32N 31°30' E 121°22'113926.6
2016-May-28 05:32N 31°23' E 121°33'8593.0
2016-May-28 05:31N 31°28' E 121°25'3135.6
2016-May-28 05:30N 31°28' E 121°29'620312.5
2016-May-28 05:30N 31°22' E 121°29'113.8
2016-May-28 05:26N 31°23' E 121°30'49511424.9
2016-May-28 05:23N 39°04' E 117°49'51420783.9
2016-May-28 05:22N 31°02' E 121°29'21377.9
2016-May-28 05:18N 31°23' E 121°33'7917742.2
2016-May-28 05:18N 30°07' E 121°57'7 9.3
2016-May-28 04:33N 30°01' E 121°60'8839594.3
2016-May-28 04:33N 31°25' E 121°31'2010536.3
2016-May-28 04:33N 31°05' E 121°28'2515101.5
2016-May-28 04:33N 31°30' E 121°24'163133.3
2016-May-28 04:33N 31°41' E 121°11'472566567.5
2016-May-28 04:33N 39°04' E 117°50'8791054532.2
2016-May-28 04:33N 24°25' E 118°05'459206522.0
2016-May-28 04:32N 31°30' E 121°22'10895.5
2016-May-28 04:32N 31°22' E 121°29'1334.5
2016-May-28 04:32N 31°21' E 121°30'3213.8
2016-May-28 04:31N 31°24' E 121°32'61810.0
2016-May-28 04:31N 31°21' E 121°38'31834.4
2016-May-28 04:28N 30°58' E 121°15'681869.3
2016-May-28 04:26N 29°59' E 121°54'9611539.0
2016-May-28 04:26N 31°31' E 121°22'477.9
2016-May-28 04:23N 31°28' E 121°25'459558.1
2016-May-28 03:33N 24°25' E 118°05'425765374.7
2016-May-28 03:33N 30°58' E 121°10'4478515.3
2016-May-28 03:33N 31°41' E 121°11'11451504.8
2016-May-28 03:33N 29°56' E 122°02'7520870.4
2016-May-28 03:33N 31°05' E 121°28'262502.5
2016-May-28 03:32N 31°30' E 121°23'5783.0
2016-May-28 03:32N 31°34' E 121°18'48037551.3
2016-May-28 03:31N 39°03' E 117°52'496178426.6
2016-May-28 03:31N 31°21' E 121°31'011.5
2016-May-28 03:29N 31°21' E 121°30'1114.0
2016-May-28 03:28N 31°22' E 121°29'8818548.0
2016-May-28 03:27N 30°00' E 122°05'963508.9
2016-May-28 03:26N 31°30' E 121°24'216.8
2016-May-28 03:19N 31°28' E 121°25'6593373.7
2016-May-28 03:07N 23°05' E 113°26'6431151.5
2016-May-28 02:33N 31°05' E 121°28'1517912.7
2016-May-28 02:33N 30°57' E 121°13'4422689.8
2016-May-28 02:33N 31°41' E 121°11'11985985.3
2016-May-28 02:33N 29°52' E 122°08'8763.7
2016-May-28 02:33N 30°00' E 122°05'397102199.2
2016-May-28 02:32N 24°25' E 118°05'874524156.8
2016-May-28 02:32N 38°39' E 121°41'429220678.4
2016-May-28 02:32N 31°30' E 121°23'10487.9
2016-May-28 02:31N 31°22' E 121°30'657214932.1
2016-May-28 02:31N 23°05' E 113°26'66038947.7
2016-May-28 02:30N 31°39' E 121°13'241012.2
2016-May-28 02:28N 31°21' E 121°33'360.2
2016-May-28 02:25N 31°22' E 121°29'954.5
2016-May-28 02:15N 31°30' E 121°24'2536.6
2016-May-28 01:34N 31°05' E 121°28'1244221.2
2016-May-28 01:34N 30°57' E 121°17'427384633.4
2016-May-28 01:33N 24°25' E 118°05'3921410623.5
2016-May-28 01:33N 29°52' E 122°08'969859.1
2016-May-28 01:33N 31°22' E 121°29'255514.4
2016-May-28 01:33N 31°41' E 121°11'111200250.1
2016-May-28 01:33N 30°00' E 122°05'585116992.7
2016-May-28 01:32N 39°05' E 117°46'500199916.8
2016-May-28 01:32N 31°21' E 121°33'3172.1
2016-May-28 01:31N 31°22' E 121°30'121229.6
2016-May-28 01:31N 31°18' E 121°43'66185042.7
2016-May-28 01:30N 23°05' E 113°26'6412308541.9
2016-May-28 01:30N 31°56' E 120°12'663601.8
2016-May-28 01:29N 31°30' E 121°24'148.5
2016-May-28 01:28N 31°30' E 121°23'12865.0
2016-May-28 01:27N 31°23' E 121°34'457509.7
2016-May-28 00:33N 24°25' E 118°05'39274243.3
2016-May-28 00:33N 29°52' E 122°08'94336646.2
2016-May-28 00:33N 31°21' E 121°32'65769529.7
2016-May-28 00:33N 23°06' E 113°27'65631500.3
2016-May-28 00:31N 31°22' E 121°30'8713085.5
2016-May-28 00:31N 30°00' E 122°05'65142605.2
2016-May-28 00:30N 22°13' E 113°41'133221402.1
2016-May-28 00:26N 00°02' E 114°10'194919767.2
2016-May-28 00:20N 31°58' E 120°18'150189.8
2016-May-27 23:33N 30°00' E 122°05'1856190943.5
2016-May-27 23:32N 00°02' E 114°10'1482197548.1
2016-May-27 23:32N 24°25' E 118°05'4571644232.2
2016-May-27 23:32N 31°23' E 121°34'975352.7
2016-May-27 23:31N 29°51' E 122°08'90235.6
2016-May-27 23:08N 31°16' E 121°33'450777.0
2016-May-27 22:33N 24°25' E 118°05'397476894.9
2016-May-27 22:33N 30°00' E 122°05'15382.2
2016-May-27 22:31N 29°45' E 122°03'184187212.7
2016-May-27 22:30N 00°02' E 114°10'192738109.9
2016-May-27 22:26N 31°20' E 121°33'454514.2
2016-May-27 21:34N 24°25' E 118°05'148293575.8
2016-May-27 21:33N 00°02' E 114°10'1856351739.9
2016-May-27 21:32N 30°00' E 122°05'8122306.0
2016-May-27 21:32N 31°16' E 121°33'1771.6
2016-May-27 21:18N 31°30' E 121°23'131174.7
2016-May-27 21:17N 31°21' E 121°33'454615.7
2016-May-27 20:33N 24°25' E 118°05'39714599.5
2016-May-27 20:31N 30°00' E 122°05'62234454.6
2016-May-27 20:30N 23°05' E 113°27'6575712.5
2016-May-27 20:23N 31°20' E 121°33'454545.9
2016-May-27 19:34N 24°25' E 118°05'39771526.1
2016-May-27 19:33N 30°00' E 122°05'19639.0
2016-May-27 19:31N 29°42' E 122°05'11210900.0
2016-May-27 19:31N 31°28' E 121°25'10413.8
2016-May-27 19:29N 31°21' E 121°33'136.1
2016-May-27 19:28N 31°20' E 121°33'41440.3
2016-May-27 19:28N 31°23' E 121°33'6568719.1
2016-May-27 19:23N 23°05' E 113°33'66028634.5
2016-May-27 19:22N 31°59' E 120°50'50328.3
2016-May-27 19:13N 31°22' E 121°29'4495748.1
2016-May-27 19:08N 38°51' E 121°34'8831520.3
2016-May-27 18:33N 24°25' E 118°05'883317812.3
2016-May-27 18:33N 38°50' E 121°33'530106099.4
2016-May-27 18:33N 30°00' E 122°05'193715.6
2016-May-27 18:32N 29°42' E 122°05'1055995.8
2016-May-27 18:31N 31°23' E 121°34'3117.4
2016-May-27 18:30N 31°21' E 121°33'44857594.2
2016-May-27 18:30N 38°49' E 121°36'44936736.0
2016-May-27 18:29N 31°20' E 121°33'65660594.9
2016-May-27 18:28N 23°06' E 113°27'65828548.6
2016-May-27 18:27N 31°28' E 121°25'5157.6
2016-May-27 17:33N 31°60' E 120°38'15733262.9
2016-May-27 17:33N 29°42' E 122°05'1916714.6
2016-May-27 17:33N 30°00' E 122°05'8724142.7
2016-May-27 17:33N 31°23' E 121°34'66395413.4
2016-May-27 17:32N 22°55' E 113°36'65910883.4
2016-May-27 17:29N 31°22' E 121°29'10612.8
2016-May-27 17:28N 31°30' E 121°23'65610684.5
2016-May-27 17:24N 23°05' E 113°33'520.1
2016-May-27 17:10N 23°06' E 113°27'6101013.6
2016-May-27 16:33N 29°42' E 122°05'610168883.2
2016-May-27 16:33N 23°06' E 113°27'266191712.1
2016-May-27 16:33N 24°25' E 118°05'397102182.8
2016-May-27 16:33N 30°00' E 122°05'4484629.5
2016-May-27 16:27N 37°26' E 122°52'98715386.3
2016-May-27 16:23N 23°05' E 113°33'65311875.2
2016-May-27 16:20N 31°22' E 121°29'45182.4
2016-May-27 16:05N 31°55' E 120°52'213442.3
2016-May-27 16:05N 31°41' E 121°11'466896.3
2016-May-27 15:33N 24°25' E 118°05'39518479.7
2016-May-27 15:32N 30°02' E 121°57'52954390.8
2016-May-27 15:32N 38°51' E 121°33'550179882.8
2016-May-27 15:31N 29°42' E 122°05'1503535.9
2016-May-27 15:29N 31°58' E 120°51'461244.9
2016-May-27 15:27N 32°02' E 119°57'87221.0
2016-May-27 15:03N 31°22' E 121°29'6881228.5
2016-May-27 15:03N 32°01' E 120°24'472961.1
2016-May-27 14:33N 24°25' E 118°05'45765780.4
2016-May-27 14:33N 31°23' E 121°35'66038926.5
2016-May-27 14:32N 23°06' E 113°27'61111880.3
2016-May-27 14:29N 29°42' E 122°06'1643653.7
2016-May-27 14:26N 31°59' E 120°21'69721.1
2016-May-27 14:21N 31°22' E 121°29'1095.7
2016-May-27 14:14N 31°30' E 121°23'65293893.9
2016-May-27 14:14N 23°06' E 113°37'102977157.3
2016-May-27 14:13N 38°51' E 121°34'4123806.2
2016-May-27 14:07N 32°00' E 120°44'3460.3
2016-May-27 13:33N 31°58' E 120°04'638765974.4
2016-May-27 13:33N 23°06' E 113°27'26787309.6
2016-May-27 13:33N 24°25' E 118°05'45414093.5
2016-May-27 13:31N 31°22' E 121°29'7110194.0
2016-May-27 13:30N 31°57' E 120°16'16398098.3
2016-May-27 13:30N 29°42' E 122°05'1563976.0
2016-May-27 13:28N 31°60' E 120°40'66657084.3
2016-May-27 13:27N 22°53' E 113°31'66326831.9
2016-May-27 13:26N 31°22' E 121°29'320.0
2016-May-27 13:16N 31°21' E 121°33'854774.4
2016-May-27 13:14N 31°58' E 120°03'465677.9
2016-May-27 12:33N 24°25' E 118°05'47747671.4
2016-May-27 12:33N 32°01' E 120°44'541765.1
2016-May-27 12:31N 31°22' E 121°29'763351.7
2016-May-27 12:30N 31°57' E 120°09'31134950.7
2016-May-27 12:29N 26°47' E 119°43'3114022.1
2016-May-27 12:24N 31°57' E 120°10'76902.8
2016-May-27 12:19N 31°22' E 121°29'7538623.9
2016-May-27 12:19N 31°56' E 120°10'773227.2
2016-May-27 12:18N 31°21' E 121°31'6577904.7
2016-May-27 12:13N 23°05' E 113°27'267403.2
2016-May-27 11:33N 24°25' E 118°05'454102178.1
2016-May-27 11:33N 31°22' E 121°29'7243353.6
2016-May-27 11:33N 31°57' E 120°14'735942.4
2016-May-27 11:32N 31°23' E 121°30'3981.8
2016-May-27 11:32N 31°21' E 121°33'741197.3
2016-May-27 11:28N 31°57' E 120°17'45966.2
2016-May-27 11:25N 31°43' E 121°07'66013340.2
2016-May-27 11:22N 23°06' E 113°26'65713280.6
2016-May-27 11:19N 31°21' E 121°31'81470.7
2016-May-27 11:09N 31°57' E 120°05'166280.8
2016-May-27 10:33N 29°46' E 122°04'38537463.2
2016-May-27 10:33N 24°25' E 118°05'26731026.3
2016-May-27 10:32N 23°05' E 113°26'653470500.8
2016-May-27 10:32N 32°02' E 120°27'34527033.7
2016-May-27 10:31N 37°47' E 120°15'3815937.6
2016-May-27 10:28N 31°30' E 121°23'17244.7
2016-May-27 10:24N 31°16' E 121°34'6192.6
2016-May-27 10:22N 31°20' E 121°40'786097.8
2016-May-27 10:21N 31°60' E 120°21'69249365.1
2016-May-27 10:21N 31°22' E 121°29'398498.7
2016-May-27 09:33N 37°55' E 120°17'49226434.5
2016-May-27 09:32N 29°52' E 122°07'392201373.1
2016-May-27 09:32N 24°25' E 118°05'45746964.9
2016-May-27 09:31N 31°21' E 121°37'15950.9
2016-May-27 09:30N 31°30' E 121°23'10999.6
2016-May-27 09:30N 31°22' E 121°29'681354.8
2016-May-27 09:27N 32°02' E 120°24'6527158.9
2016-May-27 09:21N 23°05' E 113°26'6506606.9
2016-May-27 09:15N 32°00' E 120°23'771739.1
2016-May-27 09:13N 31°21' E 121°40'65823943.2
2016-May-27 09:11N 23°05' E 113°33'6361018.3
2016-May-27 08:34N 31°17' E 121°05'44161106.1
2016-May-27 08:33N 24°25' E 118°05'26745777.7
2016-May-27 08:33N 23°05' E 113°26'65921765.7
2016-May-27 08:31N 31°30' E 121°23'3176.5
2016-May-27 08:30N 31°28' E 121°25'141055.0
2016-May-27 08:29N 31°16' E 121°33'40616435.7
2016-May-27 08:28N 37°57' E 120°18'39912702.5
2016-May-27 08:26N 31°23' E 121°30'7244.0
2016-May-27 08:24N 31°22' E 121°39'849.0
2016-May-27 08:14N 31°22' E 121°29'171062.8
2016-May-27 08:13N 31°05' E 121°28'69431.7
2016-May-27 08:03N 32°00' E 120°39'359719.9
2016-May-27 07:33N 37°58' E 120°19'40463183.0
2016-May-27 07:33N 31°17' E 121°08'2024041.3
2016-May-27 07:33N 31°06' E 121°28'81291908.7
2016-May-27 07:33N 29°52' E 122°07'392234950.1
2016-May-27 07:33N 24°25' E 118°05'46025459.4
2016-May-27 07:32N 31°30' E 121°23'26199.7
2016-May-27 07:24N 31°05' E 121°28'67288.5
2016-May-27 07:10N 32°01' E 120°44'29465.5
2016-May-27 07:06N 31°56' E 120°11'464853.8
2016-May-27 06:34N 24°25' E 118°05'459413381.7
2016-May-27 06:33N 31°29' E 121°25'10172838.3
2016-May-27 06:33N 29°55' E 122°07'78524.0
2016-May-27 06:24N 31°05' E 121°28'231171.5
2016-May-27 06:23N 31°28' E 121°25'39516144.0
2016-May-27 06:22N 37°59' E 120°19'36020894.0
2016-May-27 06:21N 32°00' E 120°49'30911.9
2016-May-27 06:19N 31°39' E 121°15'465614.5
2016-May-27 05:33N 24°25' E 118°05'438394399.9
2016-May-27 05:33N 31°05' E 121°28'333449.5
2016-May-27 05:33N 31°36' E 121°17'38622079.3
2016-May-27 05:32N 37°60' E 120°19'36313899.7
2016-May-27 05:30N 31°58' E 120°51'411134.9
2016-May-27 05:28N 31°28' E 121°25'9710604.1
2016-May-27 05:27N 29°56' E 121°60'1341874.1
2016-May-27 05:23N 31°56' E 120°52'462035.1
2016-May-27 05:22N 31°22' E 121°29'11061.4
2016-May-27 05:22N 31°22' E 121°30'151.8
2016-May-27 05:20N 31°23' E 121°31'6585498.9
2016-May-27 05:13N 23°05' E 113°26'614925.6
2016-May-27 04:33N 29°57' E 121°55'10110656.4
2016-May-27 04:33N 31°33' E 121°20'46187428.9
2016-May-27 04:33N 24°25' E 118°05'438225368.6
2016-May-27 04:32N 31°05' E 121°28'153899.3
2016-May-27 04:32N 31°19' E 121°34'4483.5
2016-May-27 04:32N 31°22' E 121°37'4403.8
2016-May-27 04:31N 31°21' E 121°33'657107578.7
2016-May-27 04:31N 23°05' E 113°26'96211318.8
2016-May-27 04:26N 37°60' E 120°19'40228358.0
2016-May-27 04:25N 31°22' E 121°29'17252.5
2016-May-27 04:21N 31°06' E 121°28'2742351.4
2016-May-27 04:14N 26°47' E 119°42'167247.8
2016-May-27 03:34N 24°25' E 118°05'43835853.6
2016-May-27 03:33N 31°05' E 121°28'2611865.4
2016-May-27 03:33N 31°31' E 121°24'942952.1
2016-May-27 03:31N 29°59' E 121°47'78280106.8
2016-May-27 03:31N 31°16' E 121°33'654107025.3
2016-May-27 03:30N 23°05' E 113°26'65747331.1
2016-May-27 03:30N 31°21' E 121°33'29026091.2
2016-May-27 03:29N 26°47' E 119°42'67138949.8
2016-May-27 03:28N 37°57' E 120°19'39925675.7
2016-May-27 03:27N 31°22' E 121°29'336.3
2016-May-27 03:22N 31°21' E 121°26'848.4
2016-May-27 03:11N 31°17' E 121°34'78123.1
2016-May-27 02:33N 29°59' E 121°47'147264083.5
2016-May-27 02:33N 31°58' E 120°06'46555779.9
2016-May-27 02:33N 24°25' E 118°05'43843821.7
2016-May-27 02:32N 31°05' E 121°28'27530986.1
2016-May-27 02:32N 26°45' E 119°43'28415755.0
2016-May-27 02:31N 31°14' E 121°30'151858.5
2016-May-27 02:30N 31°29' E 121°27'14278.5
2016-May-27 02:27N 31°16' E 121°33'40845887.1
2016-May-27 02:27N 37°59' E 120°19'40243804.2
2016-May-27 02:26N 31°22' E 121°30'126.2
2016-May-27 02:24N 31°22' E 121°29'6566217.7
2016-May-27 02:18N 23°05' E 113°26'55811.6
2016-May-27 02:14N 22°10' E 113°31'69826455.1
2016-May-27 02:12N 31°21' E 121°33'454704.0
2016-May-27 01:33N 24°25' E 118°05'42071993.9
2016-May-27 01:33N 31°25' E 118°04'17518027.9
2016-May-27 01:32N 31°05' E 121°28'5412205104.3
2016-May-27 01:31N 48°25' W 123°24'53982775930.6
2016-May-27 01:31N 31°22' E 121°29'7313.6
2016-May-27 01:29N 31°16' E 121°33'11234.7
2016-May-27 01:26N 31°27' E 121°29'440.9
2016-May-27 01:21N 31°28' E 121°25'143206.1
2016-May-27 01:21N 31°15' E 121°33'65411100.4
2016-May-27 01:17N 23°05' E 113°26'962164843.6
2016-May-27 01:17N 37°60' E 120°17'4046242.7
2016-May-27 01:13N 31°21' E 121°33'454687.7
2016-May-27 00:33N 24°25' E 118°05'438157758.0
2016-May-27 00:33N 31°05' E 121°28'5417780078.9
2016-May-27 00:33N 48°24' W 123°18'54009719829.8
2016-May-27 00:33N 31°29' E 121°25'271969.1
2016-May-27 00:32N 31°02' E 121°29'235182.8
2016-May-27 00:32N 31°25' E 121°32'5352.6
2016-May-27 00:31N 31°19' E 121°34'602640.1
2016-May-27 00:29N 32°01' E 120°42'1916710.5
2016-May-27 00:29N 31°59' E 120°21'3156957.9
2016-May-27 00:27N 26°45' E 119°43'2903804.2
2016-May-27 00:22N 31°19' E 121°33'598.5
2016-May-27 00:19N 31°22' E 121°29'65618175.1
2016-May-27 00:17N 23°05' E 113°26'267369.8
2016-May-26 23:33N 24°25' E 118°05'5905787355.5
2016-May-26 23:33N 48°29' W 123°16'54012430317.1
2016-May-26 23:33N 31°22' E 121°30'17824.1
2016-May-26 23:32N 31°05' E 121°28'1513647.4
2016-May-26 23:32N 31°19' E 121°34'15167.9
2016-May-26 23:26N 31°06' E 121°28'25585.5
2016-May-26 23:24N 31°30' E 121°24'2530.2
2016-May-26 22:33N 31°05' E 121°28'256080.5
2016-May-26 22:33N 31°30' E 121°24'294606.2
2016-May-26 22:33N 31°01' E 121°28'43510428.8
2016-May-26 22:30N 24°25' E 118°05'0 0.0
2016-May-26 21:33N 24°25' E 118°05'43858428.2
2016-May-26 21:32N 31°05' E 121°28'15910.2
2016-May-26 21:31N 31°19' E 121°34'14485.9
2016-May-26 21:29N 31°30' E 121°24'301724.4
2016-May-26 21:28N 31°00' E 121°26'4228525.9
2016-May-26 21:25N 37°58' E 120°17'417481.5
2016-May-26 20:33N 31°05' E 121°28'41817682.5
2016-May-26 20:32N 37°58' E 120°17'42212759.9
2016-May-26 20:30N 31°00' E 121°26'43325572.7
2016-May-26 20:29N 24°25' E 118°05'285513056.5
2016-May-26 20:29N 22°10' E 113°32'7018379.1
2016-May-26 20:24N 31°30' E 121°24'6592608.1
2016-May-26 20:09N 23°05' E 113°26'64529370.3
2016-May-26 20:07N 31°57' E 120°17'54149329.4
2016-May-26 19:33N 48°55' W 123°18'5404360260.0
2016-May-26 19:32N 31°05' E 121°28'438262926.8
2016-May-26 19:32N 24°25' E 118°05'46057062.3
2016-May-26 19:31N 31°30' E 121°24'15121.0
2016-May-26 19:24N 31°41' E 121°11'3686534.8
2016-May-26 19:20N 37°43' E 122°35'4065850.2
2016-May-26 19:16N 31°00' E 121°26'63811043.4
2016-May-26 19:13N 23°05' E 113°27'9951516.9
2016-May-26 18:33N 37°39' E 122°41'50211390531.5
2016-May-26 18:33N 49°02' W 123°19'5405555924.6
2016-May-26 18:33N 31°00' E 121°26'43377997.8
2016-May-26 18:32N 24°25' E 118°05'463166631.6
2016-May-26 18:32N 31°36' E 121°18'3210490.5
2016-May-26 18:32N 31°05' E 121°28'64424399.3
2016-May-26 18:30N 23°01' E 113°31'6607135.6
2016-May-26 18:25N 31°30' E 121°24'2529.6
2016-May-26 17:33N 31°05' E 121°28'438131463.4
2016-May-26 17:33N 24°25' E 118°05'460331417.3
2016-May-26 17:33N 31°30' E 121°25'37036970.6
2016-May-26 17:32N 37°34' E 122°49'501694547.8
2016-May-26 17:29N 49°10' W 123°18'538294972.2
2016-May-26 17:26N 31°22' E 121°29'22633.4
2016-May-26 17:24N 31°00' E 121°26'42331089.3
2016-May-26 17:23N 37°60' E 120°17'40239119.0
2016-May-26 17:22N 31°22' E 121°29'4497588.4
2016-May-26 17:19N 38°51' E 121°33'4492982.1
2016-May-26 17:10N 31°22' E 121°30'3365823.1
2016-May-26 17:06N 26°02' E 119°30'339621.3
2016-May-26 16:34N 31°25' E 121°31'391128065.9
2016-May-26 16:33N 37°49' E 119°58'7071272008.6
2016-May-26 16:33N 26°02' E 119°30'21363838.9
2016-May-26 16:33N 22°33' E 120°12'162145434.7
2016-May-26 16:33N 24°25' E 118°05'58881766392.3
2016-May-26 16:33N 49°17' W 123°17'5400186928.1
2016-May-26 16:31N 31°00' E 121°26'223740.2
2016-May-26 16:31N 31°22' E 121°29'9195.8
2016-May-26 16:28N 31°30' E 121°24'12948.7
2016-May-26 16:27N 31°21' E 121°33'1267.9
2016-May-26 16:27N 31°19' E 121°34'4053524.6
2016-May-26 16:20N 37°60' E 120°17'4026639.4
2016-May-26 16:16N 31°22' E 121°29'1 4.0
2016-May-26 16:04N 31°22' E 121°30'455898.2
2016-May-26 15:34N 24°25' E 118°05'4541633764.9
2016-May-26 15:34N 31°20' E 121°33'53842769063.4
2016-May-26 15:33N 49°19' W 123°08'5385587416.8
2016-May-26 15:33N 31°19' E 121°34'390702819.5
2016-May-26 15:33N 37°43' E 120°07'40810568.1
2016-May-26 15:30N 31°00' E 121°26'21733.5
2016-May-26 15:29N 31°21' E 121°33'4048761.0
2016-May-26 15:26N 37°60' E 120°17'4029164.0
2016-May-26 15:23N 31°22' E 121°30'3369687.2
2016-May-26 15:21N 26°02' E 119°30'3423635.9
2016-May-26 15:16N 31°30' E 121°24'9865.8
2016-May-26 15:15N 31°22' E 121°29'609441.2
2016-May-26 15:15N 32°02' E 120°35'3448364.2
2016-May-26 15:12N 37°20' E 123°13'3675552.6
2016-May-26 15:08N 31°22' E 121°37'65810172.4
2016-May-26 15:04N 23°04' E 113°32'9411821.2
2016-May-26 14:33N 37°39' E 120°15'38987480.5
2016-May-26 14:33N 31°15' E 121°29'44750339.9
2016-May-26 14:33N 24°25' E 118°05'456410715.6
2016-May-26 14:32N 31°24' E 121°31'91119.1
2016-May-26 14:32N 31°30' E 121°24'9332.3
2016-May-26 14:30N 31°22' E 121°29'5239.7
2016-May-26 14:29N 31°19' E 121°34'6881238117.5
2016-May-26 14:29N 22°15' E 113°43'1004602610.8
2016-May-26 14:29N 37°60' E 120°17'36015800.1
2016-May-26 14:28N 32°00' E 120°38'72801.5
2016-May-26 14:22N 31°00' E 121°26'222533.7
2016-May-26 14:22N 31°22' E 121°29'346.3
2016-May-26 14:17N 31°21' E 121°33'454618.5
2016-May-26 13:33N 24°25' E 118°05'453543952.9
2016-May-26 13:33N 31°19' E 121°34'2014452.0
2016-May-26 13:33N 31°00' E 121°26'21957.7
2016-May-26 13:32N 31°21' E 121°33'45042610.0
2016-May-26 13:31N 38°50' E 121°33'78922.7
2016-May-26 13:26N 37°60' E 120°17'36064723.8
2016-May-26 13:26N 32°01' E 120°43'664623.8
2016-May-26 13:25N 31°08' E 121°28'231668.7
2016-May-26 13:24N 31°30' E 121°24'122325.6
2016-May-26 13:24N 31°21' E 121°32'65427390.3
2016-May-26 13:22N 23°04' E 113°32'65490534.4
2016-May-26 13:22N 31°22' E 121°29'38111415.5
2016-May-26 13:20N 37°38' E 120°18'3811369860.2
2016-May-26 13:20N 31°22' E 121°29'142.4
2016-May-26 13:19N 31°22' E 121°30'454601.8
2016-May-26 12:33N 24°25' E 118°05'454163470.0
2016-May-26 12:33N 31°21' E 121°33'152650.1
2016-May-26 12:33N 31°06' E 121°28'151066.6
2016-May-26 12:32N 31°19' E 121°34'405145937.4
2016-May-26 12:32N 37°60' E 120°17'39425762.0
2016-May-26 12:31N 31°30' E 121°24'9747.3
2016-May-26 12:30N 31°22' E 121°29'0 1.3
2016-May-26 12:30N 31°22' E 121°29'65421400.3
2016-May-26 12:28N 23°04' E 113°32'65429446.1
2016-May-26 12:27N 31°22' E 121°30'23549.9
2016-May-26 12:24N 30°60' E 121°25'5376.7
2016-May-26 12:24N 31°04' E 121°28'663859.8
2016-May-26 12:23N 32°01' E 120°48'3383383.3
2016-May-26 12:17N 37°38' E 120°18'932746.7
2016-May-26 12:15N 38°50' E 121°33'467683.1
2016-May-26 11:34N 31°03' E 121°28'94093.3
2016-May-26 11:33N 30°59' E 121°19'430220905.6
2016-May-26 11:33N 24°25' E 118°05'803206601.5
2016-May-26 11:33N 37°41' E 120°12'191072.1
2016-May-26 11:32N 37°60' E 120°17'4046351.9
2016-May-26 11:28N 31°21' E 121°33'3622.2
2016-May-26 11:28N 31°22' E 121°29'1252.9
2016-May-26 11:28N 31°22' E 121°30'4149.9
2016-May-26 11:26N 31°19' E 121°34'14445.3
2016-May-26 11:24N 31°30' E 121°24'95483.3
2016-May-26 11:24N 31°22' E 121°29'791209.1
2016-May-26 11:20N 31°58' E 120°06'6384878.4
2016-May-26 11:12N 23°03' E 113°32'6268468.2
2016-May-26 11:08N 30°57' E 121°11'4127032.0
2016-May-26 11:04N 37°50' E 121°18'8211595.3
2016-May-26 10:33N 24°25' E 118°05'43849298.8
2016-May-26 10:33N 31°05' E 121°28'62899.5
2016-May-26 10:33N 30°60' E 121°25'111669.3
2016-May-26 10:32N 30°57' E 121°13'281772.7
2016-May-26 10:31N 31°19' E 121°34'657107437.3
2016-May-26 10:31N 23°03' E 113°30'95140777.5
2016-May-26 10:30N 37°50' E 120°11'112235.9
2016-May-26 10:29N 37°60' E 120°18'40055334.5
2016-May-26 10:29N 31°25' E 121°33'322114.9
2016-May-26 10:28N 30°58' E 121°14'33326.9
2016-May-26 10:22N 31°30' E 121°24'9456.9
2016-May-26 10:21N 31°22' E 121°29'0 0.0
2016-May-26 10:06N 31°22' E 121°29'5 8.9
2016-May-26 09:33N 31°19' E 121°34'2428304.7
2016-May-26 09:33N 30°59' E 121°20'0190.2
2016-May-26 09:33N 30°59' E 121°20'423126875.2
2016-May-26 09:33N 37°58' E 120°08'8192949816.7
2016-May-26 09:33N 24°25' E 118°05'269138472.3
2016-May-26 09:33N 23°03' E 113°25'6461162837.5
2016-May-26 09:33N 31°05' E 121°28'2036744.0
2016-May-26 09:33N 31°25' E 121°33'39979807.4
2016-May-26 09:33N 37°59' E 120°18'3936701.3
2016-May-26 09:29N 31°30' E 121°24'9161.3
2016-May-26 09:26N 31°22' E 121°29'0 0.0
2016-May-26 09:18N 31°22' E 121°29'52372.6
2016-May-26 09:09N 32°01' E 120°48'64859.1
2016-May-26 09:05N 31°07' E 121°28'1323.9
2016-May-26 08:34N 30°58' E 121°18'71854.3
2016-May-26 08:33N 31°00' E 121°26'4201512843.8
2016-May-26 08:33N 37°57' E 120°17'81934291.4
2016-May-26 08:32N 24°25' E 118°05'27416997.3
2016-May-26 08:31N 23°03' E 113°20'649194738.9
2016-May-26 08:31N 31°05' E 121°28'152183.6
2016-May-26 08:30N 31°19' E 121°34'2615856.6
2016-May-26 08:30N 30°58' E 121°16'331007.1
2016-May-26 08:28N 31°30' E 121°24'21860.0
2016-May-26 08:27N 31°45' E 121°06'303568.6
2016-May-26 08:26N 31°22' E 121°29'520.9
2016-May-26 08:13N 31°25' E 121°33'4004755.3
2016-May-26 08:08N 37°59' E 120°08'420731.8
2016-May-26 07:33N 31°04' E 121°28'437524771.2
2016-May-26 07:33N 24°25' E 118°05'4381577580.1
2016-May-26 07:33N 31°05' E 121°28'253385.4
2016-May-26 07:33N 31°30' E 121°24'39039029.6
2016-May-26 07:32N 37°57' E 120°18'399130539.0
2016-May-26 07:32N 31°22' E 121°29'241155.3
2016-May-26 07:31N 31°41' E 121°12'24665.0
2016-May-26 07:29N 31°25' E 121°33'4164.0
2016-May-26 07:27N 31°21' E 121°33'6659927.2
2016-May-26 07:23N 22°54' E 113°30'6513700.8
2016-May-26 07:13N 31°56' E 120°14'29190.3
2016-May-26 07:03N 31°60' E 120°48'64128.7
2016-May-26 06:33N 31°05' E 121°28'438525860.0
2016-May-26 06:33N 24°25' E 118°05'45362763.8
2016-May-26 06:33N 31°19' E 121°34'610000.1
2016-May-26 06:33N 31°25' E 121°33'4256.9
2016-May-26 06:32N 31°21' E 121°32'31071.0
2016-May-26 06:32N 31°22' E 121°29'202127.9
2016-May-26 06:31N 31°38' E 121°15'4017833.6
2016-May-26 06:31N 30°59' E 121°20'42215486.8
2016-May-26 06:29N 37°57' E 120°18'3915434.9
2016-May-26 06:25N 31°30' E 121°24'627.7
2016-May-26 06:11N 31°35' E 121°19'3149.5
2016-May-26 05:33N 31°05' E 121°28'328190.2
2016-May-26 05:33N 31°36' E 121°18'217572.5
2016-May-26 05:33N 31°19' E 121°34'45347995.3
2016-May-26 05:32N 24°25' E 118°05'46175424.9
2016-May-26 05:32N 31°32' E 121°22'192040.3
2016-May-26 05:31N 31°14' E 121°30'10601.7
2016-May-26 05:30N 31°23' E 121°34'7589562.0
2016-May-26 05:30N 31°57' E 120°16'796203.6
2016-May-26 05:30N 30°59' E 121°20'4227915.2
2016-May-26 05:26N 37°58' E 120°18'3984436.9
2016-May-26 05:21N 31°25' E 121°33'10568.5
2016-May-26 05:20N 31°30' E 121°24'2532.7
2016-May-26 04:33N 31°05' E 121°28'4381577560.3
2016-May-26 04:33N 24°25' E 118°05'46179026.0
2016-May-26 04:33N 31°32' E 121°22'3425.1
2016-May-26 04:33N 31°30' E 121°25'124.1
2016-May-26 04:29N 31°30' E 121°24'9456.2
2016-May-26 04:28N 31°22' E 121°29'7251.5
2016-May-26 04:26N 31°15' E 121°30'136883.8
2016-May-26 04:26N 31°28' E 121°28'10502.8
2016-May-26 04:25N 31°19' E 121°34'2179.2
2016-May-26 04:09N 31°17' E 121°09'221530.0
2016-May-26 04:08N 31°25' E 121°33'5 7.8
2016-May-26 03:33N 31°27' E 121°29'459150141.0
2016-May-26 03:33N 24°25' E 118°05'43892797.7
2016-May-26 03:33N 31°05' E 121°28'42124039.9
2016-May-26 03:32N 38°01' E 120°09'40134390.3
2016-May-26 03:31N 31°25' E 121°31'81597.2
2016-May-26 03:31N 31°30' E 121°24'96564.9
2016-May-26 03:31N 31°22' E 121°29'213992.1
2016-May-26 03:31N 31°17' E 121°05'282169140.2
2016-May-26 03:30N 26°44' E 119°44'291174843.0
2016-May-26 03:30N 31°19' E 121°34'66648.6
2016-May-26 03:30N 31°25' E 121°33'58114.9
2016-May-26 03:30N 31°20' E 121°33'4034215.9
2016-May-26 03:25N 37°58' E 120°18'821965.6
2016-May-26 02:34N 24°25' E 118°05'455116935.1
2016-May-26 02:33N 31°22' E 121°30'1231.6
2016-May-26 02:33N 31°22' E 121°29'39932629.4
2016-May-26 02:32N 37°57' E 120°18'416149623.9
2016-May-26 02:32N 31°05' E 121°28'20874.9
2016-May-26 02:31N 31°25' E 121°33'231691.8
2016-May-26 02:30N 31°03' E 121°29'21686.2
2016-May-26 02:28N 31°24' E 121°31'129.1
2016-May-26 02:26N 31°24' E 121°32'40184893.1
2016-May-26 02:26N 37°59' E 120°08'40415998.8
2016-May-26 02:24N 31°21' E 121°33'226.9
2016-May-26 02:21N 31°19' E 121°34'14843.6
2016-May-26 02:20N 31°30' E 121°24'460590.5
2016-May-26 01:33N 24°25' E 118°05'27516753.4
2016-May-26 01:32N 22°15' E 113°42'68955117.3
2016-May-26 01:32N 31°21' E 121°33'40315416.6
2016-May-26 01:30N 37°58' E 120°18'4018057.5
2016-May-26 01:27N 31°22' E 121°29'4325.5
2016-May-26 01:26N 31°26' E 121°29'82463.5
2016-May-26 01:26N 31°19' E 121°34'61049.8
2016-May-26 01:26N 31°25' E 121°33'6176.9
2016-May-26 01:24N 31°19' E 121°34'5134.4
2016-May-26 01:21N 31°24' E 121°31'9362.8
2016-May-26 01:20N 31°30' E 121°24'1114.8
2016-May-26 00:33N 31°23' E 121°34'44482.0
2016-May-26 00:33N 31°19' E 121°34'62006.8
2016-May-26 00:33N 31°15' E 121°30'448230309.3
2016-May-26 00:33N 24°25' E 118°05'45913338.6
2016-May-26 00:31N 31°30' E 121°23'10682.8
2016-May-26 00:30N 31°22' E 121°29'91564.0
2016-May-26 00:30N 31°30' E 121°24'121319.9
2016-May-26 00:29N 31°21' E 121°33'4167.1
2016-May-26 00:28N 31°24' E 121°31'4056814.3
2016-May-26 00:24N 38°04' E 120°17'4043293.9
2016-May-26 00:17N 31°25' E 121°33'4021903.4
2016-May-26 00:04N 38°01' E 120°08'406785.7
2016-May-25 23:33N 31°20' E 121°33'2518169.7
2016-May-25 23:33N 30°58' E 121°19'42985772.0
2016-May-25 23:33N 24°25' E 118°05'42761468.2
2016-May-25 23:33N 30°58' E 121°14'1761108.0
2016-May-25 23:33N 31°10' E 121°28'41820317.0
2016-May-25 23:31N 38°04' E 120°17'2309415530.6
2016-May-25 23:31N 00°02' E 114°10'1927198182.6
2016-May-25 23:30N 31°21' E 121°33'488.1
2016-May-25 23:28N 31°24' E 121°31'69918787.8
2016-May-25 23:26N 22°11' E 113°32'69720394.4
2016-May-25 23:24N 31°22' E 121°29'9670.7
2016-May-25 23:23N 31°30' E 121°24'66710388.9
2016-May-25 23:19N 22°54' E 113°30'9695478.1
2016-May-25 23:08N 37°60' E 120°08'42011635.1
2016-May-25 23:06N 31°05' E 121°28'1 1.1
2016-May-25 22:33N 31°04' E 121°28'4381575936.2
2016-May-25 22:33N 24°25' E 118°05'45328629.1
2016-May-25 22:32N 31°19' E 121°34'253403.3
2016-May-25 22:32N 30°58' E 121°19'0334.4
2016-May-25 22:32N 30°58' E 121°18'111100.0
2016-May-25 22:31N 31°05' E 121°28'124214.6
2016-May-25 22:31N 31°16' E 121°33'211356.5
2016-May-25 22:30N 31°11' E 121°09'251176.9
2016-May-25 22:29N 31°25' E 121°33'2150.2
2016-May-25 22:28N 31°24' E 121°31'19301389344.9
2016-May-25 22:28N 00°02' E 114°10'192733847.5
2016-May-25 22:25N 31°22' E 121°29'4052150.7
2016-May-25 22:13N 38°03' E 120°17'3975899.1
2016-May-25 22:09N 31°30' E 121°24'12139.6
2016-May-25 22:04N 31°21' E 121°33'2344.2
2016-May-25 21:33N 30°59' E 121°23'1832744.0
2016-May-25 21:33N 31°11' E 121°07'436785121.3
2016-May-25 21:33N 24°25' E 118°05'438788780.1
2016-May-25 21:33N 31°05' E 121°28'151654.2
2016-May-25 21:33N 31°19' E 121°34'21314.9
2016-May-25 21:33N 31°21' E 121°32'123029.1
2016-May-25 21:32N 31°30' E 121°24'327206.8
2016-May-25 21:32N 30°58' E 121°19'251421.2
2016-May-25 21:31N 31°21' E 121°33'211232.6
2016-May-25 21:30N 31°01' E 121°27'28706.1
2016-May-25 21:28N 31°28' E 121°25'193342948.9
2016-May-25 21:25N 00°02' E 114°10'19307735.8
2016-May-25 21:10N 31°24' E 121°31'234.0
2016-May-25 21:06N 31°25' E 121°33'2037.5
2016-May-25 20:34N 31°05' E 121°28'4381577540.7
2016-May-25 20:34N 24°25' E 118°05'458149950.6
2016-May-25 20:33N 31°25' E 121°33'2412304.7
2016-May-25 20:33N 31°01' E 121°29'196668.8
2016-May-25 20:33N 31°19' E 121°34'32577.0
2016-May-25 20:33N 31°16' E 121°34'161186.2
2016-May-25 20:32N 31°30' E 121°24'3655788.9
2016-May-25 20:28N 37°27' E 122°55'3581061.6
2016-May-25 20:08N 31°39' E 121°14'2644.9
2016-May-25 19:33N 31°19' E 121°34'2514747.6
2016-May-25 19:33N 30°58' E 121°19'31126642.7
2016-May-25 19:33N 26°02' E 119°30'322289489.5
2016-May-25 19:33N 31°07' E 121°28'145652.4
2016-May-25 19:32N 31°21' E 121°33'45448080.0
2016-May-25 19:32N 24°25' E 118°05'43813037.5
2016-May-25 19:30N 31°05' E 121°28'231479.8
2016-May-25 19:29N 31°28' E 121°25'851.3
2016-May-25 19:20N 31°25' E 121°33'15476.5
2016-May-25 19:18N 31°34' E 121°19'221014.0
2016-May-25 19:17N 31°16' E 121°33'450616.2
2016-May-25 18:33N 24°25' E 118°05'12415953.5
2016-May-25 18:33N 26°02' E 119°30'33680558.7
2016-May-25 18:32N 31°21' E 121°32'51323.6
2016-May-25 18:32N 31°16' E 121°33'013.2
2016-May-25 18:32N 31°16' E 121°33'16333.1
2016-May-25 18:29N 31°30' E 121°24'37215202.0
2016-May-25 18:27N 37°35' E 122°47'40415137.2
2016-May-25 18:26N 30°58' E 121°19'31259.0
2016-May-25 18:19N 31°28' E 121°25'8276.0
2016-May-25 18:17N 31°25' E 121°33'693.7
2016-May-25 18:13N 31°28' E 121°27'165101.1
2016-May-25 18:13N 31°13' E 121°30'446676.5
2016-May-25 17:33N 24°25' E 118°05'45644415.0
2016-May-25 17:33N 31°24' E 121°31'5262.0
2016-May-25 17:32N 31°19' E 121°33'141167.9
2016-May-25 17:31N 31°30' E 121°24'16786.1
2016-May-25 17:30N 31°16' E 121°33'4233.9
2016-May-25 17:29N 31°19' E 121°34'5472.8
2016-May-25 17:28N 31°15' E 121°32'20420.5
2016-May-25 17:25N 30°58' E 121°19'29512.2
2016-May-25 17:22N 31°25' E 121°33'22447.3
2016-May-25 17:19N 31°39' E 121°14'4322842.8
2016-May-25 17:10N 38°51' E 121°33'473779.8
2016-May-25 16:33N 30°58' E 121°19'42964327.4
2016-May-25 16:33N 24°25' E 118°05'45381591.9
2016-May-25 16:33N 31°19' E 121°34'31027.5
2016-May-25 16:33N 31°21' E 121°31'1280.6
2016-May-25 16:32N 31°22' E 121°30'8276.2
2016-May-25 16:31N 31°28' E 121°25'34119186.3
2016-May-25 16:30N 26°02' E 119°30'33816684.0
2016-May-25 16:28N 31°23' E 121°35'19961.1
2016-May-25 16:27N 31°36' E 121°18'202719.9
2016-May-25 16:27N 31°20' E 121°33'664149418.9
2016-May-25 16:26N 22°51' E 113°34'66659959.7
2016-May-25 16:26N 31°30' E 121°24'957267.8
2016-May-25 16:25N 29°58' E 121°50'88250.4
2016-May-25 16:04N 31°25' E 121°33'458898.4
2016-May-25 15:33N 24°25' E 118°05'45649794.4
2016-May-25 15:33N 31°21' E 121°38'1821567.5
2016-May-25 15:33N 31°32' E 121°22'43921049.5
2016-May-25 15:31N 38°51' E 121°33'45127074.5
2016-May-25 15:30N 31°19' E 121°34'4807.2
2016-May-25 15:30N 31°23' E 121°30'9485.4
2016-May-25 15:29N 31°30' E 121°24'992842.7
2016-May-25 15:27N 29°56' E 122°02'882994.3
2016-May-25 15:25N 31°21' E 121°33'478.1
2016-May-25 15:22N 31°24' E 121°31'24116.9
2016-May-25 15:10N 31°01' E 121°27'787.2
2016-May-25 15:05N 30°58' E 121°19'429809.6
2016-May-25 14:33N 24°25' E 118°05'39093624.0
2016-May-25 14:33N 29°50' E 122°07'1002128.1
2016-May-25 14:30N 31°26' E 121°30'3142.8
2016-May-25 14:29N 31°25' E 121°33'1034390.3
2016-May-25 14:29N 31°30' E 121°24'14104.0
2016-May-25 14:21N 31°19' E 121°34'4515255.5
2016-May-25 14:16N 38°50' E 121°34'773703.8
2016-May-25 14:15N 38°03' E 120°16'101535832.9
2016-May-25 14:13N 22°10' E 113°31'436395.4
2016-May-25 14:13N 22°53' E 113°31'66411335.1
2016-May-25 14:09N 31°21' E 121°33'1626.9
2016-May-25 13:33N 31°05' E 121°28'36207.4
2016-May-25 13:33N 31°02' E 121°29'2623085.4
2016-May-25 13:33N 31°27' E 121°29'45931764.7
2016-May-25 13:32N 24°25' E 118°05'4591653794.2
2016-May-25 13:32N 31°30' E 121°23'744182.4
2016-May-25 13:31N 30°18' E 121°45'409595.5
2016-May-25 13:31N 29°42' E 122°05'114136571.4
2016-May-25 13:31N 31°30' E 121°24'39724237.3
2016-May-25 13:30N 38°03' E 120°16'771408.2
2016-May-25 13:26N 38°51' E 121°33'10832857.5
2016-May-25 13:04N 22°10' E 113°31'7011388.1
2016-May-25 12:33N 31°34' E 121°19'205432.8
2016-May-25 12:33N 31°19' E 121°34'453326367.8
2016-May-25 12:33N 24°25' E 118°05'826141537.0
2016-May-25 12:33N 38°03' E 120°16'423152125.2
2016-May-25 12:33N 31°05' E 121°28'25229.2
2016-May-25 12:26N 31°30' E 121°24'31897.9
2016-May-25 12:24N 30°59' E 121°20'27598.4
2016-May-25 12:21N 31°20' E 121°40'9322.8
2016-May-25 12:19N 31°25' E 121°31'4438490.8
2016-May-25 12:16N 38°49' E 121°39'4442620.3
2016-May-25 12:06N 31°25' E 121°33'3 5.3
2016-May-25 11:33N 31°23' E 121°30'91586.5
2016-May-25 11:33N 31°30' E 121°24'39765005.6
2016-May-25 11:33N 38°03' E 120°16'40929451.9
2016-May-25 11:32N 31°19' E 121°34'45370950.4
2016-May-25 11:31N 24°25' E 118°05'4418451.7
2016-May-25 11:28N 31°17' E 121°05'235525.6
2016-May-25 11:28N 31°05' E 121°28'390.2
2016-May-25 11:26N 31°08' E 121°28'18601.8
2016-May-25 11:24N 31°25' E 121°31'2278454.5
2016-May-25 11:24N 31°40' E 121°12'243849.5
2016-May-25 11:24N 31°25' E 121°33'601109.5
2016-May-25 11:21N 30°26' E 121°23'4382049.8
2016-May-25 11:08N 37°38' E 122°45'390674.4
2016-May-25 10:33N 31°17' E 121°08'442397911.9
2016-May-25 10:33N 24°25' E 118°05'4541634779.1
2016-May-25 10:33N 31°21' E 121°31'177472.8
2016-May-25 10:33N 31°05' E 121°28'423108676.4
2016-May-25 10:33N 38°03' E 120°16'39720431.6
2016-May-25 10:32N 31°30' E 121°24'141139.8
2016-May-25 10:31N 31°19' E 121°34'39212720.4
2016-May-25 10:29N 37°51' E 121°18'44237921.7
2016-May-25 10:28N 30°29' E 121°10'45652926.6
2016-May-25 10:28N 38°02' E 120°08'50729923.8
2016-May-25 10:27N 29°44' E 122°03'89339.7
2016-May-25 10:11N 31°08' E 121°28'12263.7
2016-May-25 10:08N 30°58' E 121°19'281518.3
2016-May-25 10:07N 31°21' E 121°38'457814.7
2016-May-25 09:33N 24°25' E 118°05'438525860.0
2016-May-25 09:33N 31°05' E 121°28'420378232.1
2016-May-25 09:33N 37°59' E 119°59'499199575.1
2016-May-25 09:33N 29°51' E 122°07'9585107.6
2016-May-25 09:33N 31°22' E 121°36'41078.0
2016-May-25 09:33N 31°19' E 121°34'4994.2
2016-May-25 09:33N 31°23' E 121°33'3129.7
2016-May-25 09:31N 31°21' E 121°31'4118.9
2016-May-25 09:29N 31°25' E 121°31'8207.8
2016-May-25 09:27N 31°30' E 121°24'39795347.8
2016-May-25 09:27N 38°03' E 120°16'428128475.6
2016-May-25 09:26N 30°58' E 121°19'29699.1
2016-May-25 09:24N 31°25' E 121°33'4 5.2
2016-May-25 08:34N 31°21' E 121°33'3852.0
2016-May-25 08:33N 31°22' E 121°30'45496201.9
2016-May-25 08:33N 24°25' E 118°05'43837561.4
2016-May-25 08:32N 31°05' E 121°28'651468549.4
2016-May-25 08:32N 22°48' E 113°37'62244783.8
2016-May-25 08:31N 29°56' E 122°01'9315226.6
2016-May-25 08:31N 31°25' E 121°31'400143878.9
2016-May-25 08:31N 38°00' E 120°17'719117622.2
2016-May-25 08:31N 26°03' E 119°30'3354273.8
2016-May-25 08:26N 31°19' E 121°34'6526.9
2016-May-25 08:25N 31°25' E 121°33'1084.5
2016-May-25 08:18N 31°30' E 121°24'3668039.7
2016-May-25 08:16N 37°34' E 122°11'3592743.7
2016-May-25 08:08N 31°38' E 121°14'464812.7
2016-May-25 07:34N 24°25' E 118°05'26167038.5
2016-May-25 07:33N 22°57' E 113°37'65622081.8
2016-May-25 07:31N 31°17' E 121°34'407292853.9
2016-May-25 07:31N 37°59' E 120°16'405112106.3
2016-May-25 07:31N 31°19' E 121°34'152374.4
2016-May-25 07:31N 31°05' E 121°28'253656.4
2016-May-25 07:30N 31°30' E 121°24'33822969.3
2016-May-25 07:30N 26°06' E 119°32'307551807.2
2016-May-25 07:29N 30°58' E 121°19'862419.2
2016-May-25 07:27N 31°58' E 120°06'674.2
2016-May-25 07:22N 31°56' E 120°13'753720.6
2016-May-25 07:21N 31°21' E 121°32'3524978.6
2016-May-25 07:21N 31°46' E 121°04'35444.8
2016-May-25 07:16N 31°21' E 121°33'3504773.1
2016-May-25 07:12N 25°45' E 119°38'3504723.2
2016-May-25 07:07N 31°21' E 121°31'454807.3
2016-May-25 06:33N 24°25' E 118°05'45445411.6
2016-May-25 06:33N 31°21' E 121°31'2518200.0
2016-May-25 06:33N 30°58' E 121°19'633175403.2
2016-May-25 06:33N 22°57' E 113°37'661140071.7
2016-May-25 06:32N 31°42' E 121°09'3113863.2
2016-May-25 06:32N 31°19' E 121°34'153899.3
2016-May-25 06:32N 31°05' E 121°28'251988.1
2016-May-25 06:31N 31°30' E 121°24'3939899.8
2016-May-25 06:29N 37°59' E 120°17'36365312.1
2016-May-25 06:28N 31°57' E 120°06'38400.2
2016-May-25 06:23N 31°58' E 120°51'3175477.9
2016-May-25 06:19N 26°47' E 119°43'6727284.9
2016-May-25 06:14N 37°59' E 119°56'4176739.2
2016-May-25 06:10N 31°08' E 121°28'3251.7
2016-May-25 05:33N 31°38' E 121°16'662396963.5
2016-May-25 05:33N 22°57' E 113°37'26124710.3
2016-May-25 05:33N 24°25' E 118°05'454272588.1
2016-May-25 05:33N 31°22' E 121°30'10989.8
2016-May-25 05:32N 31°30' E 121°24'252471.1
2016-May-25 05:31N 31°05' E 121°28'121554.0
2016-May-25 05:31N 31°16' E 121°33'2115364.6
2016-May-25 05:31N 30°58' E 121°19'252461.0
2016-May-25 05:30N 31°19' E 121°34'8543567.1
2016-May-25 05:30N 31°57' E 120°05'86624.1
2016-May-25 05:22N 31°08' E 121°28'41612488.1
2016-May-25 05:20N 38°00' E 120°17'390504.7
2016-May-25 04:33N 31°33' E 121°21'661475761.7
2016-May-25 04:33N 22°57' E 113°37'63384452.8
2016-May-25 04:33N 30°58' E 121°19'2514766.2
2016-May-25 04:33N 31°19' E 121°34'45352640.6
2016-May-25 04:32N 24°25' E 118°05'438143416.4
2016-May-25 04:32N 31°05' E 121°28'25993.1
2016-May-25 04:30N 31°30' E 121°24'674715.5
2016-May-25 04:30N 31°56' E 120°12'676055.2
2016-May-25 04:29N 31°30' E 121°24'9225.1
2016-May-25 04:26N 31°22' E 121°30'40334584.6
2016-May-25 04:26N 38°01' E 120°17'36124962.5
2016-May-25 04:25N 32°01' E 120°46'59840.9
2016-May-25 04:21N 31°18' E 121°33'7412.1
2016-May-25 04:20N 31°25' E 121°33'172330.5
2016-May-25 04:19N 31°08' E 121°28'441575.1
2016-May-25 03:33N 24°25' E 118°05'429154375.9
2016-May-25 03:33N 30°58' E 121°19'335868.7
2016-May-25 03:33N 31°30' E 121°25'9427.8
2016-May-25 03:31N 31°22' E 121°30'169.8
2016-May-25 03:30N 31°23' E 121°30'5633.1
2016-May-25 03:30N 31°19' E 121°34'123705.7
2016-May-25 03:30N 31°08' E 121°28'221316.4
2016-May-25 03:29N 31°30' E 121°24'66021406.9
2016-May-25 03:27N 22°57' E 113°37'65527398.0
2016-May-25 03:25N 31°16' E 121°33'531.6
2016-May-25 03:16N 31°21' E 121°33'4054133.0
2016-May-25 03:10N 38°01' E 120°16'36368817.8
2016-May-25 03:10N 31°58' E 120°17'6471054.7
2016-May-25 02:33N 22°57' E 113°37'660125058.7
2016-May-25 02:33N 31°30' E 121°24'39549013.9
2016-May-25 02:32N 38°01' E 120°17'823370531.0
2016-May-25 02:32N 24°25' E 118°05'45377707.6
2016-May-25 02:32N 31°19' E 121°34'4508.4
2016-May-25 02:32N 31°21' E 121°38'2833638.8
2016-May-25 02:31N 30°58' E 121°19'2691864.0
2016-May-25 02:31N 31°22' E 121°30'12693.2
2016-May-25 02:30N 31°10' E 121°28'2018172.4
2016-May-25 02:30N 31°30' E 121°24'53124.1
2016-May-25 02:30N 31°27' E 121°29'41748.4
2016-May-25 02:30N 31°25' E 121°33'4161.3
2016-May-25 02:28N 31°21' E 121°33'2175.4
2016-May-25 02:28N 31°18' E 121°33'74725.5
2016-May-25 02:22N 31°59' E 120°20'7491.6
2016-May-25 01:33N 31°19' E 121°34'453101991.2
2016-May-25 01:33N 24°25' E 118°05'26136115.0
2016-May-25 01:33N 22°57' E 113°37'264316648.6
2016-May-25 01:33N 24°21' E 118°10'431110926.3
2016-May-25 01:32N 30°58' E 121°19'42424227.7
2016-May-25 01:31N 37°59' E 120°17'40239096.2
2016-May-25 01:31N 31°22' E 121°30'53632.2
2016-May-25 01:26N 32°01' E 120°48'38026324.8
2016-May-25 01:25N 25°45' E 119°39'3544318.8
2016-May-25 01:20N 31°25' E 121°33'4544.1
2016-May-25 01:19N 31°22' E 121°30'101095.6
2016-May-25 01:19N 31°30' E 121°24'21902.2
2016-May-25 01:18N 31°10' E 121°28'60682.3
2016-May-25 01:12N 32°00' E 120°49'5685.9
2016-May-25 00:33N 31°19' E 121°34'658789108.4
2016-May-25 00:33N 22°57' E 113°37'261134142.4
2016-May-25 00:33N 24°25' E 118°05'45246503.0
2016-May-25 00:33N 31°18' E 121°34'51308.4
2016-May-25 00:32N 31°23' E 121°34'46770043.9
2016-May-25 00:32N 24°13' E 118°08'46552272.9
2016-May-25 00:31N 31°22' E 121°30'10132.8
2016-May-25 00:27N 31°30' E 121°24'12565.4
2016-May-25 00:26N 31°21' E 121°33'458.0
2016-May-25 00:21N 31°25' E 121°33'814250.3
2016-May-25 00:20N 31°57' E 120°05'883315.1
2016-May-25 00:19N 31°20' E 121°40'657057.4
2016-May-25 00:18N 31°60' E 120°39'6992.2
2016-May-24 23:33N 31°05' E 121°28'194545.3
2016-May-24 23:33N 31°23' E 121°33'45763234.2
2016-May-24 23:33N 24°25' E 118°05'186620.5
2016-May-24 23:32N 24°07' E 118°04'47160498.6
2016-May-24 23:32N 31°19' E 121°34'7296.9
2016-May-24 23:31N 31°13' E 121°30'6512344379.5
2016-May-24 23:31N 22°57' E 113°37'66060926.9
2016-May-24 23:30N 31°30' E 121°24'10127.5
2016-May-24 23:25N 31°22' E 121°30'621710.0
2016-May-24 23:23N 32°02' E 120°35'69619.6
2016-May-24 23:17N 31°10' E 121°28'1684.6
2016-May-24 23:05N 31°25' E 121°33'663140471.6
2016-May-24 23:05N 22°58' E 113°32'6591251.5
2016-May-24 22:34N 31°19' E 121°34'1236.0
2016-May-24 22:33N 31°19' E 121°34'111690.3
2016-May-24 22:33N 31°10' E 121°28'2326.1
2016-May-24 22:33N 31°08' E 121°28'441113371.5
2016-May-24 22:32N 24°25' E 118°05'4381577795.2
2016-May-24 22:32N 31°05' E 121°28'644289683.4
2016-May-24 22:32N 22°57' E 113°37'657169052.0
2016-May-24 22:32N 31°22' E 121°30'65732834.9
2016-May-24 22:31N 23°02' E 113°31'65734777.9
2016-May-24 22:30N 31°19' E 121°34'1448927.7
2016-May-24 22:30N 31°30' E 121°24'39719580.5
2016-May-24 22:28N 38°03' E 120°17'3632237.7
2016-May-24 22:19N 32°00' E 120°23'7522543.2
2016-May-24 22:19N 31°21' E 121°38'550.5
2016-May-24 22:13N 31°21' E 121°33'1117.5
2016-May-24 21:33N 31°10' E 121°28'6471164971.0
2016-May-24 21:33N 22°57' E 113°37'6422311462.0
2016-May-24 21:33N 31°02' E 121°29'288472.7
2016-May-24 21:33N 31°30' E 121°24'92717.2
2016-May-24 21:33N 31°23' E 121°30'58184.0
2016-May-24 21:33N 31°19' E 121°34'4531631838.8
2016-May-24 21:33N 24°25' E 118°05'26931264.4
2016-May-24 21:32N 23°03' E 113°25'659182625.7
2016-May-24 21:32N 31°22' E 121°30'466.2
2016-May-24 21:29N 31°19' E 121°34'408244761.0
2016-May-24 21:28N 38°02' E 120°17'40918868.2
2016-May-24 21:27N 31°20' E 121°41'621661.0
2016-May-24 21:25N 32°01' E 120°47'56177.4
2016-May-24 21:06N 31°21' E 121°33'5786.6
2016-May-24 21:06N 31°16' E 121°33'9340.3
2016-May-24 21:04N 31°25' E 121°33'458902.8
2016-May-24 20:34N 24°25' E 118°05'45377706.6
2016-May-24 20:33N 31°19' E 121°34'658169094.6
2016-May-24 20:33N 22°57' E 113°37'640384061.6
2016-May-24 20:33N 31°01' E 121°27'2517897.4
2016-May-24 20:33N 31°25' E 121°33'4327.1
2016-May-24 20:32N 31°22' E 121°30'38042720.7
2016-May-24 20:31N 37°41' E 121°56'3866740.3
2016-May-24 20:28N 31°16' E 121°33'7826.0
2016-May-24 20:28N 31°10' E 121°28'41470947.8
2016-May-24 20:27N 37°57' E 119°56'36012961.7
2016-May-24 20:25N 31°59' E 120°49'515255.2
2016-May-24 20:25N 31°24' E 121°32'10295.1
2016-May-24 20:23N 31°30' E 121°24'460557.0
2016-May-24 19:33N 24°25' E 118°05'44363736.8
2016-May-24 19:33N 31°10' E 121°28'647582485.5
2016-May-24 19:33N 22°57' E 113°37'65850368.6
2016-May-24 19:32N 31°19' E 121°34'201352.7
2016-May-24 19:31N 31°01' E 121°27'25539.0
2016-May-24 19:29N 31°25' E 121°33'40231482.7
2016-May-24 19:28N 38°02' E 120°17'789368.9
2016-May-24 19:27N 38°49' E 121°36'4558155.9
2016-May-24 19:24N 31°14' E 121°30'17284.7
2016-May-24 19:20N 31°30' E 121°24'1701881.8
2016-May-24 19:15N 31°25' E 118°05'15210697.3
2016-May-24 19:14N 31°47' E 121°01'5276.0
2016-May-24 18:33N 31°01' E 121°27'640121282.6
2016-May-24 18:33N 22°57' E 113°37'661792967.6
2016-May-24 18:33N 32°00' E 120°41'475213871.7
2016-May-24 18:33N 24°25' E 118°05'45440871.2
2016-May-24 18:32N 31°22' E 121°29'1243911.5
2016-May-24 18:32N 31°10' E 121°28'625040.0
2016-May-24 18:31N 32°01' E 120°47'40922986.9
2016-May-24 18:30N 38°48' E 121°33'45344057.7
2016-May-24 18:30N 31°15' E 121°32'3744384.3
2016-May-24 18:30N 31°45' E 121°06'2112576.5
2016-May-24 18:29N 31°30' E 121°24'14410.9
2016-May-24 18:27N 31°19' E 121°34'455.9
2016-May-24 18:23N 31°22' E 121°30'5016073.9
2016-May-24 18:18N 23°43' E 117°42'481640.6
2016-May-24 17:33N 31°00' E 121°27'640767818.4
2016-May-24 17:33N 22°57' E 113°37'26155235.1
2016-May-24 17:33N 24°25' E 118°05'45339800.9
2016-May-24 17:32N 31°19' E 121°34'2816840.6
2016-May-24 17:32N 31°40' E 121°12'321141.7
2016-May-24 17:31N 31°13' E 121°30'498149319.7
2016-May-24 17:30N 23°40' E 117°38'49442349.1
2016-May-24 17:30N 31°10' E 121°28'3424325.7
2016-May-24 17:30N 31°41' E 121°12'43018431.7
2016-May-24 17:28N 38°50' E 121°32'4403793.5
2016-May-24 17:21N 31°30' E 121°24'14480.6
2016-May-24 17:19N 31°40' E 121°12'43831.1
2016-May-24 17:16N 30°58' E 121°15'40228354.2
2016-May-24 17:15N 37°38' E 121°50'401573.4
2016-May-24 16:34N 30°58' E 121°18'38137301.1
2016-May-24 16:33N 31°36' E 121°17'3822732.3
2016-May-24 16:33N 30°59' E 121°21'635326450.1
2016-May-24 16:33N 22°57' E 113°37'647258882.4
2016-May-24 16:33N 31°10' E 121°28'278177.2
2016-May-24 16:33N 31°36' E 121°18'463238113.7
2016-May-24 16:33N 24°25' E 118°05'45329669.8
2016-May-24 16:32N 31°19' E 121°34'557908.1
2016-May-24 16:31N 31°59' E 120°49'32116871.9
2016-May-24 16:31N 31°37' E 121°17'91033.3
2016-May-24 16:31N 31°30' E 121°24'37014957.9
2016-May-24 16:29N 37°39' E 121°53'38420019.8
2016-May-24 16:28N 31°16' E 121°33'725762.3
2016-May-24 16:28N 31°22' E 121°29'5193.2
2016-May-24 16:27N 31°25' E 121°33'91052.4
2016-May-24 16:26N 31°16' E 121°33'5271.8
2016-May-24 16:25N 31°21' E 121°32'218.4
2016-May-24 16:20N 31°22' E 121°30'086.0
2016-May-24 16:20N 31°22' E 121°30'1316.4
2016-May-24 15:34N 31°33' E 121°22'3691.9
2016-May-24 15:33N 31°31' E 121°24'460236804.7
2016-May-24 15:33N 24°25' E 118°05'26167071.2
2016-May-24 15:33N 22°57' E 113°37'637382021.3
2016-May-24 15:33N 30°59' E 121°23'332585.7
2016-May-24 15:32N 31°32' E 121°22'361553.7
2016-May-24 15:31N 30°57' E 121°13'1816372.0
2016-May-24 15:31N 31°10' E 121°28'5942552.6
2016-May-24 15:31N 31°59' E 120°49'412219.4
2016-May-24 15:29N 31°30' E 121°24'37123858.2
2016-May-24 15:28N 37°40' E 121°56'4621424.8
2016-May-24 15:09N 29°58' E 121°51'95160.8
2016-May-24 14:34N 31°30' E 121°25'46041442.6
2016-May-24 14:33N 24°25' E 118°05'826212471.0
2016-May-24 14:33N 38°04' E 120°17'493104369.8
2016-May-24 14:32N 29°58' E 121°59'972499.3
2016-May-24 14:30N 31°30' E 121°24'292948.7
2016-May-24 14:29N 31°01' E 121°28'9588.6
2016-May-24 14:28N 31°10' E 121°28'1993.8
2016-May-24 14:17N 31°28' E 121°25'0 0.6
2016-May-24 13:33N 31°29' E 121°25'459550801.6
2016-May-24 13:33N 24°25' E 118°05'393117923.5
2016-May-24 13:33N 29°53' E 122°09'10441730.0
2016-May-24 13:33N 31°30' E 121°24'255.9
2016-May-24 13:31N 31°28' E 121°25'19321.8
2016-May-24 13:27N 31°10' E 121°28'20126.8
2016-May-24 13:18N 31°30' E 121°24'3 4.2
2016-May-24 12:33N 31°31' E 121°21'460110423.3
2016-May-24 12:33N 24°25' E 118°05'4781719674.7
2016-May-24 12:33N 32°01' E 120°47'151108995.6
2016-May-24 12:33N 29°44' E 122°03'912067.4
2016-May-24 12:30N 31°10' E 121°28'20150.9
2016-May-24 12:22N 31°30' E 121°24'52863.2
2016-May-24 12:18N 32°02' E 120°35'546993.3
2016-May-24 12:18N 31°28' E 121°25'5472490.8
2016-May-24 12:05N 23°16' E 116°57'93178.7
2016-May-24 11:33N 24°25' E 118°05'46047276.6
2016-May-24 11:33N 31°30' E 121°24'1158481.1
2016-May-24 11:32N 29°41' E 122°07'610129194.9
2016-May-24 11:32N 22°57' E 113°37'66035443.6
2016-May-24 11:30N 31°24' E 121°31'237.0
2016-May-24 11:27N 31°25' E 121°33'4386.6
2016-May-24 11:27N 31°22' E 121°30'8310360.2
2016-May-24 11:26N 31°58' E 120°02'7710679.3
2016-May-24 11:26N 31°28' E 121°25'11890.3
2016-May-24 11:25N 31°20' E 121°33'11322.2
2016-May-24 11:23N 31°10' E 121°28'7981.2
2016-May-24 11:23N 31°16' E 121°33'7232.6
2016-May-24 11:21N 31°23' E 121°35'66775075.2
2016-May-24 11:20N 22°53' E 113°31'6646658.1
2016-May-24 11:14N 31°19' E 121°34'54810554.3
2016-May-24 11:11N 23°12' E 116°51'5694762.8
2016-May-24 11:04N 32°01' E 120°48'57111.2
2016-May-24 10:33N 31°19' E 121°34'2210120.8
2016-May-24 10:33N 31°17' E 121°07'442265309.9
2016-May-24 10:33N 24°25' E 118°05'261234747.3
2016-May-24 10:33N 22°57' E 113°37'36687824.0
2016-May-24 10:33N 22°32' E 120°13'53086735.2
2016-May-24 10:32N 31°17' E 121°34'8839.4
2016-May-24 10:32N 31°25' E 121°33'10406.7
2016-May-24 10:30N 31°30' E 121°24'201441.3
2016-May-24 10:29N 31°10' E 121°28'6497.7
2016-May-24 10:29N 31°15' E 121°31'292361.9
2016-May-24 10:28N 31°39' E 121°13'152875.5
2016-May-24 10:28N 31°28' E 121°25'7966.2
2016-May-24 10:27N 31°22' E 121°29'5164.3
2016-May-24 10:26N 31°19' E 121°34'41432.5
2016-May-24 10:25N 31°22' E 121°30'192781633.4
2016-May-24 10:24N 00°02' E 114°10'195685892.9
2016-May-24 10:23N 32°00' E 120°48'34825.2
2016-May-24 10:20N 31°57' E 120°08'4425608.4
2016-May-24 10:15N 39°04' E 117°48'44110662.2
2016-May-24 10:13N 32°04' E 120°32'143217.2
2016-May-24 09:33N 29°60' E 121°56'5801044323.3
2016-May-24 09:33N 39°04' E 117°51'878150587.8
2016-May-24 09:33N 24°25' E 118°05'45712287.7
2016-May-24 09:31N 31°24' E 121°32'9701.0
2016-May-24 09:30N 31°30' E 121°24'10428.3
2016-May-24 09:29N 31°21' E 121°30'128.2
2016-May-24 09:26N 31°22' E 121°29'65759128.9
2016-May-24 09:26N 22°57' E 113°37'644193328.5
2016-May-24 09:25N 31°56' E 120°14'7721276.5
2016-May-24 09:25N 31°20' E 121°33'10146.1
2016-May-24 09:21N 31°11' E 121°28'957917.1
2016-May-24 09:20N 29°42' E 122°05'105480.5
2016-May-24 09:07N 31°22' E 121°30'496877.7
2016-May-24 08:33N 39°04' E 117°50'879451893.8
2016-May-24 08:33N 24°25' E 118°05'4541635511.5
2016-May-24 08:33N 31°22' E 121°30'7184848.0
2016-May-24 08:33N 31°59' E 120°19'709370.9
2016-May-24 08:33N 31°23' E 121°30'161143.9
2016-May-24 08:32N 31°07' E 121°28'8523663.9
2016-May-24 08:32N 29°48' E 122°05'883824.6
2016-May-24 08:30N 31°10' E 121°28'121829.6
2016-May-24 08:30N 31°22' E 121°29'356.2
2016-May-24 08:27N 31°21' E 121°32'3568.0
2016-May-24 08:27N 31°22' E 121°29'7910500.5
2016-May-24 08:27N 31°57' E 120°06'843854.2
2016-May-24 08:25N 31°19' E 121°34'14113.9
2016-May-24 08:18N 31°30' E 121°24'12947.6
2016-May-24 08:17N 31°21' E 121°33'454619.9
2016-May-24 07:33N 24°25' E 118°05'393353973.2
2016-May-24 07:33N 29°55' E 122°06'75135808.0
2016-May-24 07:33N 31°03' E 121°29'12920.7
2016-May-24 07:32N 30°58' E 121°16'63173328.4
2016-May-24 07:32N 22°57' E 113°37'657473024.4
2016-May-24 07:32N 31°22' E 121°29'95243.2
2016-May-24 07:32N 31°30' E 121°24'9849.7
2016-May-24 07:31N 31°22' E 121°29'121859.2
2016-May-24 07:31N 31°10' E 121°28'13255.2
2016-May-24 07:28N 31°22' E 121°30'3728.0
2016-May-24 07:28N 31°25' E 121°31'3599.2
2016-May-24 07:27N 31°22' E 121°30'4227.9
2016-May-24 07:26N 31°19' E 121°34'634723.4
2016-May-24 07:25N 32°01' E 120°38'66512730.9
2016-May-24 07:22N 23°03' E 113°16'66716332.6
2016-May-24 07:20N 31°30' E 121°24'335907.4
2016-May-24 07:19N 30°58' E 121°17'123170.3
2016-May-24 07:19N 31°09' E 121°11'43723462.1
2016-May-24 07:18N 24°21' E 118°14'46884217.2
2016-May-24 07:18N 31°56' E 120°16'8176.7
2016-May-24 07:15N 32°01' E 120°23'471671.4
2016-May-24 06:33N 24°25' E 118°05'430257914.1
2016-May-24 06:33N 30°59' E 121°20'640177093.9
2016-May-24 06:33N 23°02' E 113°22'663596354.6
2016-May-24 06:33N 31°21' E 121°33'456234510.5
2016-May-24 06:33N 24°22' E 118°08'39274206.2
2016-May-24 06:32N 29°57' E 121°56'6915489.4
2016-May-24 06:32N 30°59' E 121°20'248471.6
2016-May-24 06:32N 31°19' E 121°34'658157821.7
2016-May-24 06:32N 22°57' E 113°37'63771691.1
2016-May-24 06:31N 31°11' E 121°09'184030.5
2016-May-24 06:31N 31°01' E 121°27'22465.9
2016-May-24 06:28N 31°22' E 121°29'711250.4
2016-May-24 06:25N 31°56' E 120°16'714419.8
2016-May-24 06:24N 31°22' E 121°29'123.3
2016-May-24 06:21N 31°22' E 121°30'10226.3
2016-May-24 06:19N 31°30' E 121°24'21336.6
2016-May-24 06:15N 31°10' E 121°28'13242.9
2016-May-24 06:12N 31°22' E 121°30'455714.1
2016-May-24 05:34N 24°25' E 118°04'11233.9
2016-May-24 05:33N 24°25' E 118°05'440316844.3
2016-May-24 05:33N 31°14' E 121°09'639164231.7
2016-May-24 05:33N 23°04' E 113°28'637152822.6
2016-May-24 05:33N 30°59' E 121°24'2112843.9
2016-May-24 05:33N 31°19' E 121°34'56250.8
2016-May-24 05:33N 31°24' E 121°32'91637.2
2016-May-24 05:32N 31°30' E 121°24'309729.9
2016-May-24 05:32N 31°00' E 121°27'64039697.1
2016-May-24 05:31N 22°57' E 113°37'6576379.4
2016-May-24 05:25N 31°22' E 121°30'40312282.6
2016-May-24 05:23N 37°57' E 119°54'3588359.6
2016-May-24 05:21N 31°59' E 120°01'842760.2
2016-May-24 05:19N 31°22' E 121°29'2228.6
2016-May-24 04:33N 31°00' E 121°27'2211158.6
2016-May-24 04:33N 31°22' E 121°29'454272478.2
2016-May-24 04:33N 24°25' E 118°05'45423355.0
2016-May-24 04:32N 31°22' E 121°29'65926661.0
2016-May-24 04:30N 22°58' E 113°32'64448274.5
2016-May-24 04:30N 31°17' E 121°09'18772.3
2016-May-24 04:28N 31°30' E 121°24'10577.5
2016-May-24 04:27N 31°21' E 121°30'113.8
2016-May-24 04:25N 31°22' E 121°30'1388.0
2016-May-24 04:15N 31°09' E 121°27'64610867.6
2016-May-24 04:12N 22°57' E 113°37'65815995.4
2016-May-24 04:09N 31°19' E 121°34'786536.8
2016-May-24 04:09N 31°57' E 120°13'465793.0
2016-May-24 03:34N 24°25' E 118°05'4411589336.9
2016-May-24 03:34N 31°17' E 121°06'213976.2
2016-May-24 03:33N 31°08' E 121°28'121930.8
2016-May-24 03:33N 31°19' E 121°34'201876.6
2016-May-24 03:32N 31°00' E 121°27'646101121.1
2016-May-24 03:32N 22°53' E 113°30'62020.7
2016-May-24 03:32N 22°50' E 113°35'66458283.2
2016-May-24 03:31N 31°22' E 121°30'65713004.1
2016-May-24 03:28N 22°57' E 113°37'66040968.1
2016-May-24 03:27N 31°30' E 121°24'9239.4
2016-May-24 03:25N 31°24' E 121°31'25459.7
2016-May-24 03:22N 30°59' E 121°24'4127646.0
2016-May-24 03:18N 37°47' E 120°13'3908313.5
2016-May-24 03:15N 31°22' E 121°29'0 0.1
2016-May-24 03:12N 31°22' E 121°29'19273006.4
2016-May-24 02:33N 00°02' E 114°10'14822666929.4
2016-May-24 02:33N 24°25' E 118°05'261134140.3
2016-May-24 02:33N 22°57' E 113°37'63862027.2
2016-May-24 02:33N 30°59' E 121°24'93269.9
2016-May-24 02:32N 31°08' E 121°28'221603.0
2016-May-24 02:32N 31°30' E 121°24'10765.1
2016-May-24 02:31N 31°22' E 121°30'81303.4
2016-May-24 02:31N 31°28' E 121°25'7570.5
2016-May-24 02:30N 31°22' E 121°29'226008.5
2016-May-24 02:30N 31°00' E 121°27'27081071.1
2016-May-24 02:29N 26°46' E 119°43'29714238.2
2016-May-24 02:28N 31°29' E 121°26'11510.8
2016-May-24 02:27N 31°19' E 121°34'772439.2
2016-May-24 02:25N 31°57' E 120°15'733484.7
2016-May-24 02:24N 31°24' E 121°31'751330.0
2016-May-24 02:20N 31°56' E 120°11'6434311.2
2016-May-24 02:11N 23°00' E 113°31'65923477.3
2016-May-24 02:10N 31°21' E 121°33'454738.4
2016-May-24 01:33N 24°25' E 118°05'46248910.5
2016-May-24 01:32N 31°34' E 121°18'355436.3
2016-May-24 01:32N 31°00' E 121°27'2814328.4
2016-May-24 01:32N 31°28' E 121°25'2925958.9
2016-May-24 01:32N 30°59' E 121°24'255940.5
2016-May-24 01:31N 31°22' E 121°35'124388.7
2016-May-24 01:31N 31°30' E 121°24'193494090.0
2016-May-24 01:30N 00°02' E 114°10'137635373.6
2016-May-24 01:28N 22°57' E 113°37'64524445.1
2016-May-24 01:26N 31°57' E 120°15'7971006.8
2016-May-24 01:26N 31°08' E 121°28'141676.6
2016-May-24 01:25N 31°22' E 121°30'348.2
2016-May-24 01:22N 31°21' E 121°33'355.9
2016-May-24 01:19N 31°22' E 121°29'454597.3
2016-May-24 00:33N 24°25' E 118°05'45423693.8
2016-May-24 00:32N 31°22' E 121°29'221259.8
2016-May-24 00:31N 31°00' E 121°27'30840.8
2016-May-24 00:29N 31°30' E 121°24'311571.4
2016-May-24 00:28N 30°59' E 121°24'638163931.4
2016-May-24 00:27N 22°57' E 113°37'65715778.2
2016-May-24 00:25N 31°22' E 121°30'346.1
2016-May-24 00:21N 31°21' E 121°33'251023.8
2016-May-24 00:20N 31°39' E 121°13'15669.1
2016-May-24 00:19N 31°28' E 121°25'621640.1
2016-May-24 00:16N 32°02' E 120°24'19549405.2
2016-May-24 00:04N 00°02' E 114°10'19143762.3
2016-May-23 23:33N 31°08' E 121°28'82501.2
2016-May-23 23:33N 31°00' E 121°27'434520365.2
2016-May-23 23:33N 24°25' E 118°05'46043543.2
2016-May-23 23:32N 31°30' E 121°24'672531.0
2016-May-23 23:31N 31°56' E 120°11'55701.0
2016-May-23 23:26N 31°40' E 121°12'194190753.1
2016-May-23 23:25N 00°02' E 114°10'1900136785.4
2016-May-23 23:24N 30°57' E 121°13'72915.2
2016-May-23 23:19N 32°02' E 120°35'9605.7
2016-May-23 23:18N 32°03' E 120°25'621501.7
2016-May-23 23:16N 31°28' E 121°25'29356.9
2016-May-23 23:11N 30°59' E 121°24'813.2
2016-May-23 22:33N 30°58' E 121°15'337466.5
2016-May-23 22:33N 31°30' E 121°24'460206827.7
2016-May-23 22:33N 24°25' E 118°05'46649359.9
2016-May-23 22:32N 31°57' E 120°16'839582.5
2016-May-23 22:32N 31°00' E 121°27'237.6
2016-May-23 22:28N 30°59' E 121°24'1904107126.5
2016-May-23 22:27N 00°02' E 114°10'230528124.4
2016-May-23 22:22N 37°42' E 122°02'3933456.0
2016-May-23 22:16N 31°12' E 121°07'19163.8
2016-May-23 22:09N 31°08' E 121°28'1321.5
2016-May-23 21:33N 30°58' E 121°18'19021141242.3
2016-May-23 21:33N 00°02' E 114°10'1911860122.1
2016-May-23 21:33N 31°10' E 121°07'2035645.9
2016-May-23 21:33N 31°00' E 121°27'30561.9
2016-May-23 21:30N 31°30' E 121°24'31662.9
2016-May-23 21:27N 30°59' E 121°24'81314.9
2016-May-23 21:12N 32°02' E 120°24'771326.9
2016-May-23 21:08N 31°08' E 121°28'915.0
2016-May-23 20:34N 30°60' E 121°25'22114.3
2016-May-23 20:33N 31°00' E 121°27'434130089.6
2016-May-23 20:33N 24°25' E 118°05'432155603.8
2016-May-23 20:33N 30°60' E 121°25'9219.3
2016-May-23 20:31N 31°08' E 121°28'221512.7
2016-May-23 20:30N 31°30' E 121°24'3746827.5
2016-May-23 20:27N 37°42' E 122°10'401453.7
2016-May-23 19:33N 31°02' E 121°29'43637339.6
2016-May-23 19:33N 24°25' E 118°05'434120082.7
2016-May-23 19:33N 31°00' E 121°27'2071311.5
2016-May-23 19:33N 31°19' E 121°34'1811079.5
2016-May-23 19:32N 31°01' E 121°29'72050.7
2016-May-23 19:32N 31°08' E 121°28'22362.6
2016-May-23 19:29N 31°30' E 121°24'9745.6
2016-May-23 19:28N 31°22' E 121°29'3270.1
2016-May-23 19:27N 31°21' E 121°33'358.4
2016-May-23 19:24N 31°22' E 121°30'38111916.4
2016-May-23 19:23N 37°41' E 122°14'35917448.6
2016-May-23 19:21N 31°56' E 120°14'3686968.2
2016-May-23 19:18N 38°04' E 120°17'36819177.2
2016-May-23 19:17N 31°57' E 120°52'3771929.4
2016-May-23 19:05N 38°12' E 119°57'438818.4
2016-May-23 18:33N 31°00' E 121°27'43455752.7
2016-May-23 18:33N 24°25' E 118°05'453163183.9
2016-May-23 18:33N 31°19' E 121°34'125551.2
2016-May-23 18:32N 31°08' E 121°28'141224.7
2016-May-23 18:32N 31°22' E 121°30'38019283.9
2016-May-23 18:31N 37°40' E 122°16'37314123.0
2016-May-23 18:29N 31°30' E 121°24'295.9
2016-May-23 18:28N 31°28' E 121°25'2830.9
2016-May-23 17:33N 31°00' E 121°27'434130089.6
2016-May-23 17:33N 24°25' E 118°05'45315842.9
2016-May-23 17:32N 31°19' E 121°34'121233.0
2016-May-23 17:31N 31°08' E 121°28'622611.4
2016-May-23 17:30N 32°01' E 120°48'433758.8
2016-May-23 17:29N 31°30' E 121°24'103949.9
2016-May-23 17:29N 31°22' E 121°30'112.2
2016-May-23 17:24N 31°22' E 121°29'302257.3
2016-May-23 17:23N 31°45' E 121°06'23417.2
2016-May-23 17:20N 31°28' E 121°25'481700.6
2016-May-23 17:18N 32°00' E 120°43'3472175.1
2016-May-23 17:09N 37°39' E 122°10'72123.3
2016-May-23 16:34N 38°46' E 121°35'44731535.7
2016-May-23 16:33N 31°19' E 121°34'65663844.1
2016-May-23 16:32N 23°04' E 113°30'658474082.7
2016-May-23 16:32N 31°30' E 121°24'196103.4
2016-May-23 16:32N 31°43' E 121°08'43233.5
2016-May-23 16:32N 31°41' E 121°11'425865.1
2016-May-23 16:31N 31°00' E 121°27'43450357.3
2016-May-23 16:31N 24°25' E 118°05'82042157.4
2016-May-23 16:30N 37°38' E 122°07'38512715.8
2016-May-23 16:28N 31°15' E 121°29'7116.2
2016-May-23 16:24N 31°08' E 121°28'44516178.5
2016-May-23 16:23N 24°24' E 117°57'46213988.3
2016-May-23 16:21N 31°28' E 121°25'402782.9
2016-May-23 16:20N 31°57' E 120°52'47357.6
2016-May-23 16:12N 31°22' E 121°29'112.9
2016-May-23 16:08N 31°22' E 121°30'40612092.9
2016-May-23 16:06N 38°04' E 120°17'388719.1
2016-May-23 15:33N 31°39' E 121°14'465418950.0
2016-May-23 15:33N 24°25' E 118°03'462237692.5
2016-May-23 15:33N 31°33' E 121°20'333146.8
2016-May-23 15:32N 31°00' E 121°27'643578640.7
2016-May-23 15:32N 22°54' E 113°35'661148716.4
2016-May-23 15:32N 31°19' E 121°34'11395.6
2016-May-23 15:30N 31°28' E 121°25'8366.4
2016-May-23 15:29N 31°22' E 121°30'512159.5
2016-May-23 15:28N 31°59' E 120°49'411857.5
2016-May-23 15:26N 31°30' E 121°24'9227.2
2016-May-23 15:24N 31°22' E 121°29'44989739.1
2016-May-23 15:24N 38°51' E 121°33'45119329.7
2016-May-23 15:22N 31°20' E 121°33'6565721.3
2016-May-23 15:15N 23°04' E 113°30'96675577.1
2016-May-23 15:14N 38°04' E 120°17'39819896.5
2016-May-23 15:13N 31°30' E 121°24'2944.3
2016-May-23 14:34N 31°00' E 121°27'3512693.5
2016-May-23 14:33N 31°35' E 121°19'463237863.4
2016-May-23 14:33N 24°25' E 118°05'45346624.0
2016-May-23 14:33N 31°19' E 121°34'31716.2
2016-May-23 14:33N 31°21' E 121°31'2581.2
2016-May-23 14:32N 31°22' E 121°29'1189.4
2016-May-23 14:32N 31°22' E 121°30'25465.8
2016-May-23 14:29N 31°41' E 121°11'255286.3
2016-May-23 14:28N 31°22' E 121°30'65632349.3
2016-May-23 14:27N 23°04' E 113°30'61227521.2
2016-May-23 14:26N 29°58' E 121°53'9510103.2
2016-May-23 14:25N 31°30' E 121°24'140.0
2016-May-23 14:24N 31°29' E 121°25'46611323.2
2016-May-23 14:21N 24°17' E 118°10'8343930.0
2016-May-23 14:08N 38°04' E 120°17'396670.2
2016-May-23 13:33N 31°32' E 121°23'317066.2
2016-May-23 13:33N 31°00' E 121°26'4341560918.2
2016-May-23 13:33N 24°25' E 118°05'39247089.8
2016-May-23 13:32N 29°56' E 122°03'916520.1
2016-May-23 13:31N 31°22' E 121°30'315.0
2016-May-23 13:19N 31°25' E 121°30'762295.2
2016-May-23 13:17N 31°56' E 120°09'702648.4
2016-May-23 13:16N 31°29' E 121°25'7301.2
2016-May-23 13:14N 31°25' E 121°31'229.8
2016-May-23 13:11N 31°24' E 121°31'9112.2
2016-May-23 13:06N 31°30' E 121°24'66846212.0
2016-May-23 13:05N 22°55' E 113°27'66537379.8
2016-May-23 13:04N 31°22' E 121°29'2242.4
2016-May-23 12:33N 31°00' E 121°26'79283377.8
2016-May-23 12:33N 29°50' E 122°07'10642343.0
2016-May-23 12:33N 31°29' E 121°25'45997266.1
2016-May-23 12:33N 24°25' E 118°05'26517325.4
2016-May-23 12:32N 23°04' E 113°30'65619502.7
2016-May-23 12:30N 31°22' E 121°29'1401.3
2016-May-23 12:30N 31°22' E 121°30'9551.0
2016-May-23 12:29N 31°30' E 121°24'6679604.9
2016-May-23 12:25N 22°54' E 113°30'664796759.9
2016-May-23 12:25N 31°21' E 121°31'2301.5
2016-May-23 12:24N 31°21' E 121°33'57517.2
2016-May-23 12:17N 32°01' E 120°45'20445.5
2016-May-23 12:15N 31°47' E 121°01'42576498.2
2016-May-23 12:14N 38°51' E 121°33'44140697.7
2016-May-23 12:14N 31°30' E 121°24'3043.9
2016-May-23 11:33N 31°00' E 121°26'43457811.8
2016-May-23 11:33N 24°25' E 118°05'465239208.7
2016-May-23 11:33N 31°41' E 121°11'151904.1
2016-May-23 11:32N 31°30' E 121°24'43587.4
2016-May-23 11:28N 32°00' E 120°48'527761.7
2016-May-23 11:27N 31°22' E 121°29'65681373.2
2016-May-23 11:27N 23°04' E 113°30'65884663.5
2016-May-23 11:27N 31°29' E 121°25'1134297.9
2016-May-23 11:25N 29°41' E 122°05'1145790.8
2016-May-23 11:24N 31°30' E 121°24'9569.0
2016-May-23 11:23N 31°22' E 121°30'14141.8
2016-May-23 11:17N 31°32' E 121°20'66132165.6
2016-May-23 11:16N 22°59' E 113°31'66547865.2
2016-May-23 11:15N 31°59' E 120°49'2130.3
2016-May-23 10:33N 31°44' E 121°07'4756533.8
2016-May-23 10:33N 31°00' E 121°26'434156091.8
2016-May-23 10:33N 24°25' E 118°05'46087085.4
2016-May-23 10:33N 31°30' E 121°24'142718.2
2016-May-23 10:33N 31°19' E 121°34'5479.5
2016-May-23 10:32N 31°22' E 121°29'1077235.2
2016-May-23 10:31N 29°41' E 122°07'1155848.2
2016-May-23 10:30N 31°30' E 121°24'92277.3
2016-May-23 10:30N 31°22' E 121°30'25747.5
2016-May-23 10:28N 31°41' E 121°11'169309.8
2016-May-23 10:28N 31°30' E 121°24'6593199.6
2016-May-23 10:15N 23°04' E 113°29'66110916.4
2016-May-23 10:12N 31°20' E 121°41'456708.9
2016-May-23 09:33N 24°25' E 118°05'454136203.9
2016-May-23 09:33N 31°21' E 121°31'4971789979.1
2016-May-23 09:33N 23°48' E 117°39'503113078.9
2016-May-23 09:33N 31°30' E 121°24'29106194.5
2016-May-23 09:33N 31°00' E 121°26'4431400.8
2016-May-23 09:32N 31°42' E 121°10'304177.8
2016-May-23 09:32N 31°19' E 121°34'13630.0
2016-May-23 09:31N 31°30' E 121°24'118093.8
2016-May-23 09:31N 31°23' E 121°35'10618168.5
2016-May-23 09:30N 29°41' E 122°07'1155543.5
2016-May-23 09:29N 31°30' E 121°24'9135.2
2016-May-23 09:25N 31°22' E 121°29'373.5
2016-May-23 09:22N 31°21' E 121°33'3104.7
2016-May-23 09:21N 31°22' E 121°30'66214621.0
2016-May-23 09:18N 22°56' E 113°30'66745279.9
2016-May-23 09:17N 31°46' E 121°06'59550.7
2016-May-23 09:11N 32°00' E 119°59'6387222.2
2016-May-23 09:05N 23°04' E 113°29'229427.0
2016-May-23 08:33N 23°43' E 117°35'504139573.8
2016-May-23 08:33N 31°21' E 121°32'1472.2
2016-May-23 08:33N 31°20' E 121°33'0106.2
2016-May-23 08:33N 31°21' E 121°33'2124982.4
2016-May-23 08:33N 31°00' E 121°26'654336191.1
2016-May-23 08:33N 22°20' E 114°04'677110820.0
2016-May-23 08:32N 31°39' E 121°13'33948.4
2016-May-23 08:30N 31°08' E 121°28'9428090.2
2016-May-23 08:30N 29°41' E 122°07'1157689.0
2016-May-23 08:29N 31°30' E 121°24'023.4
2016-May-23 08:28N 31°30' E 121°24'36515445.0
2016-May-23 08:27N 37°33' E 122°05'36536453.3
2016-May-23 08:26N 31°30' E 121°24'1011.1
2016-May-23 07:33N 31°22' E 121°30'810181.8
2016-May-23 07:33N 31°29' E 121°25'313072.5
2016-May-23 07:33N 30°59' E 121°20'4012145.9
2016-May-23 07:32N 31°39' E 121°13'405755.2
2016-May-23 07:32N 31°00' E 121°26'302271.2
2016-May-23 07:31N 31°30' E 121°24'14324.0
2016-May-23 07:29N 31°19' E 121°34'291959.9
2016-May-23 07:28N 31°41' E 121°11'271037.3
2016-May-23 07:26N 31°21' E 121°33'10437509.4
2016-May-23 07:26N 29°41' E 122°07'15121701.7
2016-May-23 07:26N 31°55' E 120°48'61995.4
2016-May-23 07:22N 30°58' E 121°13'336006.2
2016-May-23 07:22N 31°30' E 121°24'702969.2
2016-May-23 07:20N 31°57' E 120°08'83829.6
2016-May-23 07:14N 31°16' E 121°33'67120135.2
2016-May-23 07:12N 22°24' E 113°54'451077.5
2016-May-23 07:10N 23°04' E 113°29'6381053.8
2016-May-23 06:33N 31°00' E 121°26'434195117.3
2016-May-23 06:33N 24°25' E 118°05'434111606.5
2016-May-23 06:33N 31°01' E 121°27'4230370.8
2016-May-23 06:33N 31°41' E 121°11'1761118.1
2016-May-23 06:33N 31°28' E 121°25'153104.0
2016-May-23 06:32N 31°39' E 121°13'642764.0
2016-May-23 06:31N 31°59' E 120°01'89160999.7
2016-May-23 06:31N 30°58' E 121°18'88317546.4
2016-May-23 06:31N 29°41' E 122°07'1166400.4
2016-May-23 06:30N 31°30' E 121°24'141262.3
2016-May-23 06:29N 31°19' E 121°34'532023.6
2016-May-23 06:28N 31°55' E 120°48'658395082.7
2016-May-23 06:28N 23°04' E 113°30'65687465.7
2016-May-23 06:27N 31°22' E 121°30'498448076.5
2016-May-23 06:27N 39°05' E 117°46'5002485.2
2016-May-23 06:15N 31°21' E 121°33'19269.1
2016-May-23 06:11N 31°35' E 121°19'3906645.7
2016-May-23 06:07N 38°01' E 120°17'8231456.8
2016-May-23 05:33N 24°25' E 118°05'45322983.9
2016-May-23 05:32N 31°19' E 121°34'10361650.9
2016-May-23 05:32N 29°41' E 122°07'11610401.6
2016-May-23 05:32N 31°30' E 121°24'14939.9
2016-May-23 05:31N 31°40' E 121°13'4215008.5
2016-May-23 05:31N 30°60' E 121°24'2996.8
2016-May-23 05:30N 31°00' E 121°26'3111291.2
2016-May-23 05:30N 31°31' E 121°20'673.9
2016-May-23 05:26N 31°28' E 121°25'10273.4
2016-May-23 05:23N 31°20' E 121°33'454543.8
2016-May-23 04:33N 24°25' E 118°05'460127292.9
2016-May-23 04:33N 31°30' E 121°24'486102987.8
2016-May-23 04:33N 39°04' E 117°50'515142630.4
2016-May-23 04:33N 31°00' E 121°26'876364.6
2016-May-23 04:32N 31°57' E 120°09'8212326.2
2016-May-23 04:31N 31°16' E 121°33'9729193.3
2016-May-23 04:31N 29°42' E 122°04'101180933.4
2016-May-23 04:31N 31°19' E 121°34'2714024.6
2016-May-23 04:31N 31°40' E 121°13'35943.1
2016-May-23 04:29N 31°08' E 121°28'7401.6
2016-May-23 04:28N 31°01' E 121°29'271065.5
2016-May-23 04:26N 31°28' E 121°25'17238.5
2016-May-23 04:22N 31°41' E 121°11'1561.1
2016-May-23 04:07N 31°30' E 121°24'5261.1
2016-May-23 04:06N 31°34' E 121°20'3462.7
2016-May-23 03:33N 31°00' E 121°26'304649.9
2016-May-23 03:33N 31°30' E 121°24'460827327.4
2016-May-23 03:33N 24°25' E 118°05'45933755.4
2016-May-23 03:32N 31°30' E 121°24'2310.1
2016-May-23 03:32N 31°28' E 121°25'162369.8
2016-May-23 03:31N 31°40' E 121°13'12113598.3
2016-May-23 03:31N 29°48' E 122°05'818849.8
2016-May-23 03:30N 31°03' E 121°29'411778.8
2016-May-23 03:29N 31°41' E 121°11'251358.7
2016-May-23 03:28N 31°22' E 121°30'1 8.9
2016-May-23 03:22N 31°21' E 121°31'1162.7
2016-May-23 03:12N 31°30' E 121°24'13330.2
2016-May-23 03:09N 31°20' E 121°33'2034.3
2016-May-23 02:34N 31°00' E 121°26'3773.3
2016-May-23 02:33N 31°03' E 121°29'189293.3
2016-May-23 02:33N 31°21' E 121°32'45465362.5
2016-May-23 02:33N 24°25' E 118°05'45349449.7
2016-May-23 02:32N 31°19' E 121°34'2017570.1
2016-May-23 02:32N 31°01' E 121°27'428046.9
2016-May-23 02:32N 31°41' E 121°11'296.9
2016-May-23 02:31N 31°40' E 121°13'2328067.2
2016-May-23 02:31N 31°22' E 121°30'66127046.2
2016-May-23 02:29N 22°55' E 113°34'664477875.0
2016-May-23 02:29N 31°30' E 121°24'1045967.1
2016-May-23 02:28N 29°53' E 122°08'1042519.2
2016-May-23 02:26N 31°30' E 121°24'762924.4
2016-May-23 02:24N 31°58' E 120°02'1480.8
2016-May-23 02:14N 31°58' E 120°18'467693.4
2016-May-23 01:33N 24°25' E 118°05'460330928.4
2016-May-23 01:33N 31°30' E 121°24'98047.4
2016-May-23 01:33N 31°24' E 121°31'2818.3
2016-May-23 01:33N 31°23' E 121°34'237621.9
2016-May-23 01:33N 31°00' E 121°26'7316346.3
2016-May-23 01:33N 29°55' E 122°03'7429568.1
2016-May-23 01:32N 31°03' E 121°29'52827565.7
2016-May-23 01:31N 23°17' E 116°47'55586910.7
2016-May-23 01:31N 31°40' E 121°13'22001.7
2016-May-23 01:31N 31°41' E 121°11'660182749.7
2016-May-23 01:31N 23°04' E 113°29'65914475.7
2016-May-23 01:28N 31°25' E 121°31'82555.3
2016-May-23 01:28N 31°30' E 121°24'229.3
2016-May-23 01:24N 31°28' E 121°25'7294.9
2016-May-23 01:22N 31°23' E 121°30'8525430.2
2016-May-23 01:22N 31°60' E 120°00'85306605.6
2016-May-23 01:22N 31°22' E 121°30'3266.6
2016-May-23 01:22N 31°21' E 121°33'70432.9
2016-May-23 01:12N 31°58' E 120°23'65111714.8
2016-May-23 01:09N 22°59' E 113°33'64221009.1
2016-May-23 01:07N 31°57' E 120°07'71127.4
2016-May-23 00:33N 31°30' E 121°24'2749257.2
2016-May-23 00:33N 31°03' E 121°29'53079464.0
2016-May-23 00:33N 23°20' E 116°38'55068337.9
2016-May-23 00:32N 31°28' E 121°25'2211126.2
2016-May-23 00:32N 31°16' E 121°04'251368.0
2016-May-23 00:31N 31°40' E 121°13'235600.2
2016-May-23 00:31N 31°22' E 121°30'3850.1
2016-May-23 00:31N 31°21' E 121°33'62109.5
2016-May-23 00:30N 31°26' E 121°29'31242.9
2016-May-23 00:30N 31°28' E 121°26'945553.3
2016-May-23 00:29N 29°57' E 121°56'886897.7
2016-May-23 00:28N 31°23' E 121°30'455545985.2
2016-May-23 00:28N 24°25' E 118°05'460137886.8
2016-May-23 00:28N 31°30' E 121°24'15274.2
2016-May-23 00:25N 31°41' E 121°11'66015734.5
2016-May-23 00:22N 23°04' E 113°29'626.4
2016-May-23 00:08N 22°59' E 113°33'6401097.4
2016-May-22 23:33N 31°00' E 121°26'43430606.6
2016-May-22 23:33N 24°25' E 118°05'460110409.4
2016-May-22 23:32N 31°32' E 121°21'11505.0
2016-May-22 23:31N 31°40' E 121°13'2417088.4
2016-May-22 23:31N 31°17' E 121°07'254734.1
2016-May-22 23:31N 31°22' E 121°36'2010538.3
2016-May-22 23:31N 31°03' E 121°29'351005.5
2016-May-22 23:28N 31°36' E 121°16'9301.5
2016-May-22 23:27N 31°30' E 121°24'010.7
2016-May-22 23:26N 31°30' E 121°24'10145.8
2016-May-22 23:22N 31°22' E 121°30'25836.7
2016-May-22 23:20N 31°41' E 121°11'27375.3
2016-May-22 23:16N 31°21' E 121°33'783121.0
2016-May-22 23:14N 31°57' E 120°11'692103.3
2016-May-22 23:12N 31°28' E 121°25'6 9.1
2016-May-22 22:33N 31°32' E 121°20'3036145.1
2016-May-22 22:33N 31°03' E 121°29'4371571757.7
2016-May-22 22:33N 24°25' E 118°05'454204250.7
2016-May-22 22:33N 31°21' E 121°31'112378.1
2016-May-22 22:33N 31°30' E 121°24'2107.3
2016-May-22 22:32N 31°28' E 121°25'162103.8
2016-May-22 22:31N 31°40' E 121°13'274.9
2016-May-22 22:30N 31°41' E 121°11'5211699.5
2016-May-22 22:30N 31°57' E 120°13'66558.8
2016-May-22 22:23N 31°30' E 121°24'14672.7
2016-May-22 22:21N 31°22' E 121°37'662.0
2016-May-22 22:16N 31°22' E 121°30'6588909.5
2016-May-22 22:11N 22°59' E 113°33'64813881.0
2016-May-22 22:08N 31°58' E 120°18'82141.1
2016-May-22 21:34N 31°00' E 121°26'3238415.6
2016-May-22 21:33N 31°32' E 121°20'135114.2
2016-May-22 21:33N 31°22' E 121°30'455327512.4
2016-May-22 21:33N 24°25' E 118°05'46419000.6
2016-May-22 21:32N 31°57' E 120°09'69247480.6
2016-May-22 21:32N 31°30' E 121°24'272592.7
2016-May-22 21:31N 31°03' E 121°29'192451.3
2016-May-22 21:31N 31°22' E 121°30'65828901.6
2016-May-22 21:29N 22°59' E 113°33'66299348.3
2016-May-22 21:29N 31°41' E 121°11'2146.2
2016-May-22 21:28N 31°40' E 121°13'14757.0
2016-May-22 21:27N 31°30' E 121°24'223.7
2016-May-22 21:22N 31°28' E 121°25'10223.3
2016-May-22 21:19N 31°21' E 121°33'7318844.4
2016-May-22 21:19N 31°59' E 120°19'75326.1
2016-May-22 21:05N 31°19' E 121°34'1732.7
2016-May-22 20:33N 31°32' E 121°20'460828207.1
2016-May-22 20:33N 24°25' E 118°05'466558883.0
2016-May-22 20:33N 31°41' E 121°11'292961.7
2016-May-22 20:33N 31°19' E 121°34'65959266.0
2016-May-22 20:32N 22°59' E 113°33'66346778.1
2016-May-22 20:31N 31°40' E 121°13'4202.5
2016-May-22 20:30N 31°42' E 121°08'18719.2
2016-May-22 20:28N 31°30' E 121°24'017.7
2016-May-22 20:28N 31°30' E 121°24'102646.5
2016-May-22 20:28N 31°22' E 121°30'8450.2
2016-May-22 20:27N 31°28' E 121°25'1074.1
2016-May-22 20:19N 31°21' E 121°33'797257.3
2016-May-22 20:18N 31°57' E 120°11'6419690.3
2016-May-22 20:14N 23°04' E 113°29'6424327.5
2016-May-22 20:05N 31°04' E 121°29'4 6.7
2016-May-22 19:33N 31°00' E 121°26'305932.8
2016-May-22 19:33N 31°30' E 121°24'314231.1
2016-May-22 19:32N 30°59' E 121°24'3358801.2
2016-May-22 19:32N 31°32' E 121°20'660118828.3
2016-May-22 19:32N 22°59' E 113°33'65931608.3
2016-May-22 19:31N 31°19' E 121°34'453148349.0
2016-May-22 19:31N 24°25' E 118°05'46082717.6
2016-May-22 19:30N 31°30' E 121°24'137.0
2016-May-22 19:29N 31°29' E 121°25'15758.9
2016-May-22 19:27N 31°40' E 121°13'23157.6
2016-May-22 19:19N 31°22' E 121°30'3229.5
2016-May-22 19:18N 31°21' E 121°33'55754.6
2016-May-22 19:14N 32°01' E 120°48'3623894.3
2016-May-22 19:08N 38°02' E 120°18'408709.2
2016-May-22 18:33N 31°19' E 121°34'1720700.8
2016-May-22 18:33N 31°32' E 121°20'3461057.1
2016-May-22 18:33N 30°58' E 121°18'8542.2
2016-May-22 18:33N 31°00' E 121°26'412614.9
2016-May-22 18:32N 31°40' E 121°13'38523925.5
2016-May-22 18:31N 38°02' E 120°11'824989003.3
2016-May-22 18:31N 24°25' E 118°05'46050143.3
2016-May-22 18:30N 31°30' E 121°24'0469.6
2016-May-22 18:30N 31°30' E 121°24'66134984.3
2016-May-22 18:29N 22°59' E 113°33'661340018.1
2016-May-22 18:29N 31°30' E 121°25'9498.5
2016-May-22 18:28N 31°22' E 121°30'18894.1
2016-May-22 18:26N 31°03' E 121°28'1778.4
2016-May-22 18:13N 31°21' E 121°33'2131.5
2016-May-22 17:34N 31°00' E 121°26'3210480.8
2016-May-22 17:33N 31°32' E 121°20'297563.0
2016-May-22 17:33N 31°03' E 121°28'43798348.3
2016-May-22 17:33N 24°25' E 118°05'46031219.9
2016-May-22 17:32N 31°30' E 121°24'143063.6
2016-May-22 17:32N 31°40' E 121°13'231240.9
2016-May-22 17:31N 31°22' E 121°30'4589.8
2016-May-22 17:30N 31°19' E 121°34'65928561.9
2016-May-22 17:29N 22°59' E 113°33'66158022.8
2016-May-22 17:28N 31°30' E 121°24'659169357.1
2016-May-22 17:28N 23°04' E 113°29'65421389.9
2016-May-22 17:26N 31°16' E 121°33'61448.7
2016-May-22 17:18N 32°01' E 120°44'3622588.1
2016-May-22 17:09N 38°02' E 120°11'39716227.3
2016-May-22 17:08N 31°30' E 121°25'2950.6
2016-May-22 16:33N 31°00' E 121°26'434104062.5
2016-May-22 16:33N 24°25' E 118°05'46027120.7
2016-May-22 16:32N 31°30' E 121°24'1412172.6
2016-May-22 16:32N 31°19' E 121°34'271535.2
2016-May-22 16:31N 31°40' E 121°13'262904.2
2016-May-22 16:31N 31°21' E 121°33'4535.5
2016-May-22 16:30N 31°22' E 121°38'408112890.2
2016-May-22 16:30N 38°04' E 120°17'97049876.6
2016-May-22 16:29N 22°59' E 113°33'65657556.3
2016-May-22 16:28N 31°16' E 121°33'660339204.2
2016-May-22 16:28N 23°02' E 113°21'662158952.8
2016-May-22 16:28N 31°22' E 121°30'5251.6
2016-May-22 16:27N 31°18' E 121°33'14193.5
2016-May-22 16:22N 31°30' E 121°24'1 9.5
2016-May-22 16:15N 31°30' E 121°25'39710423.3
2016-May-22 16:12N 38°02' E 120°11'96269255.1
2016-May-22 16:12N 23°04' E 113°29'6426583.8
2016-May-22 16:06N 31°04' E 121°29'2037.8
2016-May-22 15:34N 31°24' E 121°32'45229.7
2016-May-22 15:33N 31°19' E 121°34'1715525.6
2016-May-22 15:33N 31°32' E 121°20'5551.7
2016-May-22 15:33N 31°30' E 121°25'460236333.1
2016-May-22 15:33N 24°25' E 118°05'43497558.6
2016-May-22 15:32N 31°00' E 121°26'64134964.3
2016-May-22 15:31N 23°04' E 113°25'644210922.6
2016-May-22 15:31N 31°04' E 121°29'394683.2
2016-May-22 15:31N 31°40' E 121°13'24685.6
2016-May-22 15:29N 31°23' E 121°33'662264605.2
2016-May-22 15:28N 22°59' E 113°33'6624585.1
2016-May-22 15:20N 31°37' E 121°17'6607973.2
2016-May-22 15:15N 23°04' E 113°29'66044832.0
2016-May-22 15:14N 31°41' E 121°11'66539924.7
2016-May-22 15:13N 23°02' E 113°22'662148949.6
2016-May-22 15:13N 31°20' E 121°33'13793.1
2016-May-22 15:12N 31°30' E 121°24'3988371.1
2016-May-22 15:09N 38°04' E 120°17'40816318.0
2016-May-22 15:07N 31°21' E 121°33'40729865.9
2016-May-22 15:06N 38°02' E 120°11'396720.6
2016-May-22 14:34N 31°30' E 121°24'30106366.8
2016-May-22 14:33N 31°00' E 121°26'339844.1
2016-May-22 14:33N 31°33' E 121°20'1193.4
2016-May-22 14:33N 31°32' E 121°20'460165643.4
2016-May-22 14:33N 24°25' E 118°05'456164236.6
2016-May-22 14:33N 31°24' E 121°31'660594232.6
2016-May-22 14:33N 23°04' E 113°25'5826.1
2016-May-22 14:32N 23°03' E 113°30'660113196.8
2016-May-22 14:32N 31°41' E 121°11'162020.9
2016-May-22 14:31N 31°29' E 121°25'6611190038.9
2016-May-22 14:31N 22°59' E 113°33'661108137.7
2016-May-22 14:31N 31°26' E 121°29'203936.3
2016-May-22 14:31N 31°40' E 121°13'268431.7
2016-May-22 14:31N 31°21' E 121°33'40834153.6
2016-May-22 14:30N 38°04' E 120°17'4127522.7
2016-May-22 14:27N 31°18' E 121°43'655278.2
2016-May-22 14:26N 32°01' E 120°47'44534.2
2016-May-22 14:21N 31°30' E 121°24'27178.9
2016-May-22 14:12N 31°04' E 121°28'70110.2
2016-May-22 13:34N 29°58' E 121°58'392470662.9
2016-May-22 13:33N 24°25' E 118°05'460552138.0
2016-May-22 13:33N 31°32' E 121°20'121602.0
2016-May-22 13:33N 31°41' E 121°11'2910362.7
2016-May-22 13:33N 31°19' E 121°34'202464.3
2016-May-22 13:32N 31°00' E 121°26'293069.6
2016-May-22 13:32N 31°29' E 121°25'2925994.4
2016-May-22 13:32N 31°01' E 121°27'64196172.3
2016-May-22 13:31N 22°59' E 113°33'65950467.4
2016-May-22 13:31N 31°21' E 121°33'12956.0
2016-May-22 13:30N 31°30' E 121°24'010.4
2016-May-22 13:29N 31°30' E 121°24'39812128.5
2016-May-22 13:27N 38°04' E 120°18'40430317.6
2016-May-22 13:26N 31°24' E 121°32'3471.4
2016-May-22 13:26N 31°22' E 121°30'11781.1
2016-May-22 13:25N 31°31' E 121°22'6583369.9
2016-May-22 13:13N 23°04' E 113°29'10301854713.3
2016-May-22 13:13N 38°46' E 121°36'434657.6
2016-May-22 12:33N 31°32' E 121°20'108129599.9
2016-May-22 12:33N 29°52' E 122°08'95171756.2
2016-May-22 12:33N 31°22' E 121°30'2225952.5
2016-May-22 12:33N 31°00' E 121°26'417801.7
2016-May-22 12:33N 31°40' E 121°13'387173957.6
2016-May-22 12:33N 38°04' E 120°18'40786156.6
2016-May-22 12:33N 31°22' E 121°36'4571644319.9
2016-May-22 12:33N 24°25' E 118°05'46631623.4
2016-May-22 12:32N 31°40' E 121°13'66372293.4
2016-May-22 12:31N 22°59' E 113°33'66137777.1
2016-May-22 12:30N 31°29' E 121°25'3364.8
2016-May-22 12:30N 31°31' E 121°23'2326.8
2016-May-22 12:29N 31°30' E 121°24'10770.1
2016-May-22 12:29N 31°37' E 121°16'10117.7
2016-May-22 12:24N 31°30' E 121°24'44011737.3
2016-May-22 12:21N 38°50' E 121°33'4113963.1
2016-May-22 12:15N 32°01' E 120°47'4158.6
2016-May-22 11:33N 31°32' E 121°20'3212805.2
2016-May-22 11:33N 31°00' E 121°26'467140176.8
2016-May-22 11:33N 38°48' E 121°35'43856300.2
2016-May-22 11:33N 31°30' E 121°24'4601654271.8
2016-May-22 11:33N 24°25' E 118°05'45474282.5
2016-May-22 11:32N 31°21' E 121°31'241761.0
2016-May-22 11:31N 31°40' E 121°13'66316800.6
2016-May-22 11:29N 22°59' E 113°33'658124749.1
2016-May-22 11:29N 31°21' E 121°31'117718.0
2016-May-22 11:29N 31°30' E 121°24'156097.2
2016-May-22 11:29N 31°41' E 121°11'261683.5
2016-May-22 11:28N 31°59' E 120°49'5715670.1
2016-May-22 11:27N 31°21' E 121°38'668343699.9
2016-May-22 11:27N 22°54' E 113°30'66768590.6
2016-May-22 11:27N 31°29' E 121°25'6595452.9
2016-May-22 11:19N 23°04' E 113°29'6591185562.1
2016-May-22 11:19N 31°31' E 121°23'39364321.4
2016-May-22 11:19N 37°60' E 120°11'50653626.3
2016-May-22 11:18N 29°42' E 122°04'50916519.3
2016-May-22 11:17N 38°03' E 120°18'427594.6
2016-May-22 10:34N 31°00' E 121°26'238291.1
2016-May-22 10:33N 31°23' E 121°30'1322505.6
2016-May-22 10:33N 31°32' E 121°20'437174835.0
2016-May-22 10:33N 38°49' E 121°36'42832809.5
2016-May-22 10:32N 31°41' E 121°11'152285.8
2016-May-22 10:32N 31°30' E 121°24'675242962.7
2016-May-22 10:32N 22°18' E 114°08'675142905.8
2016-May-22 10:32N 31°30' E 121°24'1416617.6
2016-May-22 10:31N 31°40' E 121°13'358296.2
2016-May-22 10:31N 31°08' E 121°28'64711360.3
2016-May-22 10:28N 22°59' E 113°33'659169447.4
2016-May-22 10:28N 31°21' E 121°33'65724126.1
2016-May-22 10:26N 23°04' E 113°29'610219720.3
2016-May-22 10:26N 29°41' E 122°07'1563347.0
2016-May-22 10:23N 32°01' E 120°48'543562.5
2016-May-22 10:22N 31°21' E 121°31'1092.0
2016-May-22 10:16N 31°29' E 121°25'1014.2
2016-May-22 09:33N 31°36' E 121°16'37132669.0
2016-May-22 09:33N 31°00' E 121°26'43497558.6
2016-May-22 09:33N 24°25' E 118°05'45044986.1
2016-May-22 09:33N 31°16' E 121°33'319372.3
2016-May-22 09:32N 31°41' E 121°11'154570.3
2016-May-22 09:32N 31°30' E 121°24'1449188.4
2016-May-22 09:32N 31°40' E 121°13'66391773.7
2016-May-22 09:32N 22°59' E 113°33'66244950.3
2016-May-22 09:31N 31°39' E 121°13'1265057.1
2016-May-22 09:29N 29°41' E 122°05'998504.0
2016-May-22 09:29N 31°17' E 121°34'168076.3
2016-May-22 09:29N 31°30' E 121°24'659263440.5
2016-May-22 09:28N 23°04' E 113°29'645165795.7
2016-May-22 09:28N 31°08' E 121°28'131276.9
2016-May-22 09:28N 31°21' E 121°31'67222810.7
2016-May-22 09:26N 22°18' E 114°08'997597970.0
2016-May-22 09:26N 38°02' E 120°18'39714727.3
2016-May-22 09:24N 31°29' E 121°25'442750.1
2016-May-22 09:23N 32°00' E 120°49'41555.5
2016-May-22 09:19N 31°31' E 121°23'251620.5
2016-May-22 09:18N 31°10' E 121°07'623524.5
2016-May-22 09:17N 31°58' E 120°21'73748.6
2016-May-22 09:11N 30°58' E 121°09'66671.8
2016-May-22 09:05N 32°01' E 120°47'70132.4
2016-May-22 08:33N 31°00' E 121°26'43455746.4
2016-May-22 08:33N 24°25' E 118°05'46649313.2
2016-May-22 08:32N 31°41' E 121°11'2920738.4
2016-May-22 08:32N 31°19' E 121°34'121607.0
2016-May-22 08:32N 31°29' E 121°25'661198368.2
2016-May-22 08:32N 22°59' E 113°33'663795349.7
2016-May-22 08:32N 31°40' E 121°13'434671.9
2016-May-22 08:31N 30°58' E 121°17'4413149.9
2016-May-22 08:31N 31°41' E 121°10'122859.5
2016-May-22 08:31N 31°31' E 121°18'252459.8
2016-May-22 08:30N 31°08' E 121°28'51079846.6
2016-May-22 08:30N 39°05' E 117°46'60158518.2
2016-May-22 08:29N 29°42' E 122°04'616369898.8
2016-May-22 08:29N 22°18' E 114°08'99263741.2
2016-May-22 08:28N 37°59' E 120°11'39320516.7
2016-May-22 08:27N 31°30' E 121°24'39618761.0
2016-May-22 08:26N 38°02' E 120°18'39614408.3
2016-May-22 08:24N 31°30' E 121°24'16339.8
2016-May-22 08:21N 31°16' E 121°33'61199.2
2016-May-22 08:21N 31°21' E 121°31'65732844.5
2016-May-22 08:20N 23°02' E 113°30'6596899.7
2016-May-22 08:14N 31°31' E 121°23'659980.0
2016-May-22 07:34N 23°05' E 113°27'639287620.2
2016-May-22 07:33N 31°00' E 121°26'84578.0
2016-May-22 07:33N 30°58' E 121°18'428771104.8
2016-May-22 07:33N 24°25' E 118°05'46650808.3
2016-May-22 07:33N 31°41' E 121°11'4721699059.8
2016-May-22 07:33N 39°04' E 117°51'481216387.3
2016-May-22 07:33N 31°34' E 121°19'390107900.7
2016-May-22 07:32N 37°60' E 120°11'423762214.3
2016-May-22 07:32N 31°01' E 121°27'7935378.5
2016-May-22 07:32N 29°50' E 122°06'9433801.9
2016-May-22 07:32N 31°19' E 121°34'6561181543.9
2016-May-22 07:32N 23°04' E 113°29'660158476.6
2016-May-22 07:32N 31°40' E 121°13'3013384.8
2016-May-22 07:32N 31°16' E 121°33'161497.1
2016-May-22 07:31N 31°30' E 121°24'11412.6
2016-May-22 07:31N 31°29' E 121°25'312060.4
2016-May-22 07:30N 30°59' E 121°21'461738.1
2016-May-22 07:28N 31°43' E 121°06'365365.5
2016-May-22 07:28N 31°16' E 121°33'16431.3
2016-May-22 07:26N 31°30' E 121°24'12171.9
2016-May-22 07:22N 31°21' E 121°33'38860658.5
2016-May-22 07:21N 37°48' E 121°26'38722106.5
2016-May-22 07:20N 31°21' E 121°31'235409.3
2016-May-22 07:20N 31°38' E 121°14'326788.6
2016-May-22 07:20N 32°01' E 120°47'3621681.1
2016-May-22 07:07N 38°03' E 120°17'408738.4
2016-May-22 06:34N 31°19' E 121°34'8845243.8
2016-May-22 06:33N 29°55' E 122°02'39129360.9
2016-May-22 06:33N 24°25' E 118°05'46029545.3
2016-May-22 06:32N 31°30' E 121°25'666159865.3
2016-May-22 06:31N 23°03' E 113°18'66491916.9
2016-May-22 06:31N 31°19' E 121°34'21935.6
2016-May-22 06:30N 30°60' E 121°25'4029112.3
2016-May-22 06:30N 31°39' E 121°13'406555.6
2016-May-22 06:29N 31°01' E 121°27'3935153.9
2016-May-22 06:29N 31°38' E 121°14'2410.0
2016-May-22 06:29N 31°40' E 121°13'30626.3
2016-May-22 06:26N 31°16' E 121°33'653138387.5
2016-May-22 06:26N 23°04' E 113°29'6562362679.7
2016-May-22 06:26N 31°21' E 121°31'11972.3
2016-May-22 06:25N 31°30' E 121°24'39689176.4
2016-May-22 06:25N 38°03' E 120°17'36715715.7
2016-May-22 06:23N 31°57' E 120°52'8436.8
2016-May-22 06:22N 32°00' E 120°44'466868.7
2016-May-22 06:22N 31°30' E 121°24'209202.4
2016-May-22 06:22N 31°43' E 121°06'192387.9
2016-May-22 06:21N 31°31' E 121°22'591546.6
2016-May-22 06:19N 31°58' E 120°21'802311.6
2016-May-22 06:17N 31°00' E 121°26'51725498.6
2016-May-22 06:16N 39°05' E 117°45'5056284.8
2016-May-22 06:11N 31°16' E 121°33'0 0.0
2016-May-22 05:33N 31°16' E 121°33'451162208.4
2016-May-22 05:33N 24°25' E 118°04'46051778.0
2016-May-22 05:33N 31°30' E 121°25'2631758.8
2016-May-22 05:33N 31°03' E 121°29'514616661.9
2016-May-22 05:33N 39°04' E 117°48'486102917.1
2016-May-22 05:32N 31°31' E 121°22'151594.4
2016-May-22 05:32N 31°19' E 121°34'3410058.1
2016-May-22 05:32N 31°43' E 121°06'814533.3
2016-May-22 05:32N 31°39' E 121°14'2404.1
2016-May-22 05:31N 31°40' E 121°13'3868627.0
2016-May-22 05:31N 31°04' E 121°28'12166.3
2016-May-22 05:27N 31°16' E 121°33'6177.6
2016-May-22 05:25N 31°21' E 121°31'40673127.5
2016-May-22 05:25N 38°03' E 120°18'3667209.1
2016-May-22 05:22N 31°57' E 120°09'869145.8
2016-May-22 05:21N 31°00' E 121°26'30346.0
2016-May-22 05:16N 31°30' E 121°24'6 8.3
2016-May-22 04:33N 31°34' E 121°19'463277759.7
2016-May-22 04:33N 24°25' E 118°04'45460535.5
2016-May-22 04:33N 31°19' E 121°34'40911070.7
2016-May-22 04:31N 38°04' E 120°18'38620138.2
2016-May-22 04:29N 31°40' E 121°13'124006.5
2016-May-22 04:29N 31°31' E 121°22'362.6